<?xml version="1.0" encoding="UTF-8" standalone="no" ?>
<gpx xmlns="http://www.topografix.com/GPX/1/1" xmlns:xsi="http://www.w3.org/2001/XMLSchema-instance" xsi:schemaLocation="http://www.topografix.com/GPX/1/1 http://www.topografix.com/GPX/1/1/gpx.xsd" version="1.1" creator="VisuGPX - https://www.visugpx.com">
  <metadata>
    <name>VTT du mardi 21 août 2012 (de Coulevon)</name>
    <desc><![CDATA[Avec Christian et Ghis, temps sec et chaud]]></desc>
  </metadata>
  <trk>
    <name><![CDATA[Coulevon10]]></name>
    <trkseg>
      <trkpt lat="47.64437" lon="6.18342">
        <ele>225</ele>
        <time>2012-08-21T07:08:44.000Z</time>
      </trkpt>
      <trkpt lat="47.64437" lon="6.18342">
        <ele>225</ele>
        <time>2012-08-21T07:08:45.000Z</time>
      </trkpt>
      <trkpt lat="47.64439" lon="6.18333">
        <ele>225.39999389648</ele>
        <time>2012-08-21T07:11:49.000Z</time>
      </trkpt>
      <trkpt lat="47.6444" lon="6.18328">
        <ele>225.39999389648</ele>
        <time>2012-08-21T07:11:51.000Z</time>
      </trkpt>
      <trkpt lat="47.64439" lon="6.18324">
        <ele>225.39999389648</ele>
        <time>2012-08-21T07:11:57.000Z</time>
      </trkpt>
      <trkpt lat="47.64438" lon="6.18312">
        <ele>225.39999389648</ele>
        <time>2012-08-21T07:12:00.000Z</time>
      </trkpt>
      <trkpt lat="47.64437" lon="6.183">
        <ele>225.39999389648</ele>
        <time>2012-08-21T07:12:05.000Z</time>
      </trkpt>
      <trkpt lat="47.64442" lon="6.18292">
        <ele>225.39999389648</ele>
        <time>2012-08-21T07:12:10.000Z</time>
      </trkpt>
      <trkpt lat="47.64445" lon="6.18289">
        <ele>225.39999389648</ele>
        <time>2012-08-21T07:12:12.000Z</time>
      </trkpt>
      <trkpt lat="47.64454" lon="6.18278">
        <ele>225.39999389648</ele>
        <time>2012-08-21T07:12:19.000Z</time>
      </trkpt>
      <trkpt lat="47.64456" lon="6.18275">
        <ele>225.39999389648</ele>
        <time>2012-08-21T07:12:21.000Z</time>
      </trkpt>
      <trkpt lat="47.64461" lon="6.1827">
        <ele>225.39999389648</ele>
        <time>2012-08-21T07:12:24.000Z</time>
      </trkpt>
      <trkpt lat="47.64474" lon="6.18253">
        <ele>225.39999389648</ele>
        <time>2012-08-21T07:12:30.000Z</time>
      </trkpt>
      <trkpt lat="47.64476" lon="6.18248">
        <ele>225.39999389648</ele>
        <time>2012-08-21T07:12:31.000Z</time>
      </trkpt>
      <trkpt lat="47.64488" lon="6.18223">
        <ele>225.39999389648</ele>
        <time>2012-08-21T07:12:37.000Z</time>
      </trkpt>
      <trkpt lat="47.64498" lon="6.18197">
        <ele>225.39999389648</ele>
        <time>2012-08-21T07:12:44.000Z</time>
      </trkpt>
      <trkpt lat="47.645" lon="6.18187">
        <ele>225.39999389648</ele>
        <time>2012-08-21T07:12:46.000Z</time>
      </trkpt>
      <trkpt lat="47.645" lon="6.18175">
        <ele>225.39999389648</ele>
        <time>2012-08-21T07:12:48.000Z</time>
      </trkpt>
      <trkpt lat="47.64493" lon="6.18147">
        <ele>225.39999389648</ele>
        <time>2012-08-21T07:12:53.000Z</time>
      </trkpt>
      <trkpt lat="47.64495" lon="6.18117">
        <ele>225.39999389648</ele>
        <time>2012-08-21T07:12:58.000Z</time>
      </trkpt>
      <trkpt lat="47.64496" lon="6.18111">
        <ele>225.39999389648</ele>
        <time>2012-08-21T07:12:59.000Z</time>
      </trkpt>
      <trkpt lat="47.64503" lon="6.1808">
        <ele>225.39999389648</ele>
        <time>2012-08-21T07:13:06.000Z</time>
      </trkpt>
      <trkpt lat="47.64511" lon="6.18052">
        <ele>225.39999389648</ele>
        <time>2012-08-21T07:13:13.000Z</time>
      </trkpt>
      <trkpt lat="47.64526" lon="6.18034">
        <ele>225.39999389648</ele>
        <time>2012-08-21T07:13:20.000Z</time>
      </trkpt>
      <trkpt lat="47.64535" lon="6.18027">
        <ele>225.80000305176</ele>
        <time>2012-08-21T07:13:24.000Z</time>
      </trkpt>
      <trkpt lat="47.64536" lon="6.18024">
        <ele>226.19999694824</ele>
        <time>2012-08-21T07:13:25.000Z</time>
      </trkpt>
      <trkpt lat="47.64537" lon="6.18022">
        <ele>226.60000610352</ele>
        <time>2012-08-21T07:13:26.000Z</time>
      </trkpt>
      <trkpt lat="47.64538" lon="6.18019">
        <ele>227</ele>
        <time>2012-08-21T07:13:27.000Z</time>
      </trkpt>
      <trkpt lat="47.64539" lon="6.18016">
        <ele>227.39999389648</ele>
        <time>2012-08-21T07:13:28.000Z</time>
      </trkpt>
      <trkpt lat="47.64548" lon="6.17993">
        <ele>227.39999389648</ele>
        <time>2012-08-21T07:13:35.000Z</time>
      </trkpt>
      <trkpt lat="47.64554" lon="6.17968">
        <ele>227.39999389648</ele>
        <time>2012-08-21T07:13:40.000Z</time>
      </trkpt>
      <trkpt lat="47.64564" lon="6.17933">
        <ele>227.39999389648</ele>
        <time>2012-08-21T07:13:45.000Z</time>
      </trkpt>
      <trkpt lat="47.64568" lon="6.17926">
        <ele>227.39999389648</ele>
        <time>2012-08-21T07:13:46.000Z</time>
      </trkpt>
      <trkpt lat="47.6458" lon="6.1791">
        <ele>227.39999389648</ele>
        <time>2012-08-21T07:13:49.000Z</time>
      </trkpt>
      <trkpt lat="47.64585" lon="6.17904">
        <ele>227</ele>
        <time>2012-08-21T07:13:50.000Z</time>
      </trkpt>
      <trkpt lat="47.64589" lon="6.17899">
        <ele>226.39999389648</ele>
        <time>2012-08-21T07:13:51.000Z</time>
      </trkpt>
      <trkpt lat="47.64594" lon="6.17894">
        <ele>226</ele>
        <time>2012-08-21T07:13:52.000Z</time>
      </trkpt>
      <trkpt lat="47.64599" lon="6.1789">
        <ele>225.60000610352</ele>
        <time>2012-08-21T07:13:53.000Z</time>
      </trkpt>
      <trkpt lat="47.64604" lon="6.17887">
        <ele>225.19999694824</ele>
        <time>2012-08-21T07:13:54.000Z</time>
      </trkpt>
      <trkpt lat="47.64615" lon="6.17873">
        <ele>225.19999694824</ele>
        <time>2012-08-21T07:13:57.000Z</time>
      </trkpt>
      <trkpt lat="47.64617" lon="6.17853">
        <ele>225.19999694824</ele>
        <time>2012-08-21T07:14:00.000Z</time>
      </trkpt>
      <trkpt lat="47.64618" lon="6.17847">
        <ele>225.19999694824</ele>
        <time>2012-08-21T07:14:01.000Z</time>
      </trkpt>
      <trkpt lat="47.64627" lon="6.17821">
        <ele>225.19999694824</ele>
        <time>2012-08-21T07:14:06.000Z</time>
      </trkpt>
      <trkpt lat="47.64629" lon="6.17817">
        <ele>225.19999694824</ele>
        <time>2012-08-21T07:14:07.000Z</time>
      </trkpt>
      <trkpt lat="47.64634" lon="6.17808">
        <ele>225.19999694824</ele>
        <time>2012-08-21T07:14:10.000Z</time>
      </trkpt>
      <trkpt lat="47.64636" lon="6.17797">
        <ele>225.19999694824</ele>
        <time>2012-08-21T07:14:12.000Z</time>
      </trkpt>
      <trkpt lat="47.64636" lon="6.1779">
        <ele>225.19999694824</ele>
        <time>2012-08-21T07:14:13.000Z</time>
      </trkpt>
      <trkpt lat="47.64631" lon="6.17765">
        <ele>225.19999694824</ele>
        <time>2012-08-21T07:14:17.000Z</time>
      </trkpt>
      <trkpt lat="47.64629" lon="6.17759">
        <ele>225.19999694824</ele>
        <time>2012-08-21T07:14:18.000Z</time>
      </trkpt>
      <trkpt lat="47.64617" lon="6.17726">
        <ele>225.19999694824</ele>
        <time>2012-08-21T07:14:25.000Z</time>
      </trkpt>
      <trkpt lat="47.64613" lon="6.17703">
        <ele>225.19999694824</ele>
        <time>2012-08-21T07:14:30.000Z</time>
      </trkpt>
      <trkpt lat="47.64613" lon="6.17689">
        <ele>225.19999694824</ele>
        <time>2012-08-21T07:14:33.000Z</time>
      </trkpt>
      <trkpt lat="47.64615" lon="6.1768">
        <ele>225.19999694824</ele>
        <time>2012-08-21T07:14:35.000Z</time>
      </trkpt>
      <trkpt lat="47.64621" lon="6.17644">
        <ele>225.19999694824</ele>
        <time>2012-08-21T07:14:43.000Z</time>
      </trkpt>
      <trkpt lat="47.64632" lon="6.17617">
        <ele>225.19999694824</ele>
        <time>2012-08-21T07:14:51.000Z</time>
      </trkpt>
      <trkpt lat="47.64642" lon="6.17604">
        <ele>225.19999694824</ele>
        <time>2012-08-21T07:14:57.000Z</time>
      </trkpt>
      <trkpt lat="47.64645" lon="6.17604">
        <ele>225.60000610352</ele>
        <time>2012-08-21T07:14:58.000Z</time>
      </trkpt>
      <trkpt lat="47.64646" lon="6.17603">
        <ele>226</ele>
        <time>2012-08-21T07:14:59.000Z</time>
      </trkpt>
      <trkpt lat="47.64648" lon="6.17602">
        <ele>226.39999389648</ele>
        <time>2012-08-21T07:15:00.000Z</time>
      </trkpt>
      <trkpt lat="47.6465" lon="6.17601">
        <ele>227.19999694824</ele>
        <time>2012-08-21T07:15:01.000Z</time>
      </trkpt>
      <trkpt lat="47.64651" lon="6.17601">
        <ele>227.19999694824</ele>
        <time>2012-08-21T07:15:02.000Z</time>
      </trkpt>
      <trkpt lat="47.6466" lon="6.17597">
        <ele>227.19999694824</ele>
        <time>2012-08-21T07:15:08.000Z</time>
      </trkpt>
      <trkpt lat="47.64662" lon="6.17596">
        <ele>227.60000610352</ele>
        <time>2012-08-21T07:15:09.000Z</time>
      </trkpt>
      <trkpt lat="47.64664" lon="6.17595">
        <ele>228</ele>
        <time>2012-08-21T07:15:10.000Z</time>
      </trkpt>
      <trkpt lat="47.64666" lon="6.17594">
        <ele>228.39999389648</ele>
        <time>2012-08-21T07:15:11.000Z</time>
      </trkpt>
      <trkpt lat="47.64667" lon="6.17594">
        <ele>228.80000305176</ele>
        <time>2012-08-21T07:15:12.000Z</time>
      </trkpt>
      <trkpt lat="47.64669" lon="6.17593">
        <ele>229.19999694824</ele>
        <time>2012-08-21T07:15:13.000Z</time>
      </trkpt>
      <trkpt lat="47.64671" lon="6.17592">
        <ele>229.19999694824</ele>
        <time>2012-08-21T07:15:14.000Z</time>
      </trkpt>
      <trkpt lat="47.64679" lon="6.17587">
        <ele>229.19999694824</ele>
        <time>2012-08-21T07:15:19.000Z</time>
      </trkpt>
      <trkpt lat="47.64692" lon="6.17576">
        <ele>229.19999694824</ele>
        <time>2012-08-21T07:15:27.000Z</time>
      </trkpt>
      <trkpt lat="47.64694" lon="6.17575">
        <ele>229.60000610352</ele>
        <time>2012-08-21T07:15:28.000Z</time>
      </trkpt>
      <trkpt lat="47.64695" lon="6.17574">
        <ele>230</ele>
        <time>2012-08-21T07:15:29.000Z</time>
      </trkpt>
      <trkpt lat="47.64697" lon="6.17573">
        <ele>230.39999389648</ele>
        <time>2012-08-21T07:15:30.000Z</time>
      </trkpt>
      <trkpt lat="47.64698" lon="6.17571">
        <ele>230.80000305176</ele>
        <time>2012-08-21T07:15:31.000Z</time>
      </trkpt>
      <trkpt lat="47.647" lon="6.17569">
        <ele>231.19999694824</ele>
        <time>2012-08-21T07:15:32.000Z</time>
      </trkpt>
      <trkpt lat="47.64703" lon="6.17562">
        <ele>231.19999694824</ele>
        <time>2012-08-21T07:15:35.000Z</time>
      </trkpt>
      <trkpt lat="47.64712" lon="6.17545">
        <ele>231.19999694824</ele>
        <time>2012-08-21T07:15:43.000Z</time>
      </trkpt>
      <trkpt lat="47.64715" lon="6.1754">
        <ele>231.60000610352</ele>
        <time>2012-08-21T07:15:46.000Z</time>
      </trkpt>
      <trkpt lat="47.64716" lon="6.17538">
        <ele>232</ele>
        <time>2012-08-21T07:15:47.000Z</time>
      </trkpt>
      <trkpt lat="47.64717" lon="6.17536">
        <ele>232.39999389648</ele>
        <time>2012-08-21T07:15:48.000Z</time>
      </trkpt>
      <trkpt lat="47.64718" lon="6.17534">
        <ele>232.80000305176</ele>
        <time>2012-08-21T07:15:49.000Z</time>
      </trkpt>
      <trkpt lat="47.64719" lon="6.17531">
        <ele>233.39999389648</ele>
        <time>2012-08-21T07:15:50.000Z</time>
      </trkpt>
      <trkpt lat="47.6472" lon="6.17528">
        <ele>233.39999389648</ele>
        <time>2012-08-21T07:15:51.000Z</time>
      </trkpt>
      <trkpt lat="47.64725" lon="6.17513">
        <ele>233.39999389648</ele>
        <time>2012-08-21T07:15:58.000Z</time>
      </trkpt>
      <trkpt lat="47.64728" lon="6.17507">
        <ele>233.80000305176</ele>
        <time>2012-08-21T07:16:01.000Z</time>
      </trkpt>
      <trkpt lat="47.64729" lon="6.17504">
        <ele>234.19999694824</ele>
        <time>2012-08-21T07:16:02.000Z</time>
      </trkpt>
      <trkpt lat="47.6473" lon="6.17502">
        <ele>234.60000610352</ele>
        <time>2012-08-21T07:16:03.000Z</time>
      </trkpt>
      <trkpt lat="47.64731" lon="6.175">
        <ele>235</ele>
        <time>2012-08-21T07:16:04.000Z</time>
      </trkpt>
      <trkpt lat="47.64732" lon="6.17498">
        <ele>235.39999389648</ele>
        <time>2012-08-21T07:16:05.000Z</time>
      </trkpt>
      <trkpt lat="47.64736" lon="6.17487">
        <ele>235.39999389648</ele>
        <time>2012-08-21T07:16:11.000Z</time>
      </trkpt>
      <trkpt lat="47.64741" lon="6.1747">
        <ele>235.39999389648</ele>
        <time>2012-08-21T07:16:18.000Z</time>
      </trkpt>
      <trkpt lat="47.64742" lon="6.17469">
        <ele>235.80000305176</ele>
        <time>2012-08-21T07:16:19.000Z</time>
      </trkpt>
      <trkpt lat="47.64743" lon="6.17467">
        <ele>236.19999694824</ele>
        <time>2012-08-21T07:16:20.000Z</time>
      </trkpt>
      <trkpt lat="47.64744" lon="6.17465">
        <ele>236.60000610352</ele>
        <time>2012-08-21T07:16:21.000Z</time>
      </trkpt>
      <trkpt lat="47.64745" lon="6.17463">
        <ele>237</ele>
        <time>2012-08-21T07:16:22.000Z</time>
      </trkpt>
      <trkpt lat="47.64746" lon="6.1746">
        <ele>237.60000610352</ele>
        <time>2012-08-21T07:16:23.000Z</time>
      </trkpt>
      <trkpt lat="47.64747" lon="6.17456">
        <ele>237.60000610352</ele>
        <time>2012-08-21T07:16:25.000Z</time>
      </trkpt>
      <trkpt lat="47.64748" lon="6.1744">
        <ele>237.60000610352</ele>
        <time>2012-08-21T07:16:31.000Z</time>
      </trkpt>
      <trkpt lat="47.64748" lon="6.17423">
        <ele>237.60000610352</ele>
        <time>2012-08-21T07:16:36.000Z</time>
      </trkpt>
      <trkpt lat="47.64748" lon="6.17418">
        <ele>238</ele>
        <time>2012-08-21T07:16:38.000Z</time>
      </trkpt>
      <trkpt lat="47.64748" lon="6.17416">
        <ele>238.39999389648</ele>
        <time>2012-08-21T07:16:39.000Z</time>
      </trkpt>
      <trkpt lat="47.64749" lon="6.17413">
        <ele>239.19999694824</ele>
        <time>2012-08-21T07:16:40.000Z</time>
      </trkpt>
      <trkpt lat="47.6475" lon="6.17411">
        <ele>239.60000610352</ele>
        <time>2012-08-21T07:16:41.000Z</time>
      </trkpt>
      <trkpt lat="47.64751" lon="6.17408">
        <ele>239.60000610352</ele>
        <time>2012-08-21T07:16:42.000Z</time>
      </trkpt>
      <trkpt lat="47.64755" lon="6.17393">
        <ele>239.60000610352</ele>
        <time>2012-08-21T07:16:48.000Z</time>
      </trkpt>
      <trkpt lat="47.64762" lon="6.17379">
        <ele>239.60000610352</ele>
        <time>2012-08-21T07:16:55.000Z</time>
      </trkpt>
      <trkpt lat="47.64767" lon="6.17366">
        <ele>240</ele>
        <time>2012-08-21T07:17:01.000Z</time>
      </trkpt>
      <trkpt lat="47.64768" lon="6.17364">
        <ele>240.39999389648</ele>
        <time>2012-08-21T07:17:02.000Z</time>
      </trkpt>
      <trkpt lat="47.64769" lon="6.17361">
        <ele>240.80000305176</ele>
        <time>2012-08-21T07:17:03.000Z</time>
      </trkpt>
      <trkpt lat="47.6477" lon="6.17359">
        <ele>241.19999694824</ele>
        <time>2012-08-21T07:17:04.000Z</time>
      </trkpt>
      <trkpt lat="47.64771" lon="6.17357">
        <ele>241.60000610352</ele>
        <time>2012-08-21T07:17:05.000Z</time>
      </trkpt>
      <trkpt lat="47.64775" lon="6.17348">
        <ele>241.60000610352</ele>
        <time>2012-08-21T07:17:10.000Z</time>
      </trkpt>
      <trkpt lat="47.6478" lon="6.17334">
        <ele>241.60000610352</ele>
        <time>2012-08-21T07:17:17.000Z</time>
      </trkpt>
      <trkpt lat="47.64782" lon="6.17326">
        <ele>242</ele>
        <time>2012-08-21T07:17:21.000Z</time>
      </trkpt>
      <trkpt lat="47.64782" lon="6.17324">
        <ele>242.39999389648</ele>
        <time>2012-08-21T07:17:22.000Z</time>
      </trkpt>
      <trkpt lat="47.64783" lon="6.17322">
        <ele>242.80000305176</ele>
        <time>2012-08-21T07:17:23.000Z</time>
      </trkpt>
      <trkpt lat="47.64783" lon="6.17319">
        <ele>243.19999694824</ele>
        <time>2012-08-21T07:17:24.000Z</time>
      </trkpt>
      <trkpt lat="47.64784" lon="6.17317">
        <ele>243.60000610352</ele>
        <time>2012-08-21T07:17:25.000Z</time>
      </trkpt>
      <trkpt lat="47.64788" lon="6.17305">
        <ele>243.60000610352</ele>
        <time>2012-08-21T07:17:31.000Z</time>
      </trkpt>
      <trkpt lat="47.64794" lon="6.1729">
        <ele>243.60000610352</ele>
        <time>2012-08-21T07:17:38.000Z</time>
      </trkpt>
      <trkpt lat="47.648" lon="6.17275">
        <ele>243.60000610352</ele>
        <time>2012-08-21T07:17:45.000Z</time>
      </trkpt>
      <trkpt lat="47.64804" lon="6.17266">
        <ele>244</ele>
        <time>2012-08-21T07:17:49.000Z</time>
      </trkpt>
      <trkpt lat="47.64805" lon="6.17264">
        <ele>244.60000610352</ele>
        <time>2012-08-21T07:17:50.000Z</time>
      </trkpt>
      <trkpt lat="47.64805" lon="6.17261">
        <ele>245</ele>
        <time>2012-08-21T07:17:51.000Z</time>
      </trkpt>
      <trkpt lat="47.64806" lon="6.17259">
        <ele>245.39999389648</ele>
        <time>2012-08-21T07:17:52.000Z</time>
      </trkpt>
      <trkpt lat="47.64807" lon="6.17257">
        <ele>245.80000305176</ele>
        <time>2012-08-21T07:17:53.000Z</time>
      </trkpt>
      <trkpt lat="47.64814" lon="6.17241">
        <ele>245.80000305176</ele>
        <time>2012-08-21T07:18:00.000Z</time>
      </trkpt>
      <trkpt lat="47.64819" lon="6.17226">
        <ele>245.80000305176</ele>
        <time>2012-08-21T07:18:07.000Z</time>
      </trkpt>
      <trkpt lat="47.64828" lon="6.17209">
        <ele>245.80000305176</ele>
        <time>2012-08-21T07:18:15.000Z</time>
      </trkpt>
      <trkpt lat="47.64834" lon="6.17199">
        <ele>246.19999694824</ele>
        <time>2012-08-21T07:18:19.000Z</time>
      </trkpt>
      <trkpt lat="47.64835" lon="6.17197">
        <ele>246.60000610352</ele>
        <time>2012-08-21T07:18:20.000Z</time>
      </trkpt>
      <trkpt lat="47.64836" lon="6.17195">
        <ele>247</ele>
        <time>2012-08-21T07:18:21.000Z</time>
      </trkpt>
      <trkpt lat="47.64838" lon="6.17192">
        <ele>247.39999389648</ele>
        <time>2012-08-21T07:18:22.000Z</time>
      </trkpt>
      <trkpt lat="47.64839" lon="6.1719">
        <ele>247.80000305176</ele>
        <time>2012-08-21T07:18:23.000Z</time>
      </trkpt>
      <trkpt lat="47.64841" lon="6.17188">
        <ele>247.80000305176</ele>
        <time>2012-08-21T07:18:24.000Z</time>
      </trkpt>
      <trkpt lat="47.64852" lon="6.17174">
        <ele>247.80000305176</ele>
        <time>2012-08-21T07:18:31.000Z</time>
      </trkpt>
      <trkpt lat="47.64864" lon="6.17161">
        <ele>247.80000305176</ele>
        <time>2012-08-21T07:18:38.000Z</time>
      </trkpt>
      <trkpt lat="47.6488" lon="6.17148">
        <ele>247.80000305176</ele>
        <time>2012-08-21T07:18:47.000Z</time>
      </trkpt>
      <trkpt lat="47.64891" lon="6.17139">
        <ele>248.19999694824</ele>
        <time>2012-08-21T07:18:53.000Z</time>
      </trkpt>
      <trkpt lat="47.64893" lon="6.17137">
        <ele>248.60000610352</ele>
        <time>2012-08-21T07:18:54.000Z</time>
      </trkpt>
      <trkpt lat="47.64894" lon="6.17135">
        <ele>249</ele>
        <time>2012-08-21T07:18:55.000Z</time>
      </trkpt>
      <trkpt lat="47.64896" lon="6.17133">
        <ele>249.39999389648</ele>
        <time>2012-08-21T07:18:56.000Z</time>
      </trkpt>
      <trkpt lat="47.64898" lon="6.17132">
        <ele>249.80000305176</ele>
        <time>2012-08-21T07:18:57.000Z</time>
      </trkpt>
      <trkpt lat="47.64907" lon="6.17123">
        <ele>249.80000305176</ele>
        <time>2012-08-21T07:19:02.000Z</time>
      </trkpt>
      <trkpt lat="47.64918" lon="6.17112">
        <ele>249.80000305176</ele>
        <time>2012-08-21T07:19:08.000Z</time>
      </trkpt>
      <trkpt lat="47.64932" lon="6.17093">
        <ele>249.80000305176</ele>
        <time>2012-08-21T07:19:15.000Z</time>
      </trkpt>
      <trkpt lat="47.64953" lon="6.17067">
        <ele>249.80000305176</ele>
        <time>2012-08-21T07:19:25.000Z</time>
      </trkpt>
      <trkpt lat="47.64969" lon="6.17048">
        <ele>249.80000305176</ele>
        <time>2012-08-21T07:19:33.000Z</time>
      </trkpt>
      <trkpt lat="47.64979" lon="6.17035">
        <ele>250.19999694824</ele>
        <time>2012-08-21T07:19:39.000Z</time>
      </trkpt>
      <trkpt lat="47.64981" lon="6.17032">
        <ele>250.60000610352</ele>
        <time>2012-08-21T07:19:40.000Z</time>
      </trkpt>
      <trkpt lat="47.64983" lon="6.1703">
        <ele>251.19999694824</ele>
        <time>2012-08-21T07:19:41.000Z</time>
      </trkpt>
      <trkpt lat="47.64986" lon="6.17027">
        <ele>251.60000610352</ele>
        <time>2012-08-21T07:19:42.000Z</time>
      </trkpt>
      <trkpt lat="47.64988" lon="6.17025">
        <ele>252</ele>
        <time>2012-08-21T07:19:43.000Z</time>
      </trkpt>
      <trkpt lat="47.65" lon="6.17007">
        <ele>252</ele>
        <time>2012-08-21T07:19:49.000Z</time>
      </trkpt>
      <trkpt lat="47.65012" lon="6.16991">
        <ele>252</ele>
        <time>2012-08-21T07:19:55.000Z</time>
      </trkpt>
      <trkpt lat="47.65028" lon="6.16965">
        <ele>252</ele>
        <time>2012-08-21T07:20:03.000Z</time>
      </trkpt>
      <trkpt lat="47.65048" lon="6.16938">
        <ele>252</ele>
        <time>2012-08-21T07:20:11.000Z</time>
      </trkpt>
      <trkpt lat="47.65059" lon="6.16923">
        <ele>251.60000610352</ele>
        <time>2012-08-21T07:20:16.000Z</time>
      </trkpt>
      <trkpt lat="47.65061" lon="6.1692">
        <ele>251.19999694824</ele>
        <time>2012-08-21T07:20:17.000Z</time>
      </trkpt>
      <trkpt lat="47.65063" lon="6.16917">
        <ele>250.60000610352</ele>
        <time>2012-08-21T07:20:18.000Z</time>
      </trkpt>
      <trkpt lat="47.65065" lon="6.16914">
        <ele>250.19999694824</ele>
        <time>2012-08-21T07:20:19.000Z</time>
      </trkpt>
      <trkpt lat="47.65067" lon="6.16912">
        <ele>249.80000305176</ele>
        <time>2012-08-21T07:20:20.000Z</time>
      </trkpt>
      <trkpt lat="47.65071" lon="6.16905">
        <ele>249.80000305176</ele>
        <time>2012-08-21T07:20:23.000Z</time>
      </trkpt>
      <trkpt lat="47.65078" lon="6.16894">
        <ele>249.80000305176</ele>
        <time>2012-08-21T07:20:28.000Z</time>
      </trkpt>
      <trkpt lat="47.65088" lon="6.16882">
        <ele>249.80000305176</ele>
        <time>2012-08-21T07:20:34.000Z</time>
      </trkpt>
      <trkpt lat="47.65099" lon="6.16866">
        <ele>249.80000305176</ele>
        <time>2012-08-21T07:20:39.000Z</time>
      </trkpt>
      <trkpt lat="47.6511" lon="6.16847">
        <ele>249.80000305176</ele>
        <time>2012-08-21T07:20:45.000Z</time>
      </trkpt>
      <trkpt lat="47.65124" lon="6.16826">
        <ele>249.80000305176</ele>
        <time>2012-08-21T07:20:52.000Z</time>
      </trkpt>
      <trkpt lat="47.65134" lon="6.16811">
        <ele>249.80000305176</ele>
        <time>2012-08-21T07:20:58.000Z</time>
      </trkpt>
      <trkpt lat="47.65141" lon="6.168">
        <ele>249.80000305176</ele>
        <time>2012-08-21T07:21:04.000Z</time>
      </trkpt>
      <trkpt lat="47.65148" lon="6.16787">
        <ele>249.80000305176</ele>
        <time>2012-08-21T07:21:09.000Z</time>
      </trkpt>
      <trkpt lat="47.65159" lon="6.16774">
        <ele>249.80000305176</ele>
        <time>2012-08-21T07:21:15.000Z</time>
      </trkpt>
      <trkpt lat="47.65168" lon="6.16761">
        <ele>249.80000305176</ele>
        <time>2012-08-21T07:21:20.000Z</time>
      </trkpt>
      <trkpt lat="47.65182" lon="6.16742">
        <ele>249.80000305176</ele>
        <time>2012-08-21T07:21:28.000Z</time>
      </trkpt>
      <trkpt lat="47.65195" lon="6.16721">
        <ele>249.80000305176</ele>
        <time>2012-08-21T07:21:35.000Z</time>
      </trkpt>
      <trkpt lat="47.65205" lon="6.16707">
        <ele>249.39999389648</ele>
        <time>2012-08-21T07:21:40.000Z</time>
      </trkpt>
      <trkpt lat="47.65206" lon="6.16705">
        <ele>249</ele>
        <time>2012-08-21T07:21:41.000Z</time>
      </trkpt>
      <trkpt lat="47.65207" lon="6.16704">
        <ele>248.60000610352</ele>
        <time>2012-08-21T07:21:42.000Z</time>
      </trkpt>
      <trkpt lat="47.65207" lon="6.16702">
        <ele>248.19999694824</ele>
        <time>2012-08-21T07:21:43.000Z</time>
      </trkpt>
      <trkpt lat="47.65208" lon="6.16702">
        <ele>247.80000305176</ele>
        <time>2012-08-21T07:21:44.000Z</time>
      </trkpt>
      <trkpt lat="47.65208" lon="6.16702">
        <ele>247.80000305176</ele>
        <time>2012-08-21T07:21:45.000Z</time>
      </trkpt>
      <trkpt lat="47.65212" lon="6.16695">
        <ele>247.80000305176</ele>
        <time>2012-08-21T07:22:42.000Z</time>
      </trkpt>
      <trkpt lat="47.65217" lon="6.16689">
        <ele>247.80000305176</ele>
        <time>2012-08-21T07:22:45.000Z</time>
      </trkpt>
      <trkpt lat="47.65226" lon="6.16679">
        <ele>247.80000305176</ele>
        <time>2012-08-21T07:22:50.000Z</time>
      </trkpt>
      <trkpt lat="47.65227" lon="6.16677">
        <ele>247.39999389648</ele>
        <time>2012-08-21T07:22:51.000Z</time>
      </trkpt>
      <trkpt lat="47.65228" lon="6.16675">
        <ele>247</ele>
        <time>2012-08-21T07:22:52.000Z</time>
      </trkpt>
      <trkpt lat="47.6523" lon="6.16673">
        <ele>246.39999389648</ele>
        <time>2012-08-21T07:22:53.000Z</time>
      </trkpt>
      <trkpt lat="47.65231" lon="6.16671">
        <ele>246</ele>
        <time>2012-08-21T07:22:54.000Z</time>
      </trkpt>
      <trkpt lat="47.65232" lon="6.16668">
        <ele>245.60000610352</ele>
        <time>2012-08-21T07:22:55.000Z</time>
      </trkpt>
      <trkpt lat="47.65234" lon="6.16662">
        <ele>245.60000610352</ele>
        <time>2012-08-21T07:22:57.000Z</time>
      </trkpt>
      <trkpt lat="47.65228" lon="6.16646">
        <ele>245.60000610352</ele>
        <time>2012-08-21T07:23:01.000Z</time>
      </trkpt>
      <trkpt lat="47.65225" lon="6.16641">
        <ele>245.60000610352</ele>
        <time>2012-08-21T07:23:03.000Z</time>
      </trkpt>
      <trkpt lat="47.65216" lon="6.16628">
        <ele>245.19999694824</ele>
        <time>2012-08-21T07:23:08.000Z</time>
      </trkpt>
      <trkpt lat="47.65215" lon="6.16625">
        <ele>244.80000305176</ele>
        <time>2012-08-21T07:23:09.000Z</time>
      </trkpt>
      <trkpt lat="47.65213" lon="6.16622">
        <ele>244.39999389648</ele>
        <time>2012-08-21T07:23:10.000Z</time>
      </trkpt>
      <trkpt lat="47.65211" lon="6.16619">
        <ele>244</ele>
        <time>2012-08-21T07:23:11.000Z</time>
      </trkpt>
      <trkpt lat="47.65209" lon="6.16616">
        <ele>243.60000610352</ele>
        <time>2012-08-21T07:23:12.000Z</time>
      </trkpt>
      <trkpt lat="47.65203" lon="6.16607">
        <ele>243.60000610352</ele>
        <time>2012-08-21T07:23:15.000Z</time>
      </trkpt>
      <trkpt lat="47.65189" lon="6.16588">
        <ele>243.60000610352</ele>
        <time>2012-08-21T07:23:22.000Z</time>
      </trkpt>
      <trkpt lat="47.65176" lon="6.16571">
        <ele>243.60000610352</ele>
        <time>2012-08-21T07:23:29.000Z</time>
      </trkpt>
      <trkpt lat="47.65166" lon="6.16559">
        <ele>243.19999694824</ele>
        <time>2012-08-21T07:23:34.000Z</time>
      </trkpt>
      <trkpt lat="47.65164" lon="6.16557">
        <ele>242.80000305176</ele>
        <time>2012-08-21T07:23:35.000Z</time>
      </trkpt>
      <trkpt lat="47.65163" lon="6.16554">
        <ele>242.39999389648</ele>
        <time>2012-08-21T07:23:36.000Z</time>
      </trkpt>
      <trkpt lat="47.65162" lon="6.16551">
        <ele>242</ele>
        <time>2012-08-21T07:23:37.000Z</time>
      </trkpt>
      <trkpt lat="47.6516" lon="6.16549">
        <ele>241.60000610352</ele>
        <time>2012-08-21T07:23:38.000Z</time>
      </trkpt>
      <trkpt lat="47.65157" lon="6.16542">
        <ele>241.60000610352</ele>
        <time>2012-08-21T07:23:41.000Z</time>
      </trkpt>
      <trkpt lat="47.65164" lon="6.16532">
        <ele>241.60000610352</ele>
        <time>2012-08-21T07:23:45.000Z</time>
      </trkpt>
      <trkpt lat="47.65172" lon="6.16529">
        <ele>241.60000610352</ele>
        <time>2012-08-21T07:23:48.000Z</time>
      </trkpt>
      <trkpt lat="47.65177" lon="6.16529">
        <ele>241.60000610352</ele>
        <time>2012-08-21T07:23:50.000Z</time>
      </trkpt>
      <trkpt lat="47.65184" lon="6.16529">
        <ele>241.19999694824</ele>
        <time>2012-08-21T07:23:53.000Z</time>
      </trkpt>
      <trkpt lat="47.65186" lon="6.16529">
        <ele>240.60000610352</ele>
        <time>2012-08-21T07:23:54.000Z</time>
      </trkpt>
      <trkpt lat="47.65189" lon="6.16529">
        <ele>240.19999694824</ele>
        <time>2012-08-21T07:23:55.000Z</time>
      </trkpt>
      <trkpt lat="47.65192" lon="6.16528">
        <ele>239.80000305176</ele>
        <time>2012-08-21T07:23:56.000Z</time>
      </trkpt>
      <trkpt lat="47.65195" lon="6.16528">
        <ele>239.39999389648</ele>
        <time>2012-08-21T07:23:57.000Z</time>
      </trkpt>
      <trkpt lat="47.65219" lon="6.16527">
        <ele>239</ele>
        <time>2012-08-21T07:24:02.000Z</time>
      </trkpt>
      <trkpt lat="47.65225" lon="6.16525">
        <ele>238.39999389648</ele>
        <time>2012-08-21T07:24:03.000Z</time>
      </trkpt>
      <trkpt lat="47.6523" lon="6.16524">
        <ele>237.39999389648</ele>
        <time>2012-08-21T07:24:04.000Z</time>
      </trkpt>
      <trkpt lat="47.65235" lon="6.16523">
        <ele>237</ele>
        <time>2012-08-21T07:24:05.000Z</time>
      </trkpt>
      <trkpt lat="47.65241" lon="6.16522">
        <ele>236.39999389648</ele>
        <time>2012-08-21T07:24:06.000Z</time>
      </trkpt>
      <trkpt lat="47.65246" lon="6.16521">
        <ele>236</ele>
        <time>2012-08-21T07:24:07.000Z</time>
      </trkpt>
      <trkpt lat="47.6525" lon="6.1652">
        <ele>235.39999389648</ele>
        <time>2012-08-21T07:24:08.000Z</time>
      </trkpt>
      <trkpt lat="47.65254" lon="6.1652">
        <ele>235</ele>
        <time>2012-08-21T07:24:09.000Z</time>
      </trkpt>
      <trkpt lat="47.65258" lon="6.1652">
        <ele>234.60000610352</ele>
        <time>2012-08-21T07:24:10.000Z</time>
      </trkpt>
      <trkpt lat="47.65267" lon="6.16519">
        <ele>234.60000610352</ele>
        <time>2012-08-21T07:24:13.000Z</time>
      </trkpt>
      <trkpt lat="47.65284" lon="6.16521">
        <ele>234.60000610352</ele>
        <time>2012-08-21T07:24:20.000Z</time>
      </trkpt>
      <trkpt lat="47.65301" lon="6.16522">
        <ele>234.60000610352</ele>
        <time>2012-08-21T07:24:28.000Z</time>
      </trkpt>
      <trkpt lat="47.65311" lon="6.16522">
        <ele>234.60000610352</ele>
        <time>2012-08-21T07:24:35.000Z</time>
      </trkpt>
      <trkpt lat="47.65314" lon="6.16514">
        <ele>232.60000610352</ele>
        <time>2012-08-21T07:26:08.000Z</time>
      </trkpt>
      <trkpt lat="47.6532" lon="6.16513">
        <ele>232.60000610352</ele>
        <time>2012-08-21T07:26:11.000Z</time>
      </trkpt>
      <trkpt lat="47.65335" lon="6.16515">
        <ele>232.60000610352</ele>
        <time>2012-08-21T07:26:17.000Z</time>
      </trkpt>
      <trkpt lat="47.65352" lon="6.16519">
        <ele>232.60000610352</ele>
        <time>2012-08-21T07:26:22.000Z</time>
      </trkpt>
      <trkpt lat="47.65381" lon="6.16524">
        <ele>232.60000610352</ele>
        <time>2012-08-21T07:26:29.000Z</time>
      </trkpt>
      <trkpt lat="47.65426" lon="6.16533">
        <ele>232.60000610352</ele>
        <time>2012-08-21T07:26:39.000Z</time>
      </trkpt>
      <trkpt lat="47.6546" lon="6.16537">
        <ele>232.60000610352</ele>
        <time>2012-08-21T07:26:46.000Z</time>
      </trkpt>
      <trkpt lat="47.65503" lon="6.16546">
        <ele>232.60000610352</ele>
        <time>2012-08-21T07:26:55.000Z</time>
      </trkpt>
      <trkpt lat="47.65532" lon="6.16549">
        <ele>232.60000610352</ele>
        <time>2012-08-21T07:27:02.000Z</time>
      </trkpt>
      <trkpt lat="47.65544" lon="6.16541">
        <ele>232.60000610352</ele>
        <time>2012-08-21T07:27:05.000Z</time>
      </trkpt>
      <trkpt lat="47.65547" lon="6.16536">
        <ele>232.60000610352</ele>
        <time>2012-08-21T07:27:06.000Z</time>
      </trkpt>
      <trkpt lat="47.65558" lon="6.16507">
        <ele>232.60000610352</ele>
        <time>2012-08-21T07:27:10.000Z</time>
      </trkpt>
      <trkpt lat="47.65578" lon="6.16472">
        <ele>232.60000610352</ele>
        <time>2012-08-21T07:27:15.000Z</time>
      </trkpt>
      <trkpt lat="47.6561" lon="6.16423">
        <ele>232</ele>
        <time>2012-08-21T07:27:22.000Z</time>
      </trkpt>
      <trkpt lat="47.65614" lon="6.16416">
        <ele>231.60000610352</ele>
        <time>2012-08-21T07:27:23.000Z</time>
      </trkpt>
      <trkpt lat="47.65619" lon="6.16409">
        <ele>231.19999694824</ele>
        <time>2012-08-21T07:27:24.000Z</time>
      </trkpt>
      <trkpt lat="47.65624" lon="6.16402">
        <ele>230.80000305176</ele>
        <time>2012-08-21T07:27:25.000Z</time>
      </trkpt>
      <trkpt lat="47.65629" lon="6.16396">
        <ele>230.39999389648</ele>
        <time>2012-08-21T07:27:26.000Z</time>
      </trkpt>
      <trkpt lat="47.65642" lon="6.16376">
        <ele>230.39999389648</ele>
        <time>2012-08-21T07:27:29.000Z</time>
      </trkpt>
      <trkpt lat="47.65672" lon="6.16333">
        <ele>230.39999389648</ele>
        <time>2012-08-21T07:27:36.000Z</time>
      </trkpt>
      <trkpt lat="47.65705" lon="6.16287">
        <ele>230.39999389648</ele>
        <time>2012-08-21T07:27:44.000Z</time>
      </trkpt>
      <trkpt lat="47.6573" lon="6.1625">
        <ele>230</ele>
        <time>2012-08-21T07:27:50.000Z</time>
      </trkpt>
      <trkpt lat="47.65734" lon="6.16244">
        <ele>229.60000610352</ele>
        <time>2012-08-21T07:27:51.000Z</time>
      </trkpt>
      <trkpt lat="47.65739" lon="6.16238">
        <ele>229.19999694824</ele>
        <time>2012-08-21T07:27:52.000Z</time>
      </trkpt>
      <trkpt lat="47.65743" lon="6.16231">
        <ele>228.60000610352</ele>
        <time>2012-08-21T07:27:53.000Z</time>
      </trkpt>
      <trkpt lat="47.65747" lon="6.16226">
        <ele>228.19999694824</ele>
        <time>2012-08-21T07:27:54.000Z</time>
      </trkpt>
      <trkpt lat="47.65775" lon="6.16187">
        <ele>228.19999694824</ele>
        <time>2012-08-21T07:28:01.000Z</time>
      </trkpt>
      <trkpt lat="47.65797" lon="6.16154">
        <ele>228.19999694824</ele>
        <time>2012-08-21T07:28:08.000Z</time>
      </trkpt>
      <trkpt lat="47.658" lon="6.1615">
        <ele>228.60000610352</ele>
        <time>2012-08-21T07:28:09.000Z</time>
      </trkpt>
      <trkpt lat="47.65803" lon="6.16145">
        <ele>229</ele>
        <time>2012-08-21T07:28:10.000Z</time>
      </trkpt>
      <trkpt lat="47.65805" lon="6.16141">
        <ele>229.60000610352</ele>
        <time>2012-08-21T07:28:11.000Z</time>
      </trkpt>
      <trkpt lat="47.65808" lon="6.16138">
        <ele>230.39999389648</ele>
        <time>2012-08-21T07:28:12.000Z</time>
      </trkpt>
      <trkpt lat="47.65815" lon="6.16127">
        <ele>230.39999389648</ele>
        <time>2012-08-21T07:28:15.000Z</time>
      </trkpt>
      <trkpt lat="47.65824" lon="6.16114">
        <ele>230.80000305176</ele>
        <time>2012-08-21T07:28:19.000Z</time>
      </trkpt>
      <trkpt lat="47.65826" lon="6.16111">
        <ele>231.19999694824</ele>
        <time>2012-08-21T07:28:20.000Z</time>
      </trkpt>
      <trkpt lat="47.65829" lon="6.16108">
        <ele>231.60000610352</ele>
        <time>2012-08-21T07:28:21.000Z</time>
      </trkpt>
      <trkpt lat="47.65831" lon="6.16105">
        <ele>232</ele>
        <time>2012-08-21T07:28:22.000Z</time>
      </trkpt>
      <trkpt lat="47.65834" lon="6.16102">
        <ele>232.39999389648</ele>
        <time>2012-08-21T07:28:23.000Z</time>
      </trkpt>
      <trkpt lat="47.65851" lon="6.16078">
        <ele>232.39999389648</ele>
        <time>2012-08-21T07:28:30.000Z</time>
      </trkpt>
      <trkpt lat="47.65855" lon="6.16071">
        <ele>232.80000305176</ele>
        <time>2012-08-21T07:28:32.000Z</time>
      </trkpt>
      <trkpt lat="47.65857" lon="6.16068">
        <ele>233.19999694824</ele>
        <time>2012-08-21T07:28:33.000Z</time>
      </trkpt>
      <trkpt lat="47.65859" lon="6.16066">
        <ele>233.60000610352</ele>
        <time>2012-08-21T07:28:34.000Z</time>
      </trkpt>
      <trkpt lat="47.65861" lon="6.16062">
        <ele>234</ele>
        <time>2012-08-21T07:28:35.000Z</time>
      </trkpt>
      <trkpt lat="47.65864" lon="6.1606">
        <ele>234.39999389648</ele>
        <time>2012-08-21T07:28:36.000Z</time>
      </trkpt>
      <trkpt lat="47.65866" lon="6.16057">
        <ele>234.39999389648</ele>
        <time>2012-08-21T07:28:37.000Z</time>
      </trkpt>
      <trkpt lat="47.65879" lon="6.16039">
        <ele>234.39999389648</ele>
        <time>2012-08-21T07:28:43.000Z</time>
      </trkpt>
      <trkpt lat="47.65895" lon="6.16019">
        <ele>234.39999389648</ele>
        <time>2012-08-21T07:28:50.000Z</time>
      </trkpt>
      <trkpt lat="47.65917" lon="6.15987">
        <ele>234.39999389648</ele>
        <time>2012-08-21T07:28:57.000Z</time>
      </trkpt>
      <trkpt lat="47.65927" lon="6.15972">
        <ele>234.39999389648</ele>
        <time>2012-08-21T07:29:00.000Z</time>
      </trkpt>
      <trkpt lat="47.65929" lon="6.15959">
        <ele>234.39999389648</ele>
        <time>2012-08-21T07:29:02.000Z</time>
      </trkpt>
      <trkpt lat="47.65923" lon="6.15941">
        <ele>234.39999389648</ele>
        <time>2012-08-21T07:29:05.000Z</time>
      </trkpt>
      <trkpt lat="47.65922" lon="6.15936">
        <ele>234.39999389648</ele>
        <time>2012-08-21T07:29:06.000Z</time>
      </trkpt>
      <trkpt lat="47.65908" lon="6.15912">
        <ele>234.39999389648</ele>
        <time>2012-08-21T07:29:12.000Z</time>
      </trkpt>
      <trkpt lat="47.65892" lon="6.15884">
        <ele>234.39999389648</ele>
        <time>2012-08-21T07:29:19.000Z</time>
      </trkpt>
      <trkpt lat="47.65874" lon="6.15851">
        <ele>234.39999389648</ele>
        <time>2012-08-21T07:29:27.000Z</time>
      </trkpt>
      <trkpt lat="47.65864" lon="6.15821">
        <ele>234.39999389648</ele>
        <time>2012-08-21T07:29:34.000Z</time>
      </trkpt>
      <trkpt lat="47.65856" lon="6.15787">
        <ele>234.39999389648</ele>
        <time>2012-08-21T07:29:41.000Z</time>
      </trkpt>
      <trkpt lat="47.65849" lon="6.15751">
        <ele>234.39999389648</ele>
        <time>2012-08-21T07:29:48.000Z</time>
      </trkpt>
      <trkpt lat="47.65841" lon="6.1571">
        <ele>234</ele>
        <time>2012-08-21T07:29:55.000Z</time>
      </trkpt>
      <trkpt lat="47.6584" lon="6.15704">
        <ele>233.60000610352</ele>
        <time>2012-08-21T07:29:56.000Z</time>
      </trkpt>
      <trkpt lat="47.65839" lon="6.15699">
        <ele>233.19999694824</ele>
        <time>2012-08-21T07:29:57.000Z</time>
      </trkpt>
      <trkpt lat="47.65838" lon="6.15693">
        <ele>232.80000305176</ele>
        <time>2012-08-21T07:29:58.000Z</time>
      </trkpt>
      <trkpt lat="47.65837" lon="6.15686">
        <ele>232.39999389648</ele>
        <time>2012-08-21T07:29:59.000Z</time>
      </trkpt>
      <trkpt lat="47.65833" lon="6.15667">
        <ele>232.39999389648</ele>
        <time>2012-08-21T07:30:02.000Z</time>
      </trkpt>
      <trkpt lat="47.65825" lon="6.15626">
        <ele>232.39999389648</ele>
        <time>2012-08-21T07:30:08.000Z</time>
      </trkpt>
      <trkpt lat="47.65821" lon="6.15606">
        <ele>232</ele>
        <time>2012-08-21T07:30:11.000Z</time>
      </trkpt>
      <trkpt lat="47.6582" lon="6.15599">
        <ele>231.39999389648</ele>
        <time>2012-08-21T07:30:12.000Z</time>
      </trkpt>
      <trkpt lat="47.65818" lon="6.15592">
        <ele>231</ele>
        <time>2012-08-21T07:30:13.000Z</time>
      </trkpt>
      <trkpt lat="47.65816" lon="6.15585">
        <ele>230.60000610352</ele>
        <time>2012-08-21T07:30:14.000Z</time>
      </trkpt>
      <trkpt lat="47.65815" lon="6.15578">
        <ele>230.19999694824</ele>
        <time>2012-08-21T07:30:15.000Z</time>
      </trkpt>
      <trkpt lat="47.65811" lon="6.15563">
        <ele>230.19999694824</ele>
        <time>2012-08-21T07:30:17.000Z</time>
      </trkpt>
      <trkpt lat="47.65801" lon="6.15515">
        <ele>229.80000305176</ele>
        <time>2012-08-21T07:30:23.000Z</time>
      </trkpt>
      <trkpt lat="47.65799" lon="6.15506">
        <ele>229.39999389648</ele>
        <time>2012-08-21T07:30:24.000Z</time>
      </trkpt>
      <trkpt lat="47.65798" lon="6.15498">
        <ele>229</ele>
        <time>2012-08-21T07:30:25.000Z</time>
      </trkpt>
      <trkpt lat="47.65796" lon="6.15489">
        <ele>228.60000610352</ele>
        <time>2012-08-21T07:30:26.000Z</time>
      </trkpt>
      <trkpt lat="47.65794" lon="6.1548">
        <ele>228.19999694824</ele>
        <time>2012-08-21T07:30:27.000Z</time>
      </trkpt>
      <trkpt lat="47.65789" lon="6.15452">
        <ele>227.80000305176</ele>
        <time>2012-08-21T07:30:30.000Z</time>
      </trkpt>
      <trkpt lat="47.65787" lon="6.15442">
        <ele>227.19999694824</ele>
        <time>2012-08-21T07:30:31.000Z</time>
      </trkpt>
      <trkpt lat="47.65785" lon="6.15433">
        <ele>226.80000305176</ele>
        <time>2012-08-21T07:30:32.000Z</time>
      </trkpt>
      <trkpt lat="47.65783" lon="6.15424">
        <ele>226.39999389648</ele>
        <time>2012-08-21T07:30:33.000Z</time>
      </trkpt>
      <trkpt lat="47.65781" lon="6.15415">
        <ele>226</ele>
        <time>2012-08-21T07:30:34.000Z</time>
      </trkpt>
      <trkpt lat="47.65776" lon="6.1539">
        <ele>226</ele>
        <time>2012-08-21T07:30:37.000Z</time>
      </trkpt>
      <trkpt lat="47.6577" lon="6.15359">
        <ele>226</ele>
        <time>2012-08-21T07:30:42.000Z</time>
      </trkpt>
      <trkpt lat="47.65763" lon="6.15323">
        <ele>226</ele>
        <time>2012-08-21T07:30:49.000Z</time>
      </trkpt>
      <trkpt lat="47.65756" lon="6.15281">
        <ele>226</ele>
        <time>2012-08-21T07:30:58.000Z</time>
      </trkpt>
      <trkpt lat="47.65752" lon="6.15262">
        <ele>226</ele>
        <time>2012-08-21T07:31:04.000Z</time>
      </trkpt>
      <trkpt lat="47.65748" lon="6.15246">
        <ele>226.39999389648</ele>
        <time>2012-08-21T07:31:10.000Z</time>
      </trkpt>
      <trkpt lat="47.65748" lon="6.15243">
        <ele>226.80000305176</ele>
        <time>2012-08-21T07:31:11.000Z</time>
      </trkpt>
      <trkpt lat="47.65747" lon="6.15241">
        <ele>227.19999694824</ele>
        <time>2012-08-21T07:31:12.000Z</time>
      </trkpt>
      <trkpt lat="47.65747" lon="6.15239">
        <ele>227.60000610352</ele>
        <time>2012-08-21T07:31:13.000Z</time>
      </trkpt>
      <trkpt lat="47.65746" lon="6.15236">
        <ele>228</ele>
        <time>2012-08-21T07:31:14.000Z</time>
      </trkpt>
      <trkpt lat="47.65744" lon="6.15223">
        <ele>228</ele>
        <time>2012-08-21T07:31:19.000Z</time>
      </trkpt>
      <trkpt lat="47.65741" lon="6.1521">
        <ele>228.39999389648</ele>
        <time>2012-08-21T07:31:24.000Z</time>
      </trkpt>
      <trkpt lat="47.65741" lon="6.15207">
        <ele>228.80000305176</ele>
        <time>2012-08-21T07:31:25.000Z</time>
      </trkpt>
      <trkpt lat="47.6574" lon="6.15204">
        <ele>229.19999694824</ele>
        <time>2012-08-21T07:31:26.000Z</time>
      </trkpt>
      <trkpt lat="47.6574" lon="6.15201">
        <ele>229.60000610352</ele>
        <time>2012-08-21T07:31:27.000Z</time>
      </trkpt>
      <trkpt lat="47.65739" lon="6.15199">
        <ele>230</ele>
        <time>2012-08-21T07:31:28.000Z</time>
      </trkpt>
      <trkpt lat="47.65736" lon="6.15183">
        <ele>230</ele>
        <time>2012-08-21T07:31:34.000Z</time>
      </trkpt>
      <trkpt lat="47.65732" lon="6.15163">
        <ele>230</ele>
        <time>2012-08-21T07:31:41.000Z</time>
      </trkpt>
      <trkpt lat="47.6573" lon="6.15148">
        <ele>230.39999389648</ele>
        <time>2012-08-21T07:31:46.000Z</time>
      </trkpt>
      <trkpt lat="47.6573" lon="6.15145">
        <ele>230.80000305176</ele>
        <time>2012-08-21T07:31:47.000Z</time>
      </trkpt>
      <trkpt lat="47.65729" lon="6.15142">
        <ele>231.39999389648</ele>
        <time>2012-08-21T07:31:48.000Z</time>
      </trkpt>
      <trkpt lat="47.65728" lon="6.15139">
        <ele>231.80000305176</ele>
        <time>2012-08-21T07:31:49.000Z</time>
      </trkpt>
      <trkpt lat="47.65728" lon="6.15136">
        <ele>232.19999694824</ele>
        <time>2012-08-21T07:31:50.000Z</time>
      </trkpt>
      <trkpt lat="47.65723" lon="6.15114">
        <ele>232.19999694824</ele>
        <time>2012-08-21T07:31:57.000Z</time>
      </trkpt>
      <trkpt lat="47.65719" lon="6.15093">
        <ele>232.19999694824</ele>
        <time>2012-08-21T07:32:04.000Z</time>
      </trkpt>
      <trkpt lat="47.65713" lon="6.15064">
        <ele>232.19999694824</ele>
        <time>2012-08-21T07:32:13.000Z</time>
      </trkpt>
      <trkpt lat="47.65708" lon="6.15036">
        <ele>232.19999694824</ele>
        <time>2012-08-21T07:32:21.000Z</time>
      </trkpt>
      <trkpt lat="47.65712" lon="6.15023">
        <ele>232.19999694824</ele>
        <time>2012-08-21T07:32:26.000Z</time>
      </trkpt>
      <trkpt lat="47.65715" lon="6.15022">
        <ele>232.19999694824</ele>
        <time>2012-08-21T07:32:28.000Z</time>
      </trkpt>
      <trkpt lat="47.6572" lon="6.15023">
        <ele>232.19999694824</ele>
        <time>2012-08-21T07:32:30.000Z</time>
      </trkpt>
      <trkpt lat="47.65733" lon="6.15023">
        <ele>232.19999694824</ele>
        <time>2012-08-21T07:32:37.000Z</time>
      </trkpt>
      <trkpt lat="47.65735" lon="6.15023">
        <ele>232.60000610352</ele>
        <time>2012-08-21T07:32:38.000Z</time>
      </trkpt>
      <trkpt lat="47.65737" lon="6.15023">
        <ele>233</ele>
        <time>2012-08-21T07:32:39.000Z</time>
      </trkpt>
      <trkpt lat="47.6574" lon="6.15023">
        <ele>233.39999389648</ele>
        <time>2012-08-21T07:32:40.000Z</time>
      </trkpt>
      <trkpt lat="47.65742" lon="6.15023">
        <ele>233.80000305176</ele>
        <time>2012-08-21T07:32:41.000Z</time>
      </trkpt>
      <trkpt lat="47.65744" lon="6.15024">
        <ele>234.19999694824</ele>
        <time>2012-08-21T07:32:42.000Z</time>
      </trkpt>
      <trkpt lat="47.65751" lon="6.15024">
        <ele>234.19999694824</ele>
        <time>2012-08-21T07:32:45.000Z</time>
      </trkpt>
      <trkpt lat="47.65772" lon="6.15024">
        <ele>234.19999694824</ele>
        <time>2012-08-21T07:32:53.000Z</time>
      </trkpt>
      <trkpt lat="47.65794" lon="6.15022">
        <ele>234.19999694824</ele>
        <time>2012-08-21T07:33:00.000Z</time>
      </trkpt>
      <trkpt lat="47.65827" lon="6.15019">
        <ele>234.19999694824</ele>
        <time>2012-08-21T07:33:09.000Z</time>
      </trkpt>
      <trkpt lat="47.65863" lon="6.15018">
        <ele>234.19999694824</ele>
        <time>2012-08-21T07:33:16.000Z</time>
      </trkpt>
      <trkpt lat="47.65874" lon="6.15019">
        <ele>233.80000305176</ele>
        <time>2012-08-21T07:33:18.000Z</time>
      </trkpt>
      <trkpt lat="47.6588" lon="6.15019">
        <ele>233.39999389648</ele>
        <time>2012-08-21T07:33:19.000Z</time>
      </trkpt>
      <trkpt lat="47.65887" lon="6.15019">
        <ele>233</ele>
        <time>2012-08-21T07:33:20.000Z</time>
      </trkpt>
      <trkpt lat="47.65893" lon="6.15019">
        <ele>232.60000610352</ele>
        <time>2012-08-21T07:33:21.000Z</time>
      </trkpt>
      <trkpt lat="47.659" lon="6.1502">
        <ele>232.19999694824</ele>
        <time>2012-08-21T07:33:22.000Z</time>
      </trkpt>
      <trkpt lat="47.6593" lon="6.15021">
        <ele>231.60000610352</ele>
        <time>2012-08-21T07:33:26.000Z</time>
      </trkpt>
      <trkpt lat="47.65938" lon="6.15021">
        <ele>231.19999694824</ele>
        <time>2012-08-21T07:33:27.000Z</time>
      </trkpt>
      <trkpt lat="47.65946" lon="6.15021">
        <ele>230.80000305176</ele>
        <time>2012-08-21T07:33:28.000Z</time>
      </trkpt>
      <trkpt lat="47.65954" lon="6.15021">
        <ele>230.19999694824</ele>
        <time>2012-08-21T07:33:29.000Z</time>
      </trkpt>
      <trkpt lat="47.65961" lon="6.15022">
        <ele>229.80000305176</ele>
        <time>2012-08-21T07:33:30.000Z</time>
      </trkpt>
      <trkpt lat="47.65984" lon="6.15023">
        <ele>229</ele>
        <time>2012-08-21T07:33:33.000Z</time>
      </trkpt>
      <trkpt lat="47.65991" lon="6.15024">
        <ele>228.39999389648</ele>
        <time>2012-08-21T07:33:34.000Z</time>
      </trkpt>
      <trkpt lat="47.65998" lon="6.15025">
        <ele>228</ele>
        <time>2012-08-21T07:33:35.000Z</time>
      </trkpt>
      <trkpt lat="47.66005" lon="6.15025">
        <ele>227.60000610352</ele>
        <time>2012-08-21T07:33:36.000Z</time>
      </trkpt>
      <trkpt lat="47.66048" lon="6.15026">
        <ele>227.60000610352</ele>
        <time>2012-08-21T07:33:43.000Z</time>
      </trkpt>
      <trkpt lat="47.66089" lon="6.15024">
        <ele>227.60000610352</ele>
        <time>2012-08-21T07:33:51.000Z</time>
      </trkpt>
      <trkpt lat="47.661" lon="6.15024">
        <ele>228</ele>
        <time>2012-08-21T07:33:54.000Z</time>
      </trkpt>
      <trkpt lat="47.66103" lon="6.15024">
        <ele>228.39999389648</ele>
        <time>2012-08-21T07:33:55.000Z</time>
      </trkpt>
      <trkpt lat="47.66106" lon="6.15024">
        <ele>228.80000305176</ele>
        <time>2012-08-21T07:33:56.000Z</time>
      </trkpt>
      <trkpt lat="47.66109" lon="6.15023">
        <ele>229.19999694824</ele>
        <time>2012-08-21T07:33:57.000Z</time>
      </trkpt>
      <trkpt lat="47.66113" lon="6.15022">
        <ele>229.80000305176</ele>
        <time>2012-08-21T07:33:58.000Z</time>
      </trkpt>
      <trkpt lat="47.66131" lon="6.15022">
        <ele>229.80000305176</ele>
        <time>2012-08-21T07:34:03.000Z</time>
      </trkpt>
      <trkpt lat="47.66139" lon="6.15022">
        <ele>230.19999694824</ele>
        <time>2012-08-21T07:34:05.000Z</time>
      </trkpt>
      <trkpt lat="47.66142" lon="6.15022">
        <ele>230.60000610352</ele>
        <time>2012-08-21T07:34:06.000Z</time>
      </trkpt>
      <trkpt lat="47.66146" lon="6.15022">
        <ele>231</ele>
        <time>2012-08-21T07:34:07.000Z</time>
      </trkpt>
      <trkpt lat="47.66148" lon="6.15022">
        <ele>231.39999389648</ele>
        <time>2012-08-21T07:34:08.000Z</time>
      </trkpt>
      <trkpt lat="47.66151" lon="6.15023">
        <ele>231.80000305176</ele>
        <time>2012-08-21T07:34:09.000Z</time>
      </trkpt>
      <trkpt lat="47.66165" lon="6.15022">
        <ele>232.19999694824</ele>
        <time>2012-08-21T07:34:15.000Z</time>
      </trkpt>
      <trkpt lat="47.66166" lon="6.15023">
        <ele>232.80000305176</ele>
        <time>2012-08-21T07:34:16.000Z</time>
      </trkpt>
      <trkpt lat="47.66168" lon="6.15024">
        <ele>233.19999694824</ele>
        <time>2012-08-21T07:34:17.000Z</time>
      </trkpt>
      <trkpt lat="47.6617" lon="6.15024">
        <ele>233.60000610352</ele>
        <time>2012-08-21T07:34:18.000Z</time>
      </trkpt>
      <trkpt lat="47.66172" lon="6.15024">
        <ele>234</ele>
        <time>2012-08-21T07:34:19.000Z</time>
      </trkpt>
      <trkpt lat="47.66174" lon="6.15024">
        <ele>234</ele>
        <time>2012-08-21T07:34:20.000Z</time>
      </trkpt>
      <trkpt lat="47.66192" lon="6.15028">
        <ele>234.39999389648</ele>
        <time>2012-08-21T07:34:27.000Z</time>
      </trkpt>
      <trkpt lat="47.66194" lon="6.15029">
        <ele>234.80000305176</ele>
        <time>2012-08-21T07:34:28.000Z</time>
      </trkpt>
      <trkpt lat="47.66196" lon="6.15029">
        <ele>235.19999694824</ele>
        <time>2012-08-21T07:34:29.000Z</time>
      </trkpt>
      <trkpt lat="47.66198" lon="6.15029">
        <ele>235.60000610352</ele>
        <time>2012-08-21T07:34:30.000Z</time>
      </trkpt>
      <trkpt lat="47.662" lon="6.15029">
        <ele>236</ele>
        <time>2012-08-21T07:34:31.000Z</time>
      </trkpt>
      <trkpt lat="47.66211" lon="6.15031">
        <ele>236</ele>
        <time>2012-08-21T07:34:36.000Z</time>
      </trkpt>
      <trkpt lat="47.66219" lon="6.15032">
        <ele>236.39999389648</ele>
        <time>2012-08-21T07:34:40.000Z</time>
      </trkpt>
      <trkpt lat="47.66221" lon="6.15032">
        <ele>236.80000305176</ele>
        <time>2012-08-21T07:34:41.000Z</time>
      </trkpt>
      <trkpt lat="47.66223" lon="6.15033">
        <ele>237.19999694824</ele>
        <time>2012-08-21T07:34:42.000Z</time>
      </trkpt>
      <trkpt lat="47.66225" lon="6.15033">
        <ele>237.60000610352</ele>
        <time>2012-08-21T07:34:43.000Z</time>
      </trkpt>
      <trkpt lat="47.66227" lon="6.15034">
        <ele>238</ele>
        <time>2012-08-21T07:34:44.000Z</time>
      </trkpt>
      <trkpt lat="47.66242" lon="6.15036">
        <ele>238</ele>
        <time>2012-08-21T07:34:51.000Z</time>
      </trkpt>
      <trkpt lat="47.6626" lon="6.15039">
        <ele>238.39999389648</ele>
        <time>2012-08-21T07:34:59.000Z</time>
      </trkpt>
      <trkpt lat="47.66262" lon="6.15039">
        <ele>238.80000305176</ele>
        <time>2012-08-21T07:35:00.000Z</time>
      </trkpt>
      <trkpt lat="47.66264" lon="6.1504">
        <ele>239.19999694824</ele>
        <time>2012-08-21T07:35:01.000Z</time>
      </trkpt>
      <trkpt lat="47.66266" lon="6.1504">
        <ele>239.60000610352</ele>
        <time>2012-08-21T07:35:02.000Z</time>
      </trkpt>
      <trkpt lat="47.66269" lon="6.15041">
        <ele>240</ele>
        <time>2012-08-21T07:35:03.000Z</time>
      </trkpt>
      <trkpt lat="47.66281" lon="6.15043">
        <ele>240</ele>
        <time>2012-08-21T07:35:08.000Z</time>
      </trkpt>
      <trkpt lat="47.66299" lon="6.15046">
        <ele>240</ele>
        <time>2012-08-21T07:35:16.000Z</time>
      </trkpt>
      <trkpt lat="47.6631" lon="6.15048">
        <ele>240.39999389648</ele>
        <time>2012-08-21T07:35:21.000Z</time>
      </trkpt>
      <trkpt lat="47.66313" lon="6.15048">
        <ele>240.80000305176</ele>
        <time>2012-08-21T07:35:22.000Z</time>
      </trkpt>
      <trkpt lat="47.66315" lon="6.15049">
        <ele>241.19999694824</ele>
        <time>2012-08-21T07:35:23.000Z</time>
      </trkpt>
      <trkpt lat="47.66318" lon="6.1505">
        <ele>241.60000610352</ele>
        <time>2012-08-21T07:35:24.000Z</time>
      </trkpt>
      <trkpt lat="47.66322" lon="6.15051">
        <ele>242</ele>
        <time>2012-08-21T07:35:25.000Z</time>
      </trkpt>
      <trkpt lat="47.66341" lon="6.15055">
        <ele>242</ele>
        <time>2012-08-21T07:35:31.000Z</time>
      </trkpt>
      <trkpt lat="47.66362" lon="6.15055">
        <ele>242</ele>
        <time>2012-08-21T07:35:38.000Z</time>
      </trkpt>
      <trkpt lat="47.66384" lon="6.15052">
        <ele>242</ele>
        <time>2012-08-21T07:35:45.000Z</time>
      </trkpt>
      <trkpt lat="47.66406" lon="6.15048">
        <ele>242</ele>
        <time>2012-08-21T07:35:52.000Z</time>
      </trkpt>
      <trkpt lat="47.6643" lon="6.15043">
        <ele>242</ele>
        <time>2012-08-21T07:35:59.000Z</time>
      </trkpt>
      <trkpt lat="47.66451" lon="6.15036">
        <ele>242</ele>
        <time>2012-08-21T07:36:05.000Z</time>
      </trkpt>
      <trkpt lat="47.6646" lon="6.15035">
        <ele>242</ele>
        <time>2012-08-21T07:36:07.000Z</time>
      </trkpt>
      <trkpt lat="47.66477" lon="6.15039">
        <ele>242</ele>
        <time>2012-08-21T07:36:11.000Z</time>
      </trkpt>
      <trkpt lat="47.66501" lon="6.1505">
        <ele>242</ele>
        <time>2012-08-21T07:36:17.000Z</time>
      </trkpt>
      <trkpt lat="47.66505" lon="6.1505">
        <ele>242</ele>
        <time>2012-08-21T07:36:18.000Z</time>
      </trkpt>
      <trkpt lat="47.66531" lon="6.1505">
        <ele>242</ele>
        <time>2012-08-21T07:36:25.000Z</time>
      </trkpt>
      <trkpt lat="47.66551" lon="6.15049">
        <ele>242</ele>
        <time>2012-08-21T07:36:31.000Z</time>
      </trkpt>
      <trkpt lat="47.66568" lon="6.1505">
        <ele>242</ele>
        <time>2012-08-21T07:36:37.000Z</time>
      </trkpt>
      <trkpt lat="47.66572" lon="6.15041">
        <ele>242</ele>
        <time>2012-08-21T07:36:40.000Z</time>
      </trkpt>
      <trkpt lat="47.6658" lon="6.15025">
        <ele>242</ele>
        <time>2012-08-21T07:36:45.000Z</time>
      </trkpt>
      <trkpt lat="47.66582" lon="6.15021">
        <ele>242.39999389648</ele>
        <time>2012-08-21T07:36:46.000Z</time>
      </trkpt>
      <trkpt lat="47.66583" lon="6.15018">
        <ele>243</ele>
        <time>2012-08-21T07:36:47.000Z</time>
      </trkpt>
      <trkpt lat="47.66585" lon="6.15015">
        <ele>243.39999389648</ele>
        <time>2012-08-21T07:36:48.000Z</time>
      </trkpt>
      <trkpt lat="47.66586" lon="6.15012">
        <ele>243.80000305176</ele>
        <time>2012-08-21T07:36:49.000Z</time>
      </trkpt>
      <trkpt lat="47.66588" lon="6.15009">
        <ele>244.19999694824</ele>
        <time>2012-08-21T07:36:50.000Z</time>
      </trkpt>
      <trkpt lat="47.66591" lon="6.15004">
        <ele>244.19999694824</ele>
        <time>2012-08-21T07:36:52.000Z</time>
      </trkpt>
      <trkpt lat="47.66602" lon="6.14983">
        <ele>244.19999694824</ele>
        <time>2012-08-21T07:37:00.000Z</time>
      </trkpt>
      <trkpt lat="47.66605" lon="6.14977">
        <ele>244.60000610352</ele>
        <time>2012-08-21T07:37:02.000Z</time>
      </trkpt>
      <trkpt lat="47.66606" lon="6.14975">
        <ele>245</ele>
        <time>2012-08-21T07:37:03.000Z</time>
      </trkpt>
      <trkpt lat="47.66607" lon="6.14972">
        <ele>245.39999389648</ele>
        <time>2012-08-21T07:37:04.000Z</time>
      </trkpt>
      <trkpt lat="47.66608" lon="6.14969">
        <ele>245.80000305176</ele>
        <time>2012-08-21T07:37:05.000Z</time>
      </trkpt>
      <trkpt lat="47.6661" lon="6.14968">
        <ele>246.19999694824</ele>
        <time>2012-08-21T07:37:06.000Z</time>
      </trkpt>
      <trkpt lat="47.66611" lon="6.14965">
        <ele>246.19999694824</ele>
        <time>2012-08-21T07:37:07.000Z</time>
      </trkpt>
      <trkpt lat="47.66619" lon="6.14956">
        <ele>246.19999694824</ele>
        <time>2012-08-21T07:37:12.000Z</time>
      </trkpt>
      <trkpt lat="47.66624" lon="6.14949">
        <ele>246.60000610352</ele>
        <time>2012-08-21T07:37:15.000Z</time>
      </trkpt>
      <trkpt lat="47.66626" lon="6.14947">
        <ele>247.39999389648</ele>
        <time>2012-08-21T07:37:16.000Z</time>
      </trkpt>
      <trkpt lat="47.66627" lon="6.14945">
        <ele>247.80000305176</ele>
        <time>2012-08-21T07:37:17.000Z</time>
      </trkpt>
      <trkpt lat="47.66629" lon="6.14943">
        <ele>248.19999694824</ele>
        <time>2012-08-21T07:37:18.000Z</time>
      </trkpt>
      <trkpt lat="47.66637" lon="6.14924">
        <ele>248.19999694824</ele>
        <time>2012-08-21T07:37:24.000Z</time>
      </trkpt>
      <trkpt lat="47.66638" lon="6.14921">
        <ele>248.80000305176</ele>
        <time>2012-08-21T07:37:25.000Z</time>
      </trkpt>
      <trkpt lat="47.66639" lon="6.14918">
        <ele>249.19999694824</ele>
        <time>2012-08-21T07:37:26.000Z</time>
      </trkpt>
      <trkpt lat="47.6664" lon="6.14915">
        <ele>249.60000610352</ele>
        <time>2012-08-21T07:37:27.000Z</time>
      </trkpt>
      <trkpt lat="47.66641" lon="6.14913">
        <ele>250</ele>
        <time>2012-08-21T07:37:28.000Z</time>
      </trkpt>
      <trkpt lat="47.66643" lon="6.1491">
        <ele>250.39999389648</ele>
        <time>2012-08-21T07:37:29.000Z</time>
      </trkpt>
      <trkpt lat="47.66646" lon="6.14899">
        <ele>250.39999389648</ele>
        <time>2012-08-21T07:37:33.000Z</time>
      </trkpt>
      <trkpt lat="47.66653" lon="6.14878">
        <ele>250.80000305176</ele>
        <time>2012-08-21T07:37:40.000Z</time>
      </trkpt>
      <trkpt lat="47.66654" lon="6.14875">
        <ele>251.19999694824</ele>
        <time>2012-08-21T07:37:41.000Z</time>
      </trkpt>
      <trkpt lat="47.66655" lon="6.14872">
        <ele>251.60000610352</ele>
        <time>2012-08-21T07:37:42.000Z</time>
      </trkpt>
      <trkpt lat="47.66656" lon="6.1487">
        <ele>252.19999694824</ele>
        <time>2012-08-21T07:37:43.000Z</time>
      </trkpt>
      <trkpt lat="47.66657" lon="6.14867">
        <ele>252.60000610352</ele>
        <time>2012-08-21T07:37:44.000Z</time>
      </trkpt>
      <trkpt lat="47.66663" lon="6.14855">
        <ele>252.60000610352</ele>
        <time>2012-08-21T07:37:49.000Z</time>
      </trkpt>
      <trkpt lat="47.66669" lon="6.14835">
        <ele>253</ele>
        <time>2012-08-21T07:37:56.000Z</time>
      </trkpt>
      <trkpt lat="47.6667" lon="6.14833">
        <ele>253.39999389648</ele>
        <time>2012-08-21T07:37:57.000Z</time>
      </trkpt>
      <trkpt lat="47.66671" lon="6.1483">
        <ele>254.19999694824</ele>
        <time>2012-08-21T07:37:58.000Z</time>
      </trkpt>
      <trkpt lat="47.66672" lon="6.14828">
        <ele>254.60000610352</ele>
        <time>2012-08-21T07:37:59.000Z</time>
      </trkpt>
      <trkpt lat="47.6668" lon="6.14808">
        <ele>254.60000610352</ele>
        <time>2012-08-21T07:38:06.000Z</time>
      </trkpt>
      <trkpt lat="47.66689" lon="6.14791">
        <ele>254.60000610352</ele>
        <time>2012-08-21T07:38:13.000Z</time>
      </trkpt>
      <trkpt lat="47.6669" lon="6.14792">
        <ele>254.60000610352</ele>
        <time>2012-08-21T07:38:14.000Z</time>
      </trkpt>
      <trkpt lat="47.66695" lon="6.14797">
        <ele>254.60000610352</ele>
        <time>2012-08-21T07:38:17.000Z</time>
      </trkpt>
      <trkpt lat="47.66699" lon="6.148">
        <ele>254.60000610352</ele>
        <time>2012-08-21T07:38:19.000Z</time>
      </trkpt>
      <trkpt lat="47.66701" lon="6.14802">
        <ele>254.60000610352</ele>
        <time>2012-08-21T07:38:20.000Z</time>
      </trkpt>
      <trkpt lat="47.66706" lon="6.14806">
        <ele>255.39999389648</ele>
        <time>2012-08-21T07:38:23.000Z</time>
      </trkpt>
      <trkpt lat="47.66708" lon="6.14808">
        <ele>255.80000305176</ele>
        <time>2012-08-21T07:38:24.000Z</time>
      </trkpt>
      <trkpt lat="47.6671" lon="6.1481">
        <ele>256.20001220703</ele>
        <time>2012-08-21T07:38:25.000Z</time>
      </trkpt>
      <trkpt lat="47.66713" lon="6.14812">
        <ele>256.60000610352</ele>
        <time>2012-08-21T07:38:26.000Z</time>
      </trkpt>
      <trkpt lat="47.6672" lon="6.14816">
        <ele>256.60000610352</ele>
        <time>2012-08-21T07:38:29.000Z</time>
      </trkpt>
      <trkpt lat="47.66721" lon="6.14815">
        <ele>256.60000610352</ele>
        <time>2012-08-21T07:38:30.000Z</time>
      </trkpt>
      <trkpt lat="47.66722" lon="6.14802">
        <ele>256.60000610352</ele>
        <time>2012-08-21T07:38:33.000Z</time>
      </trkpt>
      <trkpt lat="47.66725" lon="6.14784">
        <ele>256.60000610352</ele>
        <time>2012-08-21T07:38:38.000Z</time>
      </trkpt>
      <trkpt lat="47.6673" lon="6.14759">
        <ele>256.60000610352</ele>
        <time>2012-08-21T07:38:45.000Z</time>
      </trkpt>
      <trkpt lat="47.66735" lon="6.1473">
        <ele>256.60000610352</ele>
        <time>2012-08-21T07:38:53.000Z</time>
      </trkpt>
      <trkpt lat="47.66738" lon="6.14702">
        <ele>256.60000610352</ele>
        <time>2012-08-21T07:39:01.000Z</time>
      </trkpt>
      <trkpt lat="47.66737" lon="6.14682">
        <ele>256.60000610352</ele>
        <time>2012-08-21T07:39:07.000Z</time>
      </trkpt>
      <trkpt lat="47.66733" lon="6.14654">
        <ele>256.60000610352</ele>
        <time>2012-08-21T07:39:14.000Z</time>
      </trkpt>
      <trkpt lat="47.6673" lon="6.14615">
        <ele>256.60000610352</ele>
        <time>2012-08-21T07:39:22.000Z</time>
      </trkpt>
      <trkpt lat="47.66725" lon="6.14585">
        <ele>256.60000610352</ele>
        <time>2012-08-21T07:39:28.000Z</time>
      </trkpt>
      <trkpt lat="47.66721" lon="6.14562">
        <ele>256.60000610352</ele>
        <time>2012-08-21T07:39:32.000Z</time>
      </trkpt>
      <trkpt lat="47.66719" lon="6.1455">
        <ele>256.60000610352</ele>
        <time>2012-08-21T07:39:34.000Z</time>
      </trkpt>
      <trkpt lat="47.66716" lon="6.14529">
        <ele>256.60000610352</ele>
        <time>2012-08-21T07:39:38.000Z</time>
      </trkpt>
      <trkpt lat="47.66716" lon="6.14517">
        <ele>256.60000610352</ele>
        <time>2012-08-21T07:39:40.000Z</time>
      </trkpt>
      <trkpt lat="47.66714" lon="6.14503">
        <ele>256.60000610352</ele>
        <time>2012-08-21T07:39:42.000Z</time>
      </trkpt>
      <trkpt lat="47.66714" lon="6.14489">
        <ele>256.60000610352</ele>
        <time>2012-08-21T07:39:44.000Z</time>
      </trkpt>
      <trkpt lat="47.66713" lon="6.1446">
        <ele>256.60000610352</ele>
        <time>2012-08-21T07:39:48.000Z</time>
      </trkpt>
      <trkpt lat="47.66714" lon="6.14443">
        <ele>256.20001220703</ele>
        <time>2012-08-21T07:39:50.000Z</time>
      </trkpt>
      <trkpt lat="47.66715" lon="6.14434">
        <ele>255.80000305176</ele>
        <time>2012-08-21T07:39:51.000Z</time>
      </trkpt>
      <trkpt lat="47.66716" lon="6.14425">
        <ele>255.39999389648</ele>
        <time>2012-08-21T07:39:52.000Z</time>
      </trkpt>
      <trkpt lat="47.66718" lon="6.14416">
        <ele>255</ele>
        <time>2012-08-21T07:39:53.000Z</time>
      </trkpt>
      <trkpt lat="47.66719" lon="6.14407">
        <ele>254.60000610352</ele>
        <time>2012-08-21T07:39:54.000Z</time>
      </trkpt>
      <trkpt lat="47.66728" lon="6.14365">
        <ele>254.60000610352</ele>
        <time>2012-08-21T07:39:58.000Z</time>
      </trkpt>
      <trkpt lat="47.6673" lon="6.14353">
        <ele>254</ele>
        <time>2012-08-21T07:39:59.000Z</time>
      </trkpt>
      <trkpt lat="47.66732" lon="6.14339">
        <ele>253.60000610352</ele>
        <time>2012-08-21T07:40:00.000Z</time>
      </trkpt>
      <trkpt lat="47.66734" lon="6.14326">
        <ele>252.39999389648</ele>
        <time>2012-08-21T07:40:01.000Z</time>
      </trkpt>
      <trkpt lat="47.66736" lon="6.14313">
        <ele>252</ele>
        <time>2012-08-21T07:40:02.000Z</time>
      </trkpt>
      <trkpt lat="47.66738" lon="6.143">
        <ele>251.39999389648</ele>
        <time>2012-08-21T07:40:03.000Z</time>
      </trkpt>
      <trkpt lat="47.66741" lon="6.14285">
        <ele>250.80000305176</ele>
        <time>2012-08-21T07:40:04.000Z</time>
      </trkpt>
      <trkpt lat="47.66744" lon="6.14271">
        <ele>250</ele>
        <time>2012-08-21T07:40:05.000Z</time>
      </trkpt>
      <trkpt lat="47.66748" lon="6.14255">
        <ele>249.39999389648</ele>
        <time>2012-08-21T07:40:06.000Z</time>
      </trkpt>
      <trkpt lat="47.66751" lon="6.14239">
        <ele>248.60000610352</ele>
        <time>2012-08-21T07:40:07.000Z</time>
      </trkpt>
      <trkpt lat="47.66754" lon="6.14224">
        <ele>247.80000305176</ele>
        <time>2012-08-21T07:40:08.000Z</time>
      </trkpt>
      <trkpt lat="47.66757" lon="6.1421">
        <ele>246.80000305176</ele>
        <time>2012-08-21T07:40:09.000Z</time>
      </trkpt>
      <trkpt lat="47.6676" lon="6.14197">
        <ele>246</ele>
        <time>2012-08-21T07:40:10.000Z</time>
      </trkpt>
      <trkpt lat="47.66762" lon="6.14183">
        <ele>245.19999694824</ele>
        <time>2012-08-21T07:40:11.000Z</time>
      </trkpt>
      <trkpt lat="47.66764" lon="6.14169">
        <ele>244.39999389648</ele>
        <time>2012-08-21T07:40:12.000Z</time>
      </trkpt>
      <trkpt lat="47.66765" lon="6.14155">
        <ele>243.60000610352</ele>
        <time>2012-08-21T07:40:13.000Z</time>
      </trkpt>
      <trkpt lat="47.66766" lon="6.14142">
        <ele>242.80000305176</ele>
        <time>2012-08-21T07:40:14.000Z</time>
      </trkpt>
      <trkpt lat="47.66768" lon="6.14129">
        <ele>242</ele>
        <time>2012-08-21T07:40:15.000Z</time>
      </trkpt>
      <trkpt lat="47.66768" lon="6.14118">
        <ele>241.39999389648</ele>
        <time>2012-08-21T07:40:16.000Z</time>
      </trkpt>
      <trkpt lat="47.66767" lon="6.14109">
        <ele>240.60000610352</ele>
        <time>2012-08-21T07:40:17.000Z</time>
      </trkpt>
      <trkpt lat="47.66764" lon="6.141">
        <ele>239.80000305176</ele>
        <time>2012-08-21T07:40:18.000Z</time>
      </trkpt>
      <trkpt lat="47.66749" lon="6.14069">
        <ele>239.39999389648</ele>
        <time>2012-08-21T07:40:22.000Z</time>
      </trkpt>
      <trkpt lat="47.66746" lon="6.14061">
        <ele>239</ele>
        <time>2012-08-21T07:40:23.000Z</time>
      </trkpt>
      <trkpt lat="47.66743" lon="6.14054">
        <ele>238.60000610352</ele>
        <time>2012-08-21T07:40:24.000Z</time>
      </trkpt>
      <trkpt lat="47.6674" lon="6.14047">
        <ele>238.19999694824</ele>
        <time>2012-08-21T07:40:25.000Z</time>
      </trkpt>
      <trkpt lat="47.66737" lon="6.1404">
        <ele>237.80000305176</ele>
        <time>2012-08-21T07:40:26.000Z</time>
      </trkpt>
      <trkpt lat="47.66723" lon="6.14007">
        <ele>237.80000305176</ele>
        <time>2012-08-21T07:40:31.000Z</time>
      </trkpt>
      <trkpt lat="47.66701" lon="6.13957">
        <ele>237.80000305176</ele>
        <time>2012-08-21T07:40:39.000Z</time>
      </trkpt>
      <trkpt lat="47.66695" lon="6.1394">
        <ele>237.80000305176</ele>
        <time>2012-08-21T07:40:42.000Z</time>
      </trkpt>
      <trkpt lat="47.66692" lon="6.13927">
        <ele>237.39999389648</ele>
        <time>2012-08-21T07:40:44.000Z</time>
      </trkpt>
      <trkpt lat="47.66691" lon="6.13919">
        <ele>237</ele>
        <time>2012-08-21T07:40:45.000Z</time>
      </trkpt>
      <trkpt lat="47.66691" lon="6.13912">
        <ele>236.60000610352</ele>
        <time>2012-08-21T07:40:46.000Z</time>
      </trkpt>
      <trkpt lat="47.6669" lon="6.13905">
        <ele>236.19999694824</ele>
        <time>2012-08-21T07:40:47.000Z</time>
      </trkpt>
      <trkpt lat="47.66689" lon="6.13898">
        <ele>235.80000305176</ele>
        <time>2012-08-21T07:40:48.000Z</time>
      </trkpt>
      <trkpt lat="47.66684" lon="6.13861">
        <ele>235.80000305176</ele>
        <time>2012-08-21T07:40:53.000Z</time>
      </trkpt>
      <trkpt lat="47.66676" lon="6.13798">
        <ele>235.80000305176</ele>
        <time>2012-08-21T07:41:02.000Z</time>
      </trkpt>
      <trkpt lat="47.66671" lon="6.13765">
        <ele>235.80000305176</ele>
        <time>2012-08-21T07:41:07.000Z</time>
      </trkpt>
      <trkpt lat="47.66668" lon="6.13754">
        <ele>235.80000305176</ele>
        <time>2012-08-21T07:41:09.000Z</time>
      </trkpt>
      <trkpt lat="47.66666" lon="6.13749">
        <ele>235.80000305176</ele>
        <time>2012-08-21T07:41:10.000Z</time>
      </trkpt>
      <trkpt lat="47.6666" lon="6.1374">
        <ele>235.80000305176</ele>
        <time>2012-08-21T07:41:12.000Z</time>
      </trkpt>
      <trkpt lat="47.66648" lon="6.13734">
        <ele>235.39999389648</ele>
        <time>2012-08-21T07:41:15.000Z</time>
      </trkpt>
      <trkpt lat="47.66644" lon="6.13732">
        <ele>234.80000305176</ele>
        <time>2012-08-21T07:41:16.000Z</time>
      </trkpt>
      <trkpt lat="47.6664" lon="6.13731">
        <ele>234.39999389648</ele>
        <time>2012-08-21T07:41:17.000Z</time>
      </trkpt>
      <trkpt lat="47.66636" lon="6.13729">
        <ele>234</ele>
        <time>2012-08-21T07:41:18.000Z</time>
      </trkpt>
      <trkpt lat="47.66632" lon="6.13728">
        <ele>233.60000610352</ele>
        <time>2012-08-21T07:41:19.000Z</time>
      </trkpt>
      <trkpt lat="47.66605" lon="6.13716">
        <ele>233.60000610352</ele>
        <time>2012-08-21T07:41:26.000Z</time>
      </trkpt>
      <trkpt lat="47.66572" lon="6.137">
        <ele>233.60000610352</ele>
        <time>2012-08-21T07:41:35.000Z</time>
      </trkpt>
      <trkpt lat="47.66569" lon="6.13692">
        <ele>233.60000610352</ele>
        <time>2012-08-21T07:41:37.000Z</time>
      </trkpt>
      <trkpt lat="47.66569" lon="6.13682">
        <ele>233.60000610352</ele>
        <time>2012-08-21T07:41:39.000Z</time>
      </trkpt>
      <trkpt lat="47.66573" lon="6.13641">
        <ele>233.60000610352</ele>
        <time>2012-08-21T07:41:46.000Z</time>
      </trkpt>
      <trkpt lat="47.66578" lon="6.13603">
        <ele>233.60000610352</ele>
        <time>2012-08-21T07:41:53.000Z</time>
      </trkpt>
      <trkpt lat="47.66583" lon="6.13555">
        <ele>233.60000610352</ele>
        <time>2012-08-21T07:42:02.000Z</time>
      </trkpt>
      <trkpt lat="47.66587" lon="6.13508">
        <ele>233.60000610352</ele>
        <time>2012-08-21T07:42:11.000Z</time>
      </trkpt>
      <trkpt lat="47.66591" lon="6.13458">
        <ele>233.60000610352</ele>
        <time>2012-08-21T07:42:20.000Z</time>
      </trkpt>
      <trkpt lat="47.66595" lon="6.13415">
        <ele>233.60000610352</ele>
        <time>2012-08-21T07:42:28.000Z</time>
      </trkpt>
      <trkpt lat="47.666" lon="6.1338">
        <ele>233.60000610352</ele>
        <time>2012-08-21T07:42:35.000Z</time>
      </trkpt>
      <trkpt lat="47.66602" lon="6.13339">
        <ele>233.60000610352</ele>
        <time>2012-08-21T07:42:43.000Z</time>
      </trkpt>
      <trkpt lat="47.66605" lon="6.13301">
        <ele>233.60000610352</ele>
        <time>2012-08-21T07:42:51.000Z</time>
      </trkpt>
      <trkpt lat="47.66609" lon="6.13266">
        <ele>233.60000610352</ele>
        <time>2012-08-21T07:42:59.000Z</time>
      </trkpt>
      <trkpt lat="47.66613" lon="6.13225">
        <ele>233.60000610352</ele>
        <time>2012-08-21T07:43:08.000Z</time>
      </trkpt>
      <trkpt lat="47.66617" lon="6.13179">
        <ele>233.60000610352</ele>
        <time>2012-08-21T07:43:18.000Z</time>
      </trkpt>
      <trkpt lat="47.66621" lon="6.13134">
        <ele>233.60000610352</ele>
        <time>2012-08-21T07:43:28.000Z</time>
      </trkpt>
      <trkpt lat="47.66625" lon="6.13096">
        <ele>233.60000610352</ele>
        <time>2012-08-21T07:43:36.000Z</time>
      </trkpt>
      <trkpt lat="47.66628" lon="6.13065">
        <ele>233.60000610352</ele>
        <time>2012-08-21T07:43:44.000Z</time>
      </trkpt>
      <trkpt lat="47.66627" lon="6.13054">
        <ele>233.60000610352</ele>
        <time>2012-08-21T07:43:49.000Z</time>
      </trkpt>
      <trkpt lat="47.66623" lon="6.13046">
        <ele>233.19999694824</ele>
        <time>2012-08-21T07:43:52.000Z</time>
      </trkpt>
      <trkpt lat="47.6662" lon="6.13042">
        <ele>232.80000305176</ele>
        <time>2012-08-21T07:43:53.000Z</time>
      </trkpt>
      <trkpt lat="47.66618" lon="6.13037">
        <ele>232.19999694824</ele>
        <time>2012-08-21T07:43:54.000Z</time>
      </trkpt>
      <trkpt lat="47.66616" lon="6.13032">
        <ele>231.80000305176</ele>
        <time>2012-08-21T07:43:55.000Z</time>
      </trkpt>
      <trkpt lat="47.66615" lon="6.13027">
        <ele>231.19999694824</ele>
        <time>2012-08-21T07:43:56.000Z</time>
      </trkpt>
      <trkpt lat="47.66614" lon="6.13022">
        <ele>231.19999694824</ele>
        <time>2012-08-21T07:43:57.000Z</time>
      </trkpt>
      <trkpt lat="47.66612" lon="6.12988">
        <ele>230.80000305176</ele>
        <time>2012-08-21T07:44:03.000Z</time>
      </trkpt>
      <trkpt lat="47.66613" lon="6.12982">
        <ele>230.39999389648</ele>
        <time>2012-08-21T07:44:04.000Z</time>
      </trkpt>
      <trkpt lat="47.66613" lon="6.12976">
        <ele>230</ele>
        <time>2012-08-21T07:44:05.000Z</time>
      </trkpt>
      <trkpt lat="47.66614" lon="6.1297">
        <ele>229.60000610352</ele>
        <time>2012-08-21T07:44:06.000Z</time>
      </trkpt>
      <trkpt lat="47.66614" lon="6.12965">
        <ele>229.19999694824</ele>
        <time>2012-08-21T07:44:07.000Z</time>
      </trkpt>
      <trkpt lat="47.66614" lon="6.12949">
        <ele>229.19999694824</ele>
        <time>2012-08-21T07:44:10.000Z</time>
      </trkpt>
      <trkpt lat="47.66612" lon="6.12921">
        <ele>229.19999694824</ele>
        <time>2012-08-21T07:44:16.000Z</time>
      </trkpt>
      <trkpt lat="47.66617" lon="6.12894">
        <ele>229.19999694824</ele>
        <time>2012-08-21T07:44:23.000Z</time>
      </trkpt>
      <trkpt lat="47.6662" lon="6.12887">
        <ele>229.60000610352</ele>
        <time>2012-08-21T07:44:25.000Z</time>
      </trkpt>
      <trkpt lat="47.66621" lon="6.12884">
        <ele>230</ele>
        <time>2012-08-21T07:44:26.000Z</time>
      </trkpt>
      <trkpt lat="47.66623" lon="6.1288">
        <ele>230.60000610352</ele>
        <time>2012-08-21T07:44:27.000Z</time>
      </trkpt>
      <trkpt lat="47.66624" lon="6.12877">
        <ele>231</ele>
        <time>2012-08-21T07:44:28.000Z</time>
      </trkpt>
      <trkpt lat="47.66626" lon="6.12874">
        <ele>231.39999389648</ele>
        <time>2012-08-21T07:44:29.000Z</time>
      </trkpt>
      <trkpt lat="47.66627" lon="6.12871">
        <ele>231.39999389648</ele>
        <time>2012-08-21T07:44:30.000Z</time>
      </trkpt>
      <trkpt lat="47.66632" lon="6.12856">
        <ele>231.80000305176</ele>
        <time>2012-08-21T07:44:35.000Z</time>
      </trkpt>
      <trkpt lat="47.66633" lon="6.12853">
        <ele>232.19999694824</ele>
        <time>2012-08-21T07:44:36.000Z</time>
      </trkpt>
      <trkpt lat="47.66634" lon="6.12849">
        <ele>232.60000610352</ele>
        <time>2012-08-21T07:44:37.000Z</time>
      </trkpt>
      <trkpt lat="47.66635" lon="6.12846">
        <ele>233</ele>
        <time>2012-08-21T07:44:38.000Z</time>
      </trkpt>
      <trkpt lat="47.66636" lon="6.12843">
        <ele>233.39999389648</ele>
        <time>2012-08-21T07:44:39.000Z</time>
      </trkpt>
      <trkpt lat="47.6664" lon="6.1283">
        <ele>233.39999389648</ele>
        <time>2012-08-21T07:44:43.000Z</time>
      </trkpt>
      <trkpt lat="47.66649" lon="6.12815">
        <ele>233.39999389648</ele>
        <time>2012-08-21T07:44:48.000Z</time>
      </trkpt>
      <trkpt lat="47.66671" lon="6.12794">
        <ele>233.39999389648</ele>
        <time>2012-08-21T07:44:55.000Z</time>
      </trkpt>
      <trkpt lat="47.66691" lon="6.12768">
        <ele>233.39999389648</ele>
        <time>2012-08-21T07:45:02.000Z</time>
      </trkpt>
      <trkpt lat="47.66718" lon="6.12738">
        <ele>233.39999389648</ele>
        <time>2012-08-21T07:45:11.000Z</time>
      </trkpt>
      <trkpt lat="47.66747" lon="6.1271">
        <ele>233.39999389648</ele>
        <time>2012-08-21T07:45:20.000Z</time>
      </trkpt>
      <trkpt lat="47.66784" lon="6.12675">
        <ele>233.39999389648</ele>
        <time>2012-08-21T07:45:30.000Z</time>
      </trkpt>
      <trkpt lat="47.6682" lon="6.12648">
        <ele>233.39999389648</ele>
        <time>2012-08-21T07:45:39.000Z</time>
      </trkpt>
      <trkpt lat="47.66854" lon="6.12624">
        <ele>233.39999389648</ele>
        <time>2012-08-21T07:45:48.000Z</time>
      </trkpt>
      <trkpt lat="47.66887" lon="6.12607">
        <ele>233.39999389648</ele>
        <time>2012-08-21T07:45:57.000Z</time>
      </trkpt>
      <trkpt lat="47.6692" lon="6.126">
        <ele>233.39999389648</ele>
        <time>2012-08-21T07:46:05.000Z</time>
      </trkpt>
      <trkpt lat="47.66956" lon="6.12603">
        <ele>233.39999389648</ele>
        <time>2012-08-21T07:46:14.000Z</time>
      </trkpt>
      <trkpt lat="47.66987" lon="6.12607">
        <ele>233.39999389648</ele>
        <time>2012-08-21T07:46:22.000Z</time>
      </trkpt>
      <trkpt lat="47.67017" lon="6.12604">
        <ele>233.39999389648</ele>
        <time>2012-08-21T07:46:30.000Z</time>
      </trkpt>
      <trkpt lat="47.6702" lon="6.12603">
        <ele>233.80000305176</ele>
        <time>2012-08-21T07:46:31.000Z</time>
      </trkpt>
      <trkpt lat="47.67024" lon="6.12601">
        <ele>234.19999694824</ele>
        <time>2012-08-21T07:46:32.000Z</time>
      </trkpt>
      <trkpt lat="47.67028" lon="6.126">
        <ele>234.60000610352</ele>
        <time>2012-08-21T07:46:33.000Z</time>
      </trkpt>
      <trkpt lat="47.67031" lon="6.12598">
        <ele>235</ele>
        <time>2012-08-21T07:46:34.000Z</time>
      </trkpt>
      <trkpt lat="47.67035" lon="6.12596">
        <ele>235.39999389648</ele>
        <time>2012-08-21T07:46:35.000Z</time>
      </trkpt>
      <trkpt lat="47.67045" lon="6.1259">
        <ele>235.39999389648</ele>
        <time>2012-08-21T07:46:38.000Z</time>
      </trkpt>
      <trkpt lat="47.67073" lon="6.12573">
        <ele>235.39999389648</ele>
        <time>2012-08-21T07:46:46.000Z</time>
      </trkpt>
      <trkpt lat="47.67097" lon="6.12559">
        <ele>235.39999389648</ele>
        <time>2012-08-21T07:46:53.000Z</time>
      </trkpt>
      <trkpt lat="47.67107" lon="6.12553">
        <ele>236</ele>
        <time>2012-08-21T07:46:56.000Z</time>
      </trkpt>
      <trkpt lat="47.67111" lon="6.12551">
        <ele>236.39999389648</ele>
        <time>2012-08-21T07:46:57.000Z</time>
      </trkpt>
      <trkpt lat="47.67114" lon="6.12549">
        <ele>236.80000305176</ele>
        <time>2012-08-21T07:46:58.000Z</time>
      </trkpt>
      <trkpt lat="47.67117" lon="6.12547">
        <ele>237.19999694824</ele>
        <time>2012-08-21T07:46:59.000Z</time>
      </trkpt>
      <trkpt lat="47.6712" lon="6.12545">
        <ele>237.60000610352</ele>
        <time>2012-08-21T07:47:00.000Z</time>
      </trkpt>
      <trkpt lat="47.67126" lon="6.12542">
        <ele>237.60000610352</ele>
        <time>2012-08-21T07:47:02.000Z</time>
      </trkpt>
      <trkpt lat="47.67152" lon="6.12526">
        <ele>237.60000610352</ele>
        <time>2012-08-21T07:47:11.000Z</time>
      </trkpt>
      <trkpt lat="47.67154" lon="6.12525">
        <ele>238</ele>
        <time>2012-08-21T07:47:12.000Z</time>
      </trkpt>
      <trkpt lat="47.67157" lon="6.12523">
        <ele>238.39999389648</ele>
        <time>2012-08-21T07:47:13.000Z</time>
      </trkpt>
      <trkpt lat="47.67159" lon="6.12521">
        <ele>238.80000305176</ele>
        <time>2012-08-21T07:47:14.000Z</time>
      </trkpt>
      <trkpt lat="47.67162" lon="6.1252">
        <ele>239.19999694824</ele>
        <time>2012-08-21T07:47:15.000Z</time>
      </trkpt>
      <trkpt lat="47.67164" lon="6.12518">
        <ele>239.60000610352</ele>
        <time>2012-08-21T07:47:16.000Z</time>
      </trkpt>
      <trkpt lat="47.67169" lon="6.12513">
        <ele>239.60000610352</ele>
        <time>2012-08-21T07:47:18.000Z</time>
      </trkpt>
      <trkpt lat="47.67191" lon="6.12498">
        <ele>239.60000610352</ele>
        <time>2012-08-21T07:47:24.000Z</time>
      </trkpt>
      <trkpt lat="47.67209" lon="6.12485">
        <ele>240</ele>
        <time>2012-08-21T07:47:30.000Z</time>
      </trkpt>
      <trkpt lat="47.67212" lon="6.12482">
        <ele>240.39999389648</ele>
        <time>2012-08-21T07:47:31.000Z</time>
      </trkpt>
      <trkpt lat="47.67215" lon="6.1248">
        <ele>240.80000305176</ele>
        <time>2012-08-21T07:47:32.000Z</time>
      </trkpt>
      <trkpt lat="47.67217" lon="6.12478">
        <ele>241.39999389648</ele>
        <time>2012-08-21T07:47:33.000Z</time>
      </trkpt>
      <trkpt lat="47.6722" lon="6.12475">
        <ele>241.80000305176</ele>
        <time>2012-08-21T07:47:34.000Z</time>
      </trkpt>
      <trkpt lat="47.67235" lon="6.12459">
        <ele>241.80000305176</ele>
        <time>2012-08-21T07:47:40.000Z</time>
      </trkpt>
      <trkpt lat="47.67253" lon="6.12437">
        <ele>241.80000305176</ele>
        <time>2012-08-21T07:47:47.000Z</time>
      </trkpt>
      <trkpt lat="47.67275" lon="6.12414">
        <ele>241.80000305176</ele>
        <time>2012-08-21T07:47:55.000Z</time>
      </trkpt>
      <trkpt lat="47.6729" lon="6.12402">
        <ele>241.80000305176</ele>
        <time>2012-08-21T07:48:00.000Z</time>
      </trkpt>
      <trkpt lat="47.67309" lon="6.12389">
        <ele>241.80000305176</ele>
        <time>2012-08-21T07:48:07.000Z</time>
      </trkpt>
      <trkpt lat="47.67326" lon="6.12383">
        <ele>241.80000305176</ele>
        <time>2012-08-21T07:48:13.000Z</time>
      </trkpt>
      <trkpt lat="47.67344" lon="6.12388">
        <ele>241.80000305176</ele>
        <time>2012-08-21T07:48:19.000Z</time>
      </trkpt>
      <trkpt lat="47.67361" lon="6.12394">
        <ele>241.80000305176</ele>
        <time>2012-08-21T07:48:25.000Z</time>
      </trkpt>
      <trkpt lat="47.67384" lon="6.12406">
        <ele>241.80000305176</ele>
        <time>2012-08-21T07:48:33.000Z</time>
      </trkpt>
      <trkpt lat="47.674" lon="6.12402">
        <ele>241.80000305176</ele>
        <time>2012-08-21T07:48:39.000Z</time>
      </trkpt>
      <trkpt lat="47.6741" lon="6.12395">
        <ele>242.19999694824</ele>
        <time>2012-08-21T07:48:43.000Z</time>
      </trkpt>
      <trkpt lat="47.67414" lon="6.12393">
        <ele>242.60000610352</ele>
        <time>2012-08-21T07:48:44.000Z</time>
      </trkpt>
      <trkpt lat="47.67417" lon="6.12391">
        <ele>243</ele>
        <time>2012-08-21T07:48:45.000Z</time>
      </trkpt>
      <trkpt lat="47.6742" lon="6.12388">
        <ele>243.39999389648</ele>
        <time>2012-08-21T07:48:46.000Z</time>
      </trkpt>
      <trkpt lat="47.67423" lon="6.12386">
        <ele>243.80000305176</ele>
        <time>2012-08-21T07:48:47.000Z</time>
      </trkpt>
      <trkpt lat="47.67431" lon="6.12379">
        <ele>243.80000305176</ele>
        <time>2012-08-21T07:48:50.000Z</time>
      </trkpt>
      <trkpt lat="47.67444" lon="6.12365">
        <ele>243.80000305176</ele>
        <time>2012-08-21T07:48:56.000Z</time>
      </trkpt>
      <trkpt lat="47.6745" lon="6.12357">
        <ele>244.19999694824</ele>
        <time>2012-08-21T07:48:59.000Z</time>
      </trkpt>
      <trkpt lat="47.67451" lon="6.12355">
        <ele>244.60000610352</ele>
        <time>2012-08-21T07:49:00.000Z</time>
      </trkpt>
      <trkpt lat="47.67453" lon="6.12353">
        <ele>245</ele>
        <time>2012-08-21T07:49:01.000Z</time>
      </trkpt>
      <trkpt lat="47.67455" lon="6.12351">
        <ele>245.60000610352</ele>
        <time>2012-08-21T07:49:02.000Z</time>
      </trkpt>
      <trkpt lat="47.67456" lon="6.12348">
        <ele>246</ele>
        <time>2012-08-21T07:49:03.000Z</time>
      </trkpt>
      <trkpt lat="47.67459" lon="6.12343">
        <ele>246</ele>
        <time>2012-08-21T07:49:05.000Z</time>
      </trkpt>
      <trkpt lat="47.67471" lon="6.1232">
        <ele>246</ele>
        <time>2012-08-21T07:49:13.000Z</time>
      </trkpt>
      <trkpt lat="47.67483" lon="6.123">
        <ele>246</ele>
        <time>2012-08-21T07:49:18.000Z</time>
      </trkpt>
      <trkpt lat="47.67506" lon="6.12271">
        <ele>246</ele>
        <time>2012-08-21T07:49:26.000Z</time>
      </trkpt>
      <trkpt lat="47.67527" lon="6.12251">
        <ele>246</ele>
        <time>2012-08-21T07:49:33.000Z</time>
      </trkpt>
      <trkpt lat="47.6755" lon="6.12227">
        <ele>246</ele>
        <time>2012-08-21T07:49:42.000Z</time>
      </trkpt>
      <trkpt lat="47.67561" lon="6.12217">
        <ele>246.39999389648</ele>
        <time>2012-08-21T07:49:47.000Z</time>
      </trkpt>
      <trkpt lat="47.67564" lon="6.12214">
        <ele>246.80000305176</ele>
        <time>2012-08-21T07:49:48.000Z</time>
      </trkpt>
      <trkpt lat="47.67567" lon="6.12212">
        <ele>247.19999694824</ele>
        <time>2012-08-21T07:49:49.000Z</time>
      </trkpt>
      <trkpt lat="47.67569" lon="6.12209">
        <ele>247.60000610352</ele>
        <time>2012-08-21T07:49:50.000Z</time>
      </trkpt>
      <trkpt lat="47.67572" lon="6.12206">
        <ele>248</ele>
        <time>2012-08-21T07:49:51.000Z</time>
      </trkpt>
      <trkpt lat="47.67586" lon="6.12192">
        <ele>248</ele>
        <time>2012-08-21T07:49:57.000Z</time>
      </trkpt>
      <trkpt lat="47.67607" lon="6.12173">
        <ele>248</ele>
        <time>2012-08-21T07:50:05.000Z</time>
      </trkpt>
      <trkpt lat="47.67628" lon="6.12153">
        <ele>248</ele>
        <time>2012-08-21T07:50:13.000Z</time>
      </trkpt>
      <trkpt lat="47.67651" lon="6.12131">
        <ele>248</ele>
        <time>2012-08-21T07:50:21.000Z</time>
      </trkpt>
      <trkpt lat="47.67674" lon="6.12113">
        <ele>248</ele>
        <time>2012-08-21T07:50:29.000Z</time>
      </trkpt>
      <trkpt lat="47.67695" lon="6.12092">
        <ele>248</ele>
        <time>2012-08-21T07:50:37.000Z</time>
      </trkpt>
      <trkpt lat="47.67708" lon="6.1208">
        <ele>248.39999389648</ele>
        <time>2012-08-21T07:50:42.000Z</time>
      </trkpt>
      <trkpt lat="47.67711" lon="6.12077">
        <ele>248.80000305176</ele>
        <time>2012-08-21T07:50:43.000Z</time>
      </trkpt>
      <trkpt lat="47.67713" lon="6.12075">
        <ele>249.60000610352</ele>
        <time>2012-08-21T07:50:44.000Z</time>
      </trkpt>
      <trkpt lat="47.67716" lon="6.12072">
        <ele>250</ele>
        <time>2012-08-21T07:50:45.000Z</time>
      </trkpt>
      <trkpt lat="47.67729" lon="6.12061">
        <ele>250</ele>
        <time>2012-08-21T07:50:50.000Z</time>
      </trkpt>
      <trkpt lat="47.67739" lon="6.12049">
        <ele>250</ele>
        <time>2012-08-21T07:50:55.000Z</time>
      </trkpt>
      <trkpt lat="47.67741" lon="6.12047">
        <ele>250.60000610352</ele>
        <time>2012-08-21T07:50:56.000Z</time>
      </trkpt>
      <trkpt lat="47.67743" lon="6.12045">
        <ele>251</ele>
        <time>2012-08-21T07:50:57.000Z</time>
      </trkpt>
      <trkpt lat="47.67745" lon="6.12043">
        <ele>251.39999389648</ele>
        <time>2012-08-21T07:50:58.000Z</time>
      </trkpt>
      <trkpt lat="47.67748" lon="6.12041">
        <ele>251.80000305176</ele>
        <time>2012-08-21T07:50:59.000Z</time>
      </trkpt>
      <trkpt lat="47.6775" lon="6.12038">
        <ele>252.19999694824</ele>
        <time>2012-08-21T07:51:00.000Z</time>
      </trkpt>
      <trkpt lat="47.67755" lon="6.12034">
        <ele>252.19999694824</ele>
        <time>2012-08-21T07:51:02.000Z</time>
      </trkpt>
      <trkpt lat="47.67767" lon="6.12021">
        <ele>252.19999694824</ele>
        <time>2012-08-21T07:51:07.000Z</time>
      </trkpt>
      <trkpt lat="47.67771" lon="6.12018">
        <ele>252.60000610352</ele>
        <time>2012-08-21T07:51:09.000Z</time>
      </trkpt>
      <trkpt lat="47.67774" lon="6.12016">
        <ele>253</ele>
        <time>2012-08-21T07:51:10.000Z</time>
      </trkpt>
      <trkpt lat="47.67776" lon="6.12014">
        <ele>253.39999389648</ele>
        <time>2012-08-21T07:51:11.000Z</time>
      </trkpt>
      <trkpt lat="47.67779" lon="6.12011">
        <ele>253.80000305176</ele>
        <time>2012-08-21T07:51:12.000Z</time>
      </trkpt>
      <trkpt lat="47.67781" lon="6.12009">
        <ele>254.19999694824</ele>
        <time>2012-08-21T07:51:13.000Z</time>
      </trkpt>
      <trkpt lat="47.67791" lon="6.11998">
        <ele>254.19999694824</ele>
        <time>2012-08-21T07:51:18.000Z</time>
      </trkpt>
      <trkpt lat="47.67792" lon="6.11996">
        <ele>254.60000610352</ele>
        <time>2012-08-21T07:51:19.000Z</time>
      </trkpt>
      <trkpt lat="47.67794" lon="6.11994">
        <ele>255.19999694824</ele>
        <time>2012-08-21T07:51:20.000Z</time>
      </trkpt>
      <trkpt lat="47.67796" lon="6.11992">
        <ele>255.60000610352</ele>
        <time>2012-08-21T07:51:21.000Z</time>
      </trkpt>
      <trkpt lat="47.67798" lon="6.1199">
        <ele>256</ele>
        <time>2012-08-21T07:51:22.000Z</time>
      </trkpt>
      <trkpt lat="47.678" lon="6.11988">
        <ele>256.39999389648</ele>
        <time>2012-08-21T07:51:23.000Z</time>
      </trkpt>
      <trkpt lat="47.67802" lon="6.11986">
        <ele>256.39999389648</ele>
        <time>2012-08-21T07:51:24.000Z</time>
      </trkpt>
      <trkpt lat="47.6782" lon="6.1197">
        <ele>256.39999389648</ele>
        <time>2012-08-21T07:51:32.000Z</time>
      </trkpt>
      <trkpt lat="47.67838" lon="6.11956">
        <ele>256.39999389648</ele>
        <time>2012-08-21T07:51:38.000Z</time>
      </trkpt>
      <trkpt lat="47.67861" lon="6.11935">
        <ele>256.39999389648</ele>
        <time>2012-08-21T07:51:45.000Z</time>
      </trkpt>
      <trkpt lat="47.67865" lon="6.11933">
        <ele>256.39999389648</ele>
        <time>2012-08-21T07:51:46.000Z</time>
      </trkpt>
      <trkpt lat="47.67881" lon="6.11919">
        <ele>256.39999389648</ele>
        <time>2012-08-21T07:51:51.000Z</time>
      </trkpt>
      <trkpt lat="47.67903" lon="6.11902">
        <ele>256.39999389648</ele>
        <time>2012-08-21T07:51:58.000Z</time>
      </trkpt>
      <trkpt lat="47.6792" lon="6.11888">
        <ele>256.39999389648</ele>
        <time>2012-08-21T07:52:04.000Z</time>
      </trkpt>
      <trkpt lat="47.67939" lon="6.11873">
        <ele>256.39999389648</ele>
        <time>2012-08-21T07:52:11.000Z</time>
      </trkpt>
      <trkpt lat="47.67946" lon="6.11868">
        <ele>256.79998779297</ele>
        <time>2012-08-21T07:52:14.000Z</time>
      </trkpt>
      <trkpt lat="47.67948" lon="6.11866">
        <ele>257.20001220703</ele>
        <time>2012-08-21T07:52:15.000Z</time>
      </trkpt>
      <trkpt lat="47.6795" lon="6.11864">
        <ele>257.60000610352</ele>
        <time>2012-08-21T07:52:16.000Z</time>
      </trkpt>
      <trkpt lat="47.67951" lon="6.11863">
        <ele>258</ele>
        <time>2012-08-21T07:52:17.000Z</time>
      </trkpt>
      <trkpt lat="47.67953" lon="6.11862">
        <ele>258.39999389648</ele>
        <time>2012-08-21T07:52:18.000Z</time>
      </trkpt>
      <trkpt lat="47.67959" lon="6.11856">
        <ele>258.39999389648</ele>
        <time>2012-08-21T07:52:21.000Z</time>
      </trkpt>
      <trkpt lat="47.67962" lon="6.11853">
        <ele>258.39999389648</ele>
        <time>2012-08-21T07:52:23.000Z</time>
      </trkpt>
      <trkpt lat="47.67971" lon="6.11842">
        <ele>258.39999389648</ele>
        <time>2012-08-21T07:52:28.000Z</time>
      </trkpt>
      <trkpt lat="47.67978" lon="6.11837">
        <ele>258.79998779297</ele>
        <time>2012-08-21T07:52:31.000Z</time>
      </trkpt>
      <trkpt lat="47.6798" lon="6.11835">
        <ele>259.20001220703</ele>
        <time>2012-08-21T07:52:32.000Z</time>
      </trkpt>
      <trkpt lat="47.67983" lon="6.11833">
        <ele>259.60000610352</ele>
        <time>2012-08-21T07:52:33.000Z</time>
      </trkpt>
      <trkpt lat="47.67986" lon="6.11831">
        <ele>260</ele>
        <time>2012-08-21T07:52:34.000Z</time>
      </trkpt>
      <trkpt lat="47.67988" lon="6.11829">
        <ele>260.39999389648</ele>
        <time>2012-08-21T07:52:35.000Z</time>
      </trkpt>
      <trkpt lat="47.68002" lon="6.11814">
        <ele>260.39999389648</ele>
        <time>2012-08-21T07:52:40.000Z</time>
      </trkpt>
      <trkpt lat="47.68021" lon="6.11798">
        <ele>260.39999389648</ele>
        <time>2012-08-21T07:52:47.000Z</time>
      </trkpt>
      <trkpt lat="47.68037" lon="6.11792">
        <ele>260.39999389648</ele>
        <time>2012-08-21T07:52:53.000Z</time>
      </trkpt>
      <trkpt lat="47.68044" lon="6.11802">
        <ele>260.39999389648</ele>
        <time>2012-08-21T07:52:57.000Z</time>
      </trkpt>
      <trkpt lat="47.68055" lon="6.11827">
        <ele>260.39999389648</ele>
        <time>2012-08-21T07:53:04.000Z</time>
      </trkpt>
      <trkpt lat="47.68066" lon="6.11856">
        <ele>260.39999389648</ele>
        <time>2012-08-21T07:53:11.000Z</time>
      </trkpt>
      <trkpt lat="47.68074" lon="6.11877">
        <ele>260.39999389648</ele>
        <time>2012-08-21T07:53:16.000Z</time>
      </trkpt>
      <trkpt lat="47.68082" lon="6.11899">
        <ele>260.39999389648</ele>
        <time>2012-08-21T07:53:21.000Z</time>
      </trkpt>
      <trkpt lat="47.68098" lon="6.1193">
        <ele>260.39999389648</ele>
        <time>2012-08-21T07:53:28.000Z</time>
      </trkpt>
      <trkpt lat="47.68113" lon="6.11964">
        <ele>260.39999389648</ele>
        <time>2012-08-21T07:53:35.000Z</time>
      </trkpt>
      <trkpt lat="47.68125" lon="6.1199">
        <ele>260.39999389648</ele>
        <time>2012-08-21T07:53:41.000Z</time>
      </trkpt>
      <trkpt lat="47.68133" lon="6.12012">
        <ele>260.39999389648</ele>
        <time>2012-08-21T07:53:46.000Z</time>
      </trkpt>
      <trkpt lat="47.68146" lon="6.12044">
        <ele>260.39999389648</ele>
        <time>2012-08-21T07:53:53.000Z</time>
      </trkpt>
      <trkpt lat="47.68152" lon="6.12057">
        <ele>260</ele>
        <time>2012-08-21T07:53:56.000Z</time>
      </trkpt>
      <trkpt lat="47.68154" lon="6.12062">
        <ele>259.60000610352</ele>
        <time>2012-08-21T07:53:57.000Z</time>
      </trkpt>
      <trkpt lat="47.68156" lon="6.12067">
        <ele>259.20001220703</ele>
        <time>2012-08-21T07:53:58.000Z</time>
      </trkpt>
      <trkpt lat="47.68158" lon="6.12072">
        <ele>258.79998779297</ele>
        <time>2012-08-21T07:53:59.000Z</time>
      </trkpt>
      <trkpt lat="47.6816" lon="6.12077">
        <ele>258.39999389648</ele>
        <time>2012-08-21T07:54:00.000Z</time>
      </trkpt>
      <trkpt lat="47.68171" lon="6.12104">
        <ele>258.39999389648</ele>
        <time>2012-08-21T07:54:06.000Z</time>
      </trkpt>
      <trkpt lat="47.68184" lon="6.12135">
        <ele>258.39999389648</ele>
        <time>2012-08-21T07:54:13.000Z</time>
      </trkpt>
      <trkpt lat="47.68194" lon="6.12166">
        <ele>258.39999389648</ele>
        <time>2012-08-21T07:54:20.000Z</time>
      </trkpt>
      <trkpt lat="47.68203" lon="6.12194">
        <ele>258.39999389648</ele>
        <time>2012-08-21T07:54:26.000Z</time>
      </trkpt>
      <trkpt lat="47.68215" lon="6.12225">
        <ele>258.39999389648</ele>
        <time>2012-08-21T07:54:33.000Z</time>
      </trkpt>
      <trkpt lat="47.68223" lon="6.12246">
        <ele>258.39999389648</ele>
        <time>2012-08-21T07:54:38.000Z</time>
      </trkpt>
      <trkpt lat="47.68238" lon="6.12279">
        <ele>258.39999389648</ele>
        <time>2012-08-21T07:54:46.000Z</time>
      </trkpt>
      <trkpt lat="47.68254" lon="6.1231">
        <ele>258.39999389648</ele>
        <time>2012-08-21T07:54:54.000Z</time>
      </trkpt>
      <trkpt lat="47.68259" lon="6.1233">
        <ele>258.39999389648</ele>
        <time>2012-08-21T07:54:59.000Z</time>
      </trkpt>
      <trkpt lat="47.68268" lon="6.12349">
        <ele>258.79998779297</ele>
        <time>2012-08-21T07:55:04.000Z</time>
      </trkpt>
      <trkpt lat="47.68269" lon="6.12353">
        <ele>259.20001220703</ele>
        <time>2012-08-21T07:55:05.000Z</time>
      </trkpt>
      <trkpt lat="47.6827" lon="6.12358">
        <ele>259.60000610352</ele>
        <time>2012-08-21T07:55:06.000Z</time>
      </trkpt>
      <trkpt lat="47.6827" lon="6.12362">
        <ele>260</ele>
        <time>2012-08-21T07:55:07.000Z</time>
      </trkpt>
      <trkpt lat="47.68271" lon="6.12366">
        <ele>260.39999389648</ele>
        <time>2012-08-21T07:55:08.000Z</time>
      </trkpt>
      <trkpt lat="47.68274" lon="6.12373">
        <ele>260.39999389648</ele>
        <time>2012-08-21T07:55:10.000Z</time>
      </trkpt>
      <trkpt lat="47.68283" lon="6.12398">
        <ele>260.39999389648</ele>
        <time>2012-08-21T07:55:17.000Z</time>
      </trkpt>
      <trkpt lat="47.68292" lon="6.12417">
        <ele>260.79998779297</ele>
        <time>2012-08-21T07:55:23.000Z</time>
      </trkpt>
      <trkpt lat="47.68294" lon="6.1242">
        <ele>261.20001220703</ele>
        <time>2012-08-21T07:55:24.000Z</time>
      </trkpt>
      <trkpt lat="47.68295" lon="6.12422">
        <ele>261.60000610352</ele>
        <time>2012-08-21T07:55:25.000Z</time>
      </trkpt>
      <trkpt lat="47.68296" lon="6.12426">
        <ele>262</ele>
        <time>2012-08-21T07:55:26.000Z</time>
      </trkpt>
      <trkpt lat="47.68298" lon="6.1243">
        <ele>262.60000610352</ele>
        <time>2012-08-21T07:55:27.000Z</time>
      </trkpt>
      <trkpt lat="47.68301" lon="6.12439">
        <ele>262.60000610352</ele>
        <time>2012-08-21T07:55:30.000Z</time>
      </trkpt>
      <trkpt lat="47.68308" lon="6.12455">
        <ele>262.60000610352</ele>
        <time>2012-08-21T07:55:36.000Z</time>
      </trkpt>
      <trkpt lat="47.68316" lon="6.12474">
        <ele>262.60000610352</ele>
        <time>2012-08-21T07:55:42.000Z</time>
      </trkpt>
      <trkpt lat="47.68318" lon="6.1248">
        <ele>263</ele>
        <time>2012-08-21T07:55:44.000Z</time>
      </trkpt>
      <trkpt lat="47.68319" lon="6.12484">
        <ele>263.39999389648</ele>
        <time>2012-08-21T07:55:45.000Z</time>
      </trkpt>
      <trkpt lat="47.68321" lon="6.12488">
        <ele>263.79998779297</ele>
        <time>2012-08-21T07:55:46.000Z</time>
      </trkpt>
      <trkpt lat="47.68323" lon="6.12492">
        <ele>264.20001220703</ele>
        <time>2012-08-21T07:55:47.000Z</time>
      </trkpt>
      <trkpt lat="47.68324" lon="6.12496">
        <ele>264.60000610352</ele>
        <time>2012-08-21T07:55:48.000Z</time>
      </trkpt>
      <trkpt lat="47.68328" lon="6.12504">
        <ele>264.60000610352</ele>
        <time>2012-08-21T07:55:50.000Z</time>
      </trkpt>
      <trkpt lat="47.68339" lon="6.12531">
        <ele>264.60000610352</ele>
        <time>2012-08-21T07:55:55.000Z</time>
      </trkpt>
      <trkpt lat="47.68347" lon="6.1255">
        <ele>264.20001220703</ele>
        <time>2012-08-21T07:55:58.000Z</time>
      </trkpt>
      <trkpt lat="47.6835" lon="6.12556">
        <ele>263.79998779297</ele>
        <time>2012-08-21T07:55:59.000Z</time>
      </trkpt>
      <trkpt lat="47.68352" lon="6.12563">
        <ele>263.20001220703</ele>
        <time>2012-08-21T07:56:00.000Z</time>
      </trkpt>
      <trkpt lat="47.68355" lon="6.12571">
        <ele>262.79998779297</ele>
        <time>2012-08-21T07:56:01.000Z</time>
      </trkpt>
      <trkpt lat="47.68358" lon="6.12578">
        <ele>262.39999389648</ele>
        <time>2012-08-21T07:56:02.000Z</time>
      </trkpt>
      <trkpt lat="47.68374" lon="6.12619">
        <ele>262.39999389648</ele>
        <time>2012-08-21T07:56:08.000Z</time>
      </trkpt>
      <trkpt lat="47.68382" lon="6.12636">
        <ele>262.39999389648</ele>
        <time>2012-08-21T07:56:11.000Z</time>
      </trkpt>
      <trkpt lat="47.68384" lon="6.12645">
        <ele>262.39999389648</ele>
        <time>2012-08-21T07:56:13.000Z</time>
      </trkpt>
      <trkpt lat="47.68392" lon="6.12666">
        <ele>262.39999389648</ele>
        <time>2012-08-21T07:56:19.000Z</time>
      </trkpt>
      <trkpt lat="47.68396" lon="6.12676">
        <ele>262.39999389648</ele>
        <time>2012-08-21T07:56:24.000Z</time>
      </trkpt>
      <trkpt lat="47.684" lon="6.12685">
        <ele>262.39999389648</ele>
        <time>2012-08-21T07:56:29.000Z</time>
      </trkpt>
      <trkpt lat="47.68402" lon="6.12688">
        <ele>262.39999389648</ele>
        <time>2012-08-21T07:56:31.000Z</time>
      </trkpt>
      <trkpt lat="47.68404" lon="6.12697">
        <ele>262.79998779297</ele>
        <time>2012-08-21T07:56:35.000Z</time>
      </trkpt>
      <trkpt lat="47.68405" lon="6.12699">
        <ele>263.20001220703</ele>
        <time>2012-08-21T07:56:36.000Z</time>
      </trkpt>
      <trkpt lat="47.68406" lon="6.12701">
        <ele>263.60000610352</ele>
        <time>2012-08-21T07:56:37.000Z</time>
      </trkpt>
      <trkpt lat="47.68407" lon="6.12703">
        <ele>264</ele>
        <time>2012-08-21T07:56:38.000Z</time>
      </trkpt>
      <trkpt lat="47.68408" lon="6.12704">
        <ele>264.39999389648</ele>
        <time>2012-08-21T07:56:39.000Z</time>
      </trkpt>
      <trkpt lat="47.68412" lon="6.12716">
        <ele>264.39999389648</ele>
        <time>2012-08-21T07:56:44.000Z</time>
      </trkpt>
      <trkpt lat="47.68414" lon="6.12721">
        <ele>264.79998779297</ele>
        <time>2012-08-21T07:56:46.000Z</time>
      </trkpt>
      <trkpt lat="47.68415" lon="6.12722">
        <ele>265.20001220703</ele>
        <time>2012-08-21T07:56:47.000Z</time>
      </trkpt>
      <trkpt lat="47.68416" lon="6.12724">
        <ele>265.60000610352</ele>
        <time>2012-08-21T07:56:48.000Z</time>
      </trkpt>
      <trkpt lat="47.68416" lon="6.12726">
        <ele>266</ele>
        <time>2012-08-21T07:56:49.000Z</time>
      </trkpt>
      <trkpt lat="47.68417" lon="6.12728">
        <ele>266.39999389648</ele>
        <time>2012-08-21T07:56:50.000Z</time>
      </trkpt>
      <trkpt lat="47.68417" lon="6.1273">
        <ele>266.39999389648</ele>
        <time>2012-08-21T07:56:51.000Z</time>
      </trkpt>
      <trkpt lat="47.68418" lon="6.12734">
        <ele>266.39999389648</ele>
        <time>2012-08-21T07:56:54.000Z</time>
      </trkpt>
      <trkpt lat="47.68429" lon="6.1275">
        <ele>268.60000610352</ele>
        <time>2012-08-21T07:57:25.000Z</time>
      </trkpt>
      <trkpt lat="47.68433" lon="6.12764">
        <ele>269</ele>
        <time>2012-08-21T07:57:31.000Z</time>
      </trkpt>
      <trkpt lat="47.68433" lon="6.12766">
        <ele>269.39999389648</ele>
        <time>2012-08-21T07:57:32.000Z</time>
      </trkpt>
      <trkpt lat="47.68434" lon="6.12768">
        <ele>269.79998779297</ele>
        <time>2012-08-21T07:57:33.000Z</time>
      </trkpt>
      <trkpt lat="47.68435" lon="6.1277">
        <ele>270.20001220703</ele>
        <time>2012-08-21T07:57:34.000Z</time>
      </trkpt>
      <trkpt lat="47.68435" lon="6.12772">
        <ele>270.60000610352</ele>
        <time>2012-08-21T07:57:35.000Z</time>
      </trkpt>
      <trkpt lat="47.68438" lon="6.12779">
        <ele>270.60000610352</ele>
        <time>2012-08-21T07:57:39.000Z</time>
      </trkpt>
      <trkpt lat="47.68443" lon="6.12786">
        <ele>271.39999389648</ele>
        <time>2012-08-21T07:57:44.000Z</time>
      </trkpt>
      <trkpt lat="47.68444" lon="6.12787">
        <ele>271.79998779297</ele>
        <time>2012-08-21T07:57:45.000Z</time>
      </trkpt>
      <trkpt lat="47.68445" lon="6.12788">
        <ele>272.20001220703</ele>
        <time>2012-08-21T07:57:46.000Z</time>
      </trkpt>
      <trkpt lat="47.68445" lon="6.12789">
        <ele>272.60000610352</ele>
        <time>2012-08-21T07:57:47.000Z</time>
      </trkpt>
      <trkpt lat="47.68449" lon="6.128">
        <ele>272.60000610352</ele>
        <time>2012-08-21T07:57:54.000Z</time>
      </trkpt>
      <trkpt lat="47.6845" lon="6.12805">
        <ele>273</ele>
        <time>2012-08-21T07:57:57.000Z</time>
      </trkpt>
      <trkpt lat="47.68451" lon="6.12806">
        <ele>273.39999389648</ele>
        <time>2012-08-21T07:57:58.000Z</time>
      </trkpt>
      <trkpt lat="47.6847" lon="6.12848">
        <ele>276.79998779297</ele>
        <time>2012-08-21T07:58:20.000Z</time>
      </trkpt>
      <trkpt lat="47.68472" lon="6.12852">
        <ele>276.79998779297</ele>
        <time>2012-08-21T07:58:22.000Z</time>
      </trkpt>
      <trkpt lat="47.68478" lon="6.12867">
        <ele>276.79998779297</ele>
        <time>2012-08-21T07:58:29.000Z</time>
      </trkpt>
      <trkpt lat="47.68481" lon="6.12874">
        <ele>276.79998779297</ele>
        <time>2012-08-21T07:58:33.000Z</time>
      </trkpt>
      <trkpt lat="47.68483" lon="6.1288">
        <ele>276.79998779297</ele>
        <time>2012-08-21T07:58:36.000Z</time>
      </trkpt>
      <trkpt lat="47.68488" lon="6.12889">
        <ele>276.79998779297</ele>
        <time>2012-08-21T07:58:41.000Z</time>
      </trkpt>
      <trkpt lat="47.6849" lon="6.12893">
        <ele>276.79998779297</ele>
        <time>2012-08-21T07:58:43.000Z</time>
      </trkpt>
      <trkpt lat="47.68494" lon="6.1291">
        <ele>277.20001220703</ele>
        <time>2012-08-21T07:58:49.000Z</time>
      </trkpt>
      <trkpt lat="47.68495" lon="6.12914">
        <ele>277.60000610352</ele>
        <time>2012-08-21T07:58:50.000Z</time>
      </trkpt>
      <trkpt lat="47.68496" lon="6.12918">
        <ele>278</ele>
        <time>2012-08-21T07:58:51.000Z</time>
      </trkpt>
      <trkpt lat="47.68498" lon="6.12921">
        <ele>278.39999389648</ele>
        <time>2012-08-21T07:58:52.000Z</time>
      </trkpt>
      <trkpt lat="47.68499" lon="6.12924">
        <ele>278.79998779297</ele>
        <time>2012-08-21T07:58:53.000Z</time>
      </trkpt>
      <trkpt lat="47.685" lon="6.12927">
        <ele>278.79998779297</ele>
        <time>2012-08-21T07:58:54.000Z</time>
      </trkpt>
      <trkpt lat="47.68508" lon="6.12947">
        <ele>278.79998779297</ele>
        <time>2012-08-21T07:59:00.000Z</time>
      </trkpt>
      <trkpt lat="47.6851" lon="6.12951">
        <ele>278.79998779297</ele>
        <time>2012-08-21T07:59:02.000Z</time>
      </trkpt>
      <trkpt lat="47.68515" lon="6.12968">
        <ele>278.79998779297</ele>
        <time>2012-08-21T07:59:06.000Z</time>
      </trkpt>
      <trkpt lat="47.68519" lon="6.12982">
        <ele>278.39999389648</ele>
        <time>2012-08-21T07:59:09.000Z</time>
      </trkpt>
      <trkpt lat="47.68521" lon="6.12988">
        <ele>277.79998779297</ele>
        <time>2012-08-21T07:59:10.000Z</time>
      </trkpt>
      <trkpt lat="47.68523" lon="6.12994">
        <ele>277.39999389648</ele>
        <time>2012-08-21T07:59:11.000Z</time>
      </trkpt>
      <trkpt lat="47.68525" lon="6.13">
        <ele>277</ele>
        <time>2012-08-21T07:59:12.000Z</time>
      </trkpt>
      <trkpt lat="47.68527" lon="6.13004">
        <ele>276.60000610352</ele>
        <time>2012-08-21T07:59:13.000Z</time>
      </trkpt>
      <trkpt lat="47.68534" lon="6.13018">
        <ele>276.60000610352</ele>
        <time>2012-08-21T07:59:17.000Z</time>
      </trkpt>
      <trkpt lat="47.68541" lon="6.1303">
        <ele>276.60000610352</ele>
        <time>2012-08-21T07:59:23.000Z</time>
      </trkpt>
      <trkpt lat="47.68542" lon="6.13032">
        <ele>276.60000610352</ele>
        <time>2012-08-21T07:59:24.000Z</time>
      </trkpt>
      <trkpt lat="47.68543" lon="6.13035">
        <ele>276.60000610352</ele>
        <time>2012-08-21T07:59:36.000Z</time>
      </trkpt>
      <trkpt lat="47.68544" lon="6.13037">
        <ele>276.60000610352</ele>
        <time>2012-08-21T07:59:38.000Z</time>
      </trkpt>
      <trkpt lat="47.68546" lon="6.1304">
        <ele>276.60000610352</ele>
        <time>2012-08-21T07:59:42.000Z</time>
      </trkpt>
      <trkpt lat="47.68549" lon="6.13076">
        <ele>278.60000610352</ele>
        <time>2012-08-21T08:00:14.000Z</time>
      </trkpt>
      <trkpt lat="47.68549" lon="6.13077">
        <ele>278.60000610352</ele>
        <time>2012-08-21T08:00:15.000Z</time>
      </trkpt>
      <trkpt lat="47.68551" lon="6.13086">
        <ele>278.60000610352</ele>
        <time>2012-08-21T08:00:21.000Z</time>
      </trkpt>
      <trkpt lat="47.68553" lon="6.13089">
        <ele>278.60000610352</ele>
        <time>2012-08-21T08:00:26.000Z</time>
      </trkpt>
      <trkpt lat="47.68556" lon="6.13093">
        <ele>278.60000610352</ele>
        <time>2012-08-21T08:00:42.000Z</time>
      </trkpt>
      <trkpt lat="47.68567" lon="6.13109">
        <ele>278.60000610352</ele>
        <time>2012-08-21T08:00:47.000Z</time>
      </trkpt>
      <trkpt lat="47.6858" lon="6.13129">
        <ele>279</ele>
        <time>2012-08-21T08:00:55.000Z</time>
      </trkpt>
      <trkpt lat="47.68581" lon="6.13131">
        <ele>279.39999389648</ele>
        <time>2012-08-21T08:00:56.000Z</time>
      </trkpt>
      <trkpt lat="47.68583" lon="6.13133">
        <ele>279.79998779297</ele>
        <time>2012-08-21T08:00:57.000Z</time>
      </trkpt>
      <trkpt lat="47.68584" lon="6.13136">
        <ele>280.39999389648</ele>
        <time>2012-08-21T08:00:58.000Z</time>
      </trkpt>
      <trkpt lat="47.68586" lon="6.13138">
        <ele>280.79998779297</ele>
        <time>2012-08-21T08:00:59.000Z</time>
      </trkpt>
      <trkpt lat="47.68591" lon="6.13144">
        <ele>280.79998779297</ele>
        <time>2012-08-21T08:01:03.000Z</time>
      </trkpt>
      <trkpt lat="47.68601" lon="6.13156">
        <ele>280.79998779297</ele>
        <time>2012-08-21T08:01:10.000Z</time>
      </trkpt>
      <trkpt lat="47.68602" lon="6.13158">
        <ele>281.20001220703</ele>
        <time>2012-08-21T08:01:11.000Z</time>
      </trkpt>
      <trkpt lat="47.68603" lon="6.1316">
        <ele>281.60000610352</ele>
        <time>2012-08-21T08:01:12.000Z</time>
      </trkpt>
      <trkpt lat="47.68605" lon="6.13161">
        <ele>282</ele>
        <time>2012-08-21T08:01:13.000Z</time>
      </trkpt>
      <trkpt lat="47.68606" lon="6.13163">
        <ele>282.39999389648</ele>
        <time>2012-08-21T08:01:14.000Z</time>
      </trkpt>
      <trkpt lat="47.68608" lon="6.13165">
        <ele>282.79998779297</ele>
        <time>2012-08-21T08:01:15.000Z</time>
      </trkpt>
      <trkpt lat="47.68612" lon="6.1317">
        <ele>282.79998779297</ele>
        <time>2012-08-21T08:01:18.000Z</time>
      </trkpt>
      <trkpt lat="47.68623" lon="6.13183">
        <ele>282.79998779297</ele>
        <time>2012-08-21T08:01:26.000Z</time>
      </trkpt>
      <trkpt lat="47.68633" lon="6.13197">
        <ele>282.79998779297</ele>
        <time>2012-08-21T08:01:33.000Z</time>
      </trkpt>
      <trkpt lat="47.68645" lon="6.13209">
        <ele>282.79998779297</ele>
        <time>2012-08-21T08:01:40.000Z</time>
      </trkpt>
      <trkpt lat="47.68656" lon="6.13222">
        <ele>283.20001220703</ele>
        <time>2012-08-21T08:01:47.000Z</time>
      </trkpt>
      <trkpt lat="47.68657" lon="6.13223">
        <ele>283.60000610352</ele>
        <time>2012-08-21T08:01:48.000Z</time>
      </trkpt>
      <trkpt lat="47.68658" lon="6.13225">
        <ele>284</ele>
        <time>2012-08-21T08:01:49.000Z</time>
      </trkpt>
      <trkpt lat="47.6866" lon="6.13227">
        <ele>284.39999389648</ele>
        <time>2012-08-21T08:01:50.000Z</time>
      </trkpt>
      <trkpt lat="47.68661" lon="6.13229">
        <ele>284.79998779297</ele>
        <time>2012-08-21T08:01:51.000Z</time>
      </trkpt>
      <trkpt lat="47.68667" lon="6.13236">
        <ele>284.79998779297</ele>
        <time>2012-08-21T08:01:55.000Z</time>
      </trkpt>
      <trkpt lat="47.68682" lon="6.13252">
        <ele>284.79998779297</ele>
        <time>2012-08-21T08:02:02.000Z</time>
      </trkpt>
      <trkpt lat="47.6869" lon="6.13267">
        <ele>284.79998779297</ele>
        <time>2012-08-21T08:02:07.000Z</time>
      </trkpt>
      <trkpt lat="47.6869" lon="6.13269">
        <ele>285.20001220703</ele>
        <time>2012-08-21T08:02:08.000Z</time>
      </trkpt>
      <trkpt lat="47.68689" lon="6.13271">
        <ele>285.79998779297</ele>
        <time>2012-08-21T08:02:09.000Z</time>
      </trkpt>
      <trkpt lat="47.68687" lon="6.13273">
        <ele>286.20001220703</ele>
        <time>2012-08-21T08:02:10.000Z</time>
      </trkpt>
      <trkpt lat="47.68685" lon="6.13275">
        <ele>286.60000610352</ele>
        <time>2012-08-21T08:02:11.000Z</time>
      </trkpt>
      <trkpt lat="47.68684" lon="6.13278">
        <ele>287.20001220703</ele>
        <time>2012-08-21T08:02:12.000Z</time>
      </trkpt>
      <trkpt lat="47.68674" lon="6.13293">
        <ele>287.20001220703</ele>
        <time>2012-08-21T08:02:17.000Z</time>
      </trkpt>
      <trkpt lat="47.68672" lon="6.13296">
        <ele>287.20001220703</ele>
        <time>2012-08-21T08:02:18.000Z</time>
      </trkpt>
      <trkpt lat="47.6866" lon="6.13316">
        <ele>287.20001220703</ele>
        <time>2012-08-21T08:02:23.000Z</time>
      </trkpt>
      <trkpt lat="47.68643" lon="6.13343">
        <ele>287.20001220703</ele>
        <time>2012-08-21T08:02:30.000Z</time>
      </trkpt>
      <trkpt lat="47.6863" lon="6.13363">
        <ele>287.20001220703</ele>
        <time>2012-08-21T08:02:35.000Z</time>
      </trkpt>
      <trkpt lat="47.68622" lon="6.13375">
        <ele>287.20001220703</ele>
        <time>2012-08-21T08:02:38.000Z</time>
      </trkpt>
      <trkpt lat="47.686" lon="6.13409">
        <ele>287.20001220703</ele>
        <time>2012-08-21T08:02:47.000Z</time>
      </trkpt>
      <trkpt lat="47.68584" lon="6.1344">
        <ele>287.20001220703</ele>
        <time>2012-08-21T08:02:54.000Z</time>
      </trkpt>
      <trkpt lat="47.68568" lon="6.13468">
        <ele>287.20001220703</ele>
        <time>2012-08-21T08:03:00.000Z</time>
      </trkpt>
      <trkpt lat="47.6855" lon="6.13497">
        <ele>287.20001220703</ele>
        <time>2012-08-21T08:03:05.000Z</time>
      </trkpt>
      <trkpt lat="47.68546" lon="6.13503">
        <ele>286.60000610352</ele>
        <time>2012-08-21T08:03:06.000Z</time>
      </trkpt>
      <trkpt lat="47.68542" lon="6.1351">
        <ele>286.20001220703</ele>
        <time>2012-08-21T08:03:07.000Z</time>
      </trkpt>
      <trkpt lat="47.68537" lon="6.13517">
        <ele>285.79998779297</ele>
        <time>2012-08-21T08:03:08.000Z</time>
      </trkpt>
      <trkpt lat="47.68533" lon="6.13524">
        <ele>285.39999389648</ele>
        <time>2012-08-21T08:03:09.000Z</time>
      </trkpt>
      <trkpt lat="47.68529" lon="6.1353">
        <ele>285</ele>
        <time>2012-08-21T08:03:10.000Z</time>
      </trkpt>
      <trkpt lat="47.68517" lon="6.13551">
        <ele>285</ele>
        <time>2012-08-21T08:03:13.000Z</time>
      </trkpt>
      <trkpt lat="47.68493" lon="6.13595">
        <ele>285</ele>
        <time>2012-08-21T08:03:20.000Z</time>
      </trkpt>
      <trkpt lat="47.68468" lon="6.13639">
        <ele>285</ele>
        <time>2012-08-21T08:03:28.000Z</time>
      </trkpt>
      <trkpt lat="47.68444" lon="6.13683">
        <ele>285</ele>
        <time>2012-08-21T08:03:37.000Z</time>
      </trkpt>
      <trkpt lat="47.68426" lon="6.13717">
        <ele>285</ele>
        <time>2012-08-21T08:03:44.000Z</time>
      </trkpt>
      <trkpt lat="47.68401" lon="6.13763">
        <ele>284.60000610352</ele>
        <time>2012-08-21T08:03:53.000Z</time>
      </trkpt>
      <trkpt lat="47.68398" lon="6.13768">
        <ele>283.79998779297</ele>
        <time>2012-08-21T08:03:54.000Z</time>
      </trkpt>
      <trkpt lat="47.68395" lon="6.13774">
        <ele>283.39999389648</ele>
        <time>2012-08-21T08:03:55.000Z</time>
      </trkpt>
      <trkpt lat="47.68393" lon="6.13779">
        <ele>283</ele>
        <time>2012-08-21T08:03:56.000Z</time>
      </trkpt>
      <trkpt lat="47.68385" lon="6.13801">
        <ele>283</ele>
        <time>2012-08-21T08:04:00.000Z</time>
      </trkpt>
      <trkpt lat="47.68373" lon="6.13836">
        <ele>283</ele>
        <time>2012-08-21T08:04:07.000Z</time>
      </trkpt>
      <trkpt lat="47.68357" lon="6.13866">
        <ele>283</ele>
        <time>2012-08-21T08:04:14.000Z</time>
      </trkpt>
      <trkpt lat="47.68339" lon="6.13892">
        <ele>283</ele>
        <time>2012-08-21T08:04:20.000Z</time>
      </trkpt>
      <trkpt lat="47.68314" lon="6.13926">
        <ele>283</ele>
        <time>2012-08-21T08:04:27.000Z</time>
      </trkpt>
      <trkpt lat="47.68285" lon="6.1397">
        <ele>282.60000610352</ele>
        <time>2012-08-21T08:04:35.000Z</time>
      </trkpt>
      <trkpt lat="47.68281" lon="6.13976">
        <ele>282</ele>
        <time>2012-08-21T08:04:36.000Z</time>
      </trkpt>
      <trkpt lat="47.68278" lon="6.13983">
        <ele>281.60000610352</ele>
        <time>2012-08-21T08:04:37.000Z</time>
      </trkpt>
      <trkpt lat="47.68274" lon="6.13989">
        <ele>281.20001220703</ele>
        <time>2012-08-21T08:04:38.000Z</time>
      </trkpt>
      <trkpt lat="47.68271" lon="6.13996">
        <ele>280.79998779297</ele>
        <time>2012-08-21T08:04:39.000Z</time>
      </trkpt>
      <trkpt lat="47.6826" lon="6.14016">
        <ele>280.79998779297</ele>
        <time>2012-08-21T08:04:42.000Z</time>
      </trkpt>
      <trkpt lat="47.68239" lon="6.1406">
        <ele>280.39999389648</ele>
        <time>2012-08-21T08:04:48.000Z</time>
      </trkpt>
      <trkpt lat="47.68235" lon="6.14067">
        <ele>280</ele>
        <time>2012-08-21T08:04:49.000Z</time>
      </trkpt>
      <trkpt lat="47.68232" lon="6.14074">
        <ele>279.60000610352</ele>
        <time>2012-08-21T08:04:50.000Z</time>
      </trkpt>
      <trkpt lat="47.68228" lon="6.14081">
        <ele>279.20001220703</ele>
        <time>2012-08-21T08:04:51.000Z</time>
      </trkpt>
      <trkpt lat="47.68224" lon="6.14087">
        <ele>278.79998779297</ele>
        <time>2012-08-21T08:04:52.000Z</time>
      </trkpt>
      <trkpt lat="47.68203" lon="6.1412">
        <ele>278.79998779297</ele>
        <time>2012-08-21T08:04:57.000Z</time>
      </trkpt>
      <trkpt lat="47.68198" lon="6.14126">
        <ele>278.39999389648</ele>
        <time>2012-08-21T08:04:58.000Z</time>
      </trkpt>
      <trkpt lat="47.68194" lon="6.14133">
        <ele>277.79998779297</ele>
        <time>2012-08-21T08:04:59.000Z</time>
      </trkpt>
      <trkpt lat="47.68189" lon="6.14139">
        <ele>277.39999389648</ele>
        <time>2012-08-21T08:05:00.000Z</time>
      </trkpt>
      <trkpt lat="47.68184" lon="6.14145">
        <ele>277</ele>
        <time>2012-08-21T08:05:01.000Z</time>
      </trkpt>
      <trkpt lat="47.6818" lon="6.14151">
        <ele>276.60000610352</ele>
        <time>2012-08-21T08:05:02.000Z</time>
      </trkpt>
      <trkpt lat="47.68164" lon="6.14171">
        <ele>276.60000610352</ele>
        <time>2012-08-21T08:05:05.000Z</time>
      </trkpt>
      <trkpt lat="47.68148" lon="6.14191">
        <ele>275.79998779297</ele>
        <time>2012-08-21T08:05:08.000Z</time>
      </trkpt>
      <trkpt lat="47.68142" lon="6.14197">
        <ele>275.20001220703</ele>
        <time>2012-08-21T08:05:09.000Z</time>
      </trkpt>
      <trkpt lat="47.68137" lon="6.14203">
        <ele>274.79998779297</ele>
        <time>2012-08-21T08:05:10.000Z</time>
      </trkpt>
      <trkpt lat="47.68133" lon="6.14209">
        <ele>274.39999389648</ele>
        <time>2012-08-21T08:05:11.000Z</time>
      </trkpt>
      <trkpt lat="47.6813" lon="6.14223">
        <ele>274</ele>
        <time>2012-08-21T08:05:13.000Z</time>
      </trkpt>
      <trkpt lat="47.68131" lon="6.1423">
        <ele>273.39999389648</ele>
        <time>2012-08-21T08:05:14.000Z</time>
      </trkpt>
      <trkpt lat="47.68132" lon="6.14235">
        <ele>273</ele>
        <time>2012-08-21T08:05:15.000Z</time>
      </trkpt>
      <trkpt lat="47.68134" lon="6.14239">
        <ele>272.39999389648</ele>
        <time>2012-08-21T08:05:16.000Z</time>
      </trkpt>
      <trkpt lat="47.68136" lon="6.14243">
        <ele>272</ele>
        <time>2012-08-21T08:05:17.000Z</time>
      </trkpt>
      <trkpt lat="47.68138" lon="6.14246">
        <ele>272</ele>
        <time>2012-08-21T08:05:18.000Z</time>
      </trkpt>
      <trkpt lat="47.68153" lon="6.14275">
        <ele>272</ele>
        <time>2012-08-21T08:05:26.000Z</time>
      </trkpt>
      <trkpt lat="47.68169" lon="6.14307">
        <ele>272</ele>
        <time>2012-08-21T08:05:34.000Z</time>
      </trkpt>
      <trkpt lat="47.68187" lon="6.14342">
        <ele>272</ele>
        <time>2012-08-21T08:05:42.000Z</time>
      </trkpt>
      <trkpt lat="47.68207" lon="6.14386">
        <ele>272</ele>
        <time>2012-08-21T08:05:52.000Z</time>
      </trkpt>
      <trkpt lat="47.68233" lon="6.14439">
        <ele>272</ele>
        <time>2012-08-21T08:06:03.000Z</time>
      </trkpt>
      <trkpt lat="47.68255" lon="6.14485">
        <ele>272</ele>
        <time>2012-08-21T08:06:12.000Z</time>
      </trkpt>
      <trkpt lat="47.68271" lon="6.14519">
        <ele>272</ele>
        <time>2012-08-21T08:06:19.000Z</time>
      </trkpt>
      <trkpt lat="47.68276" lon="6.14529">
        <ele>271.60000610352</ele>
        <time>2012-08-21T08:06:21.000Z</time>
      </trkpt>
      <trkpt lat="47.68278" lon="6.14534">
        <ele>270.79998779297</ele>
        <time>2012-08-21T08:06:22.000Z</time>
      </trkpt>
      <trkpt lat="47.68281" lon="6.14539">
        <ele>270.39999389648</ele>
        <time>2012-08-21T08:06:23.000Z</time>
      </trkpt>
      <trkpt lat="47.68283" lon="6.14544">
        <ele>270</ele>
        <time>2012-08-21T08:06:24.000Z</time>
      </trkpt>
      <trkpt lat="47.68295" lon="6.14568">
        <ele>270</ele>
        <time>2012-08-21T08:06:29.000Z</time>
      </trkpt>
      <trkpt lat="47.68315" lon="6.14609">
        <ele>270</ele>
        <time>2012-08-21T08:06:37.000Z</time>
      </trkpt>
      <trkpt lat="47.68329" lon="6.1464">
        <ele>269.39999389648</ele>
        <time>2012-08-21T08:06:43.000Z</time>
      </trkpt>
      <trkpt lat="47.68332" lon="6.14645">
        <ele>269</ele>
        <time>2012-08-21T08:06:44.000Z</time>
      </trkpt>
      <trkpt lat="47.68334" lon="6.1465">
        <ele>268.60000610352</ele>
        <time>2012-08-21T08:06:45.000Z</time>
      </trkpt>
      <trkpt lat="47.68337" lon="6.14655">
        <ele>267.79998779297</ele>
        <time>2012-08-21T08:06:46.000Z</time>
      </trkpt>
      <trkpt lat="47.68339" lon="6.1466">
        <ele>267.79998779297</ele>
        <time>2012-08-21T08:06:47.000Z</time>
      </trkpt>
      <trkpt lat="47.68345" lon="6.14678">
        <ele>267.79998779297</ele>
        <time>2012-08-21T08:06:50.000Z</time>
      </trkpt>
      <trkpt lat="47.68357" lon="6.1471">
        <ele>267.79998779297</ele>
        <time>2012-08-21T08:06:56.000Z</time>
      </trkpt>
      <trkpt lat="47.6836" lon="6.14721">
        <ele>267.79998779297</ele>
        <time>2012-08-21T08:06:58.000Z</time>
      </trkpt>
      <trkpt lat="47.68367" lon="6.14761">
        <ele>267.79998779297</ele>
        <time>2012-08-21T08:07:05.000Z</time>
      </trkpt>
      <trkpt lat="47.68368" lon="6.14773">
        <ele>267.79998779297</ele>
        <time>2012-08-21T08:07:07.000Z</time>
      </trkpt>
      <trkpt lat="47.68368" lon="6.14803">
        <ele>267.79998779297</ele>
        <time>2012-08-21T08:07:12.000Z</time>
      </trkpt>
      <trkpt lat="47.68367" lon="6.1485">
        <ele>267.79998779297</ele>
        <time>2012-08-21T08:07:20.000Z</time>
      </trkpt>
      <trkpt lat="47.68367" lon="6.14856">
        <ele>267.39999389648</ele>
        <time>2012-08-21T08:07:21.000Z</time>
      </trkpt>
      <trkpt lat="47.68367" lon="6.14862">
        <ele>267</ele>
        <time>2012-08-21T08:07:22.000Z</time>
      </trkpt>
      <trkpt lat="47.68367" lon="6.14868">
        <ele>266.60000610352</ele>
        <time>2012-08-21T08:07:23.000Z</time>
      </trkpt>
      <trkpt lat="47.68366" lon="6.14875">
        <ele>266.20001220703</ele>
        <time>2012-08-21T08:07:24.000Z</time>
      </trkpt>
      <trkpt lat="47.68366" lon="6.1488">
        <ele>265.79998779297</ele>
        <time>2012-08-21T08:07:25.000Z</time>
      </trkpt>
      <trkpt lat="47.68366" lon="6.14898">
        <ele>265.79998779297</ele>
        <time>2012-08-21T08:07:28.000Z</time>
      </trkpt>
      <trkpt lat="47.68365" lon="6.14946">
        <ele>265.79998779297</ele>
        <time>2012-08-21T08:07:36.000Z</time>
      </trkpt>
      <trkpt lat="47.68365" lon="6.14988">
        <ele>265.79998779297</ele>
        <time>2012-08-21T08:07:43.000Z</time>
      </trkpt>
      <trkpt lat="47.68364" lon="6.15043">
        <ele>265.79998779297</ele>
        <time>2012-08-21T08:07:52.000Z</time>
      </trkpt>
      <trkpt lat="47.68365" lon="6.1508">
        <ele>265.79998779297</ele>
        <time>2012-08-21T08:07:59.000Z</time>
      </trkpt>
      <trkpt lat="47.68365" lon="6.1509">
        <ele>265.39999389648</ele>
        <time>2012-08-21T08:08:01.000Z</time>
      </trkpt>
      <trkpt lat="47.68365" lon="6.15095">
        <ele>265</ele>
        <time>2012-08-21T08:08:02.000Z</time>
      </trkpt>
      <trkpt lat="47.68365" lon="6.151">
        <ele>264.39999389648</ele>
        <time>2012-08-21T08:08:03.000Z</time>
      </trkpt>
      <trkpt lat="47.68364" lon="6.15105">
        <ele>264</ele>
        <time>2012-08-21T08:08:04.000Z</time>
      </trkpt>
      <trkpt lat="47.68365" lon="6.1511">
        <ele>263.60000610352</ele>
        <time>2012-08-21T08:08:05.000Z</time>
      </trkpt>
      <trkpt lat="47.68365" lon="6.15115">
        <ele>263.60000610352</ele>
        <time>2012-08-21T08:08:06.000Z</time>
      </trkpt>
      <trkpt lat="47.68364" lon="6.15153">
        <ele>263.60000610352</ele>
        <time>2012-08-21T08:08:14.000Z</time>
      </trkpt>
      <trkpt lat="47.68357" lon="6.15176">
        <ele>263.60000610352</ele>
        <time>2012-08-21T08:08:19.000Z</time>
      </trkpt>
      <trkpt lat="47.68343" lon="6.15187">
        <ele>263.60000610352</ele>
        <time>2012-08-21T08:08:24.000Z</time>
      </trkpt>
      <trkpt lat="47.68323" lon="6.15198">
        <ele>263.20001220703</ele>
        <time>2012-08-21T08:08:30.000Z</time>
      </trkpt>
      <trkpt lat="47.68319" lon="6.152">
        <ele>262.79998779297</ele>
        <time>2012-08-21T08:08:31.000Z</time>
      </trkpt>
      <trkpt lat="47.68314" lon="6.15202">
        <ele>262.39999389648</ele>
        <time>2012-08-21T08:08:32.000Z</time>
      </trkpt>
      <trkpt lat="47.6831" lon="6.15205">
        <ele>262</ele>
        <time>2012-08-21T08:08:33.000Z</time>
      </trkpt>
      <trkpt lat="47.68306" lon="6.15207">
        <ele>261.60000610352</ele>
        <time>2012-08-21T08:08:34.000Z</time>
      </trkpt>
      <trkpt lat="47.68293" lon="6.15214">
        <ele>261.60000610352</ele>
        <time>2012-08-21T08:08:37.000Z</time>
      </trkpt>
      <trkpt lat="47.68288" lon="6.15217">
        <ele>261.60000610352</ele>
        <time>2012-08-21T08:08:38.000Z</time>
      </trkpt>
      <trkpt lat="47.68279" lon="6.1522">
        <ele>261.60000610352</ele>
        <time>2012-08-21T08:08:40.000Z</time>
      </trkpt>
      <trkpt lat="47.68271" lon="6.15224">
        <ele>261.20001220703</ele>
        <time>2012-08-21T08:08:42.000Z</time>
      </trkpt>
      <trkpt lat="47.68268" lon="6.15227">
        <ele>260.79998779297</ele>
        <time>2012-08-21T08:08:43.000Z</time>
      </trkpt>
      <trkpt lat="47.68264" lon="6.15229">
        <ele>260.20001220703</ele>
        <time>2012-08-21T08:08:44.000Z</time>
      </trkpt>
      <trkpt lat="47.6826" lon="6.15232">
        <ele>259.79998779297</ele>
        <time>2012-08-21T08:08:45.000Z</time>
      </trkpt>
      <trkpt lat="47.68257" lon="6.15234">
        <ele>259.39999389648</ele>
        <time>2012-08-21T08:08:46.000Z</time>
      </trkpt>
      <trkpt lat="47.68238" lon="6.15244">
        <ele>259</ele>
        <time>2012-08-21T08:08:51.000Z</time>
      </trkpt>
      <trkpt lat="47.68234" lon="6.15246">
        <ele>258.60000610352</ele>
        <time>2012-08-21T08:08:52.000Z</time>
      </trkpt>
      <trkpt lat="47.68231" lon="6.15248">
        <ele>258.20001220703</ele>
        <time>2012-08-21T08:08:53.000Z</time>
      </trkpt>
      <trkpt lat="47.68227" lon="6.15251">
        <ele>257.79998779297</ele>
        <time>2012-08-21T08:08:54.000Z</time>
      </trkpt>
      <trkpt lat="47.68224" lon="6.15253">
        <ele>257.20001220703</ele>
        <time>2012-08-21T08:08:55.000Z</time>
      </trkpt>
      <trkpt lat="47.6822" lon="6.15257">
        <ele>257.20001220703</ele>
        <time>2012-08-21T08:08:56.000Z</time>
      </trkpt>
      <trkpt lat="47.68215" lon="6.15266">
        <ele>257.20001220703</ele>
        <time>2012-08-21T08:08:58.000Z</time>
      </trkpt>
      <trkpt lat="47.68213" lon="6.15279">
        <ele>256.79998779297</ele>
        <time>2012-08-21T08:09:00.000Z</time>
      </trkpt>
      <trkpt lat="47.68212" lon="6.15286">
        <ele>256.39999389648</ele>
        <time>2012-08-21T08:09:01.000Z</time>
      </trkpt>
      <trkpt lat="47.68211" lon="6.15293">
        <ele>256</ele>
        <time>2012-08-21T08:09:02.000Z</time>
      </trkpt>
      <trkpt lat="47.68209" lon="6.15301">
        <ele>255.60000610352</ele>
        <time>2012-08-21T08:09:03.000Z</time>
      </trkpt>
      <trkpt lat="47.68208" lon="6.15309">
        <ele>255.19999694824</ele>
        <time>2012-08-21T08:09:04.000Z</time>
      </trkpt>
      <trkpt lat="47.68202" lon="6.15341">
        <ele>254.80000305176</ele>
        <time>2012-08-21T08:09:08.000Z</time>
      </trkpt>
      <trkpt lat="47.68201" lon="6.15348">
        <ele>254.19999694824</ele>
        <time>2012-08-21T08:09:09.000Z</time>
      </trkpt>
      <trkpt lat="47.68199" lon="6.15356">
        <ele>253.80000305176</ele>
        <time>2012-08-21T08:09:10.000Z</time>
      </trkpt>
      <trkpt lat="47.68198" lon="6.15364">
        <ele>253.39999389648</ele>
        <time>2012-08-21T08:09:11.000Z</time>
      </trkpt>
      <trkpt lat="47.68196" lon="6.15372">
        <ele>252.80000305176</ele>
        <time>2012-08-21T08:09:12.000Z</time>
      </trkpt>
      <trkpt lat="47.68191" lon="6.154">
        <ele>252</ele>
        <time>2012-08-21T08:09:15.000Z</time>
      </trkpt>
      <trkpt lat="47.68189" lon="6.1541">
        <ele>251.39999389648</ele>
        <time>2012-08-21T08:09:16.000Z</time>
      </trkpt>
      <trkpt lat="47.68188" lon="6.15421">
        <ele>251</ele>
        <time>2012-08-21T08:09:17.000Z</time>
      </trkpt>
      <trkpt lat="47.68187" lon="6.15431">
        <ele>250.39999389648</ele>
        <time>2012-08-21T08:09:18.000Z</time>
      </trkpt>
      <trkpt lat="47.68186" lon="6.15441">
        <ele>249.80000305176</ele>
        <time>2012-08-21T08:09:19.000Z</time>
      </trkpt>
      <trkpt lat="47.68186" lon="6.15451">
        <ele>249.19999694824</ele>
        <time>2012-08-21T08:09:20.000Z</time>
      </trkpt>
      <trkpt lat="47.68185" lon="6.15462">
        <ele>248.80000305176</ele>
        <time>2012-08-21T08:09:21.000Z</time>
      </trkpt>
      <trkpt lat="47.68184" lon="6.15474">
        <ele>248.19999694824</ele>
        <time>2012-08-21T08:09:22.000Z</time>
      </trkpt>
      <trkpt lat="47.68183" lon="6.15486">
        <ele>247.60000610352</ele>
        <time>2012-08-21T08:09:23.000Z</time>
      </trkpt>
      <trkpt lat="47.68184" lon="6.15499">
        <ele>247</ele>
        <time>2012-08-21T08:09:24.000Z</time>
      </trkpt>
      <trkpt lat="47.68184" lon="6.15512">
        <ele>246.39999389648</ele>
        <time>2012-08-21T08:09:25.000Z</time>
      </trkpt>
      <trkpt lat="47.68183" lon="6.15526">
        <ele>245.80000305176</ele>
        <time>2012-08-21T08:09:26.000Z</time>
      </trkpt>
      <trkpt lat="47.68182" lon="6.15541">
        <ele>245.19999694824</ele>
        <time>2012-08-21T08:09:27.000Z</time>
      </trkpt>
      <trkpt lat="47.68182" lon="6.15557">
        <ele>244.19999694824</ele>
        <time>2012-08-21T08:09:28.000Z</time>
      </trkpt>
      <trkpt lat="47.68181" lon="6.15574">
        <ele>243.39999389648</ele>
        <time>2012-08-21T08:09:29.000Z</time>
      </trkpt>
      <trkpt lat="47.68181" lon="6.1559">
        <ele>242.60000610352</ele>
        <time>2012-08-21T08:09:30.000Z</time>
      </trkpt>
      <trkpt lat="47.6818" lon="6.15606">
        <ele>241.60000610352</ele>
        <time>2012-08-21T08:09:31.000Z</time>
      </trkpt>
      <trkpt lat="47.68179" lon="6.15622">
        <ele>240.80000305176</ele>
        <time>2012-08-21T08:09:32.000Z</time>
      </trkpt>
      <trkpt lat="47.68178" lon="6.15637">
        <ele>240</ele>
        <time>2012-08-21T08:09:33.000Z</time>
      </trkpt>
      <trkpt lat="47.68177" lon="6.15652">
        <ele>239.19999694824</ele>
        <time>2012-08-21T08:09:34.000Z</time>
      </trkpt>
      <trkpt lat="47.68177" lon="6.15666">
        <ele>238.39999389648</ele>
        <time>2012-08-21T08:09:35.000Z</time>
      </trkpt>
      <trkpt lat="47.68176" lon="6.1568">
        <ele>238</ele>
        <time>2012-08-21T08:09:36.000Z</time>
      </trkpt>
      <trkpt lat="47.68176" lon="6.15694">
        <ele>237.60000610352</ele>
        <time>2012-08-21T08:09:37.000Z</time>
      </trkpt>
      <trkpt lat="47.68176" lon="6.15707">
        <ele>237</ele>
        <time>2012-08-21T08:09:38.000Z</time>
      </trkpt>
      <trkpt lat="47.68176" lon="6.1572">
        <ele>236.19999694824</ele>
        <time>2012-08-21T08:09:39.000Z</time>
      </trkpt>
      <trkpt lat="47.68176" lon="6.15744">
        <ele>236.19999694824</ele>
        <time>2012-08-21T08:09:41.000Z</time>
      </trkpt>
      <trkpt lat="47.68177" lon="6.15794">
        <ele>236.19999694824</ele>
        <time>2012-08-21T08:09:46.000Z</time>
      </trkpt>
      <trkpt lat="47.68182" lon="6.1584">
        <ele>236.19999694824</ele>
        <time>2012-08-21T08:09:52.000Z</time>
      </trkpt>
      <trkpt lat="47.68198" lon="6.15896">
        <ele>236.19999694824</ele>
        <time>2012-08-21T08:10:00.000Z</time>
      </trkpt>
      <trkpt lat="47.6821" lon="6.15953">
        <ele>236.19999694824</ele>
        <time>2012-08-21T08:10:08.000Z</time>
      </trkpt>
      <trkpt lat="47.68222" lon="6.16015">
        <ele>236.19999694824</ele>
        <time>2012-08-21T08:10:16.000Z</time>
      </trkpt>
      <trkpt lat="47.68224" lon="6.16023">
        <ele>235.80000305176</ele>
        <time>2012-08-21T08:10:17.000Z</time>
      </trkpt>
      <trkpt lat="47.68225" lon="6.16032">
        <ele>235.39999389648</ele>
        <time>2012-08-21T08:10:18.000Z</time>
      </trkpt>
      <trkpt lat="47.68226" lon="6.1604">
        <ele>235</ele>
        <time>2012-08-21T08:10:19.000Z</time>
      </trkpt>
      <trkpt lat="47.68227" lon="6.16048">
        <ele>234.39999389648</ele>
        <time>2012-08-21T08:10:20.000Z</time>
      </trkpt>
      <trkpt lat="47.68228" lon="6.16057">
        <ele>234</ele>
        <time>2012-08-21T08:10:21.000Z</time>
      </trkpt>
      <trkpt lat="47.68228" lon="6.16065">
        <ele>234</ele>
        <time>2012-08-21T08:10:22.000Z</time>
      </trkpt>
      <trkpt lat="47.68228" lon="6.16074">
        <ele>234</ele>
        <time>2012-08-21T08:10:23.000Z</time>
      </trkpt>
      <trkpt lat="47.68223" lon="6.1612">
        <ele>234</ele>
        <time>2012-08-21T08:10:29.000Z</time>
      </trkpt>
      <trkpt lat="47.68221" lon="6.16136">
        <ele>234</ele>
        <time>2012-08-21T08:10:31.000Z</time>
      </trkpt>
      <trkpt lat="47.68218" lon="6.16159">
        <ele>233.60000610352</ele>
        <time>2012-08-21T08:10:34.000Z</time>
      </trkpt>
      <trkpt lat="47.68216" lon="6.16167">
        <ele>233.19999694824</ele>
        <time>2012-08-21T08:10:35.000Z</time>
      </trkpt>
      <trkpt lat="47.68215" lon="6.16174">
        <ele>232.80000305176</ele>
        <time>2012-08-21T08:10:36.000Z</time>
      </trkpt>
      <trkpt lat="47.68214" lon="6.16182">
        <ele>232.39999389648</ele>
        <time>2012-08-21T08:10:37.000Z</time>
      </trkpt>
      <trkpt lat="47.68213" lon="6.1619">
        <ele>232</ele>
        <time>2012-08-21T08:10:38.000Z</time>
      </trkpt>
      <trkpt lat="47.68211" lon="6.16204">
        <ele>232</ele>
        <time>2012-08-21T08:10:40.000Z</time>
      </trkpt>
      <trkpt lat="47.68205" lon="6.16224">
        <ele>232</ele>
        <time>2012-08-21T08:10:43.000Z</time>
      </trkpt>
      <trkpt lat="47.68202" lon="6.16229">
        <ele>232</ele>
        <time>2012-08-21T08:10:44.000Z</time>
      </trkpt>
      <trkpt lat="47.68194" lon="6.16251">
        <ele>232</ele>
        <time>2012-08-21T08:10:48.000Z</time>
      </trkpt>
      <trkpt lat="47.68203" lon="6.16263">
        <ele>232</ele>
        <time>2012-08-21T08:10:51.000Z</time>
      </trkpt>
      <trkpt lat="47.6821" lon="6.1627">
        <ele>232</ele>
        <time>2012-08-21T08:10:53.000Z</time>
      </trkpt>
      <trkpt lat="47.68225" lon="6.16283">
        <ele>232</ele>
        <time>2012-08-21T08:10:57.000Z</time>
      </trkpt>
      <trkpt lat="47.68248" lon="6.16302">
        <ele>232</ele>
        <time>2012-08-21T08:11:04.000Z</time>
      </trkpt>
      <trkpt lat="47.6827" lon="6.16319">
        <ele>232</ele>
        <time>2012-08-21T08:11:11.000Z</time>
      </trkpt>
      <trkpt lat="47.68291" lon="6.16335">
        <ele>232</ele>
        <time>2012-08-21T08:11:18.000Z</time>
      </trkpt>
      <trkpt lat="47.68298" lon="6.16341">
        <ele>232</ele>
        <time>2012-08-21T08:11:22.000Z</time>
      </trkpt>
      <trkpt lat="47.683" lon="6.16339">
        <ele>232</ele>
        <time>2012-08-21T08:11:23.000Z</time>
      </trkpt>
      <trkpt lat="47.68313" lon="6.16329">
        <ele>232</ele>
        <time>2012-08-21T08:11:28.000Z</time>
      </trkpt>
      <trkpt lat="47.68324" lon="6.16333">
        <ele>232</ele>
        <time>2012-08-21T08:11:32.000Z</time>
      </trkpt>
      <trkpt lat="47.6833" lon="6.1634">
        <ele>232</ele>
        <time>2012-08-21T08:11:35.000Z</time>
      </trkpt>
      <trkpt lat="47.68335" lon="6.16345">
        <ele>232</ele>
        <time>2012-08-21T08:11:38.000Z</time>
      </trkpt>
      <trkpt lat="47.68348" lon="6.16357">
        <ele>232</ele>
        <time>2012-08-21T08:11:46.000Z</time>
      </trkpt>
      <trkpt lat="47.6835" lon="6.16357">
        <ele>232.39999389648</ele>
        <time>2012-08-21T08:11:47.000Z</time>
      </trkpt>
      <trkpt lat="47.68351" lon="6.16358">
        <ele>232.80000305176</ele>
        <time>2012-08-21T08:11:48.000Z</time>
      </trkpt>
      <trkpt lat="47.68354" lon="6.16358">
        <ele>233.19999694824</ele>
        <time>2012-08-21T08:11:49.000Z</time>
      </trkpt>
      <trkpt lat="47.68356" lon="6.16359">
        <ele>233.60000610352</ele>
        <time>2012-08-21T08:11:50.000Z</time>
      </trkpt>
      <trkpt lat="47.68359" lon="6.16358">
        <ele>234</ele>
        <time>2012-08-21T08:11:51.000Z</time>
      </trkpt>
      <trkpt lat="47.68362" lon="6.16357">
        <ele>234</ele>
        <time>2012-08-21T08:11:52.000Z</time>
      </trkpt>
      <trkpt lat="47.68374" lon="6.16361">
        <ele>234</ele>
        <time>2012-08-21T08:11:59.000Z</time>
      </trkpt>
      <trkpt lat="47.68385" lon="6.16367">
        <ele>234</ele>
        <time>2012-08-21T08:12:05.000Z</time>
      </trkpt>
      <trkpt lat="47.6839" lon="6.16371">
        <ele>234.80000305176</ele>
        <time>2012-08-21T08:12:08.000Z</time>
      </trkpt>
      <trkpt lat="47.68392" lon="6.16373">
        <ele>235.19999694824</ele>
        <time>2012-08-21T08:12:09.000Z</time>
      </trkpt>
      <trkpt lat="47.68394" lon="6.16374">
        <ele>235.60000610352</ele>
        <time>2012-08-21T08:12:10.000Z</time>
      </trkpt>
      <trkpt lat="47.68396" lon="6.16376">
        <ele>236</ele>
        <time>2012-08-21T08:12:11.000Z</time>
      </trkpt>
      <trkpt lat="47.684" lon="6.16379">
        <ele>236</ele>
        <time>2012-08-21T08:12:13.000Z</time>
      </trkpt>
      <trkpt lat="47.68417" lon="6.16393">
        <ele>236</ele>
        <time>2012-08-21T08:12:21.000Z</time>
      </trkpt>
      <trkpt lat="47.68434" lon="6.16409">
        <ele>236</ele>
        <time>2012-08-21T08:12:29.000Z</time>
      </trkpt>
      <trkpt lat="47.68445" lon="6.1642">
        <ele>236</ele>
        <time>2012-08-21T08:12:34.000Z</time>
      </trkpt>
      <trkpt lat="47.68463" lon="6.16442">
        <ele>236</ele>
        <time>2012-08-21T08:12:42.000Z</time>
      </trkpt>
      <trkpt lat="47.68477" lon="6.16464">
        <ele>236</ele>
        <time>2012-08-21T08:12:48.000Z</time>
      </trkpt>
      <trkpt lat="47.68488" lon="6.16484">
        <ele>236</ele>
        <time>2012-08-21T08:12:52.000Z</time>
      </trkpt>
      <trkpt lat="47.68495" lon="6.16491">
        <ele>236</ele>
        <time>2012-08-21T08:12:54.000Z</time>
      </trkpt>
      <trkpt lat="47.68512" lon="6.16497">
        <ele>236</ele>
        <time>2012-08-21T08:12:59.000Z</time>
      </trkpt>
      <trkpt lat="47.68535" lon="6.16502">
        <ele>236</ele>
        <time>2012-08-21T08:13:07.000Z</time>
      </trkpt>
      <trkpt lat="47.68547" lon="6.16505">
        <ele>236.39999389648</ele>
        <time>2012-08-21T08:13:12.000Z</time>
      </trkpt>
      <trkpt lat="47.6855" lon="6.16506">
        <ele>236.80000305176</ele>
        <time>2012-08-21T08:13:13.000Z</time>
      </trkpt>
      <trkpt lat="47.68553" lon="6.16506">
        <ele>237.19999694824</ele>
        <time>2012-08-21T08:13:14.000Z</time>
      </trkpt>
      <trkpt lat="47.68555" lon="6.16506">
        <ele>237.60000610352</ele>
        <time>2012-08-21T08:13:15.000Z</time>
      </trkpt>
      <trkpt lat="47.68558" lon="6.16506">
        <ele>238</ele>
        <time>2012-08-21T08:13:16.000Z</time>
      </trkpt>
      <trkpt lat="47.68581" lon="6.16507">
        <ele>238</ele>
        <time>2012-08-21T08:13:24.000Z</time>
      </trkpt>
      <trkpt lat="47.68605" lon="6.16505">
        <ele>238.60000610352</ele>
        <time>2012-08-21T08:13:32.000Z</time>
      </trkpt>
      <trkpt lat="47.68608" lon="6.16504">
        <ele>239</ele>
        <time>2012-08-21T08:13:33.000Z</time>
      </trkpt>
      <trkpt lat="47.6861" lon="6.16503">
        <ele>239.39999389648</ele>
        <time>2012-08-21T08:13:34.000Z</time>
      </trkpt>
      <trkpt lat="47.68613" lon="6.16502">
        <ele>239.80000305176</ele>
        <time>2012-08-21T08:13:35.000Z</time>
      </trkpt>
      <trkpt lat="47.68616" lon="6.16501">
        <ele>240.19999694824</ele>
        <time>2012-08-21T08:13:36.000Z</time>
      </trkpt>
      <trkpt lat="47.68628" lon="6.16494">
        <ele>240.19999694824</ele>
        <time>2012-08-21T08:13:41.000Z</time>
      </trkpt>
      <trkpt lat="47.68653" lon="6.16475">
        <ele>240.60000610352</ele>
        <time>2012-08-21T08:13:51.000Z</time>
      </trkpt>
      <trkpt lat="47.68655" lon="6.16473">
        <ele>241</ele>
        <time>2012-08-21T08:13:52.000Z</time>
      </trkpt>
      <trkpt lat="47.68657" lon="6.16471">
        <ele>241.39999389648</ele>
        <time>2012-08-21T08:13:53.000Z</time>
      </trkpt>
      <trkpt lat="47.68659" lon="6.16469">
        <ele>241.80000305176</ele>
        <time>2012-08-21T08:13:54.000Z</time>
      </trkpt>
      <trkpt lat="47.68661" lon="6.16467">
        <ele>242.19999694824</ele>
        <time>2012-08-21T08:13:55.000Z</time>
      </trkpt>
      <trkpt lat="47.68675" lon="6.16454">
        <ele>242.19999694824</ele>
        <time>2012-08-21T08:14:01.000Z</time>
      </trkpt>
      <trkpt lat="47.68694" lon="6.16442">
        <ele>242.60000610352</ele>
        <time>2012-08-21T08:14:09.000Z</time>
      </trkpt>
      <trkpt lat="47.68696" lon="6.16441">
        <ele>243</ele>
        <time>2012-08-21T08:14:10.000Z</time>
      </trkpt>
      <trkpt lat="47.68699" lon="6.1644">
        <ele>243.80000305176</ele>
        <time>2012-08-21T08:14:11.000Z</time>
      </trkpt>
      <trkpt lat="47.68702" lon="6.1644">
        <ele>244.19999694824</ele>
        <time>2012-08-21T08:14:12.000Z</time>
      </trkpt>
      <trkpt lat="47.68714" lon="6.16441">
        <ele>244.19999694824</ele>
        <time>2012-08-21T08:14:17.000Z</time>
      </trkpt>
      <trkpt lat="47.68739" lon="6.16452">
        <ele>244.19999694824</ele>
        <time>2012-08-21T08:14:26.000Z</time>
      </trkpt>
      <trkpt lat="47.68762" lon="6.16462">
        <ele>244.19999694824</ele>
        <time>2012-08-21T08:14:34.000Z</time>
      </trkpt>
      <trkpt lat="47.68786" lon="6.16472">
        <ele>244.19999694824</ele>
        <time>2012-08-21T08:14:42.000Z</time>
      </trkpt>
      <trkpt lat="47.68811" lon="6.16475">
        <ele>244.19999694824</ele>
        <time>2012-08-21T08:14:50.000Z</time>
      </trkpt>
      <trkpt lat="47.68827" lon="6.16467">
        <ele>244.19999694824</ele>
        <time>2012-08-21T08:14:56.000Z</time>
      </trkpt>
      <trkpt lat="47.68843" lon="6.16458">
        <ele>244.60000610352</ele>
        <time>2012-08-21T08:15:02.000Z</time>
      </trkpt>
      <trkpt lat="47.68845" lon="6.16457">
        <ele>245</ele>
        <time>2012-08-21T08:15:03.000Z</time>
      </trkpt>
      <trkpt lat="47.68847" lon="6.16455">
        <ele>245.39999389648</ele>
        <time>2012-08-21T08:15:04.000Z</time>
      </trkpt>
      <trkpt lat="47.6885" lon="6.16454">
        <ele>245.80000305176</ele>
        <time>2012-08-21T08:15:05.000Z</time>
      </trkpt>
      <trkpt lat="47.68852" lon="6.16452">
        <ele>246.19999694824</ele>
        <time>2012-08-21T08:15:06.000Z</time>
      </trkpt>
      <trkpt lat="47.68863" lon="6.16445">
        <ele>246.19999694824</ele>
        <time>2012-08-21T08:15:11.000Z</time>
      </trkpt>
      <trkpt lat="47.68878" lon="6.16436">
        <ele>246.19999694824</ele>
        <time>2012-08-21T08:15:18.000Z</time>
      </trkpt>
      <trkpt lat="47.68888" lon="6.16431">
        <ele>246.60000610352</ele>
        <time>2012-08-21T08:15:23.000Z</time>
      </trkpt>
      <trkpt lat="47.6889" lon="6.16429">
        <ele>247</ele>
        <time>2012-08-21T08:15:24.000Z</time>
      </trkpt>
      <trkpt lat="47.68891" lon="6.16428">
        <ele>247.60000610352</ele>
        <time>2012-08-21T08:15:25.000Z</time>
      </trkpt>
      <trkpt lat="47.68893" lon="6.16427">
        <ele>248.39999389648</ele>
        <time>2012-08-21T08:15:26.000Z</time>
      </trkpt>
      <trkpt lat="47.68907" lon="6.1642">
        <ele>248.39999389648</ele>
        <time>2012-08-21T08:15:33.000Z</time>
      </trkpt>
      <trkpt lat="47.68921" lon="6.16413">
        <ele>248.80000305176</ele>
        <time>2012-08-21T08:15:40.000Z</time>
      </trkpt>
      <trkpt lat="47.68923" lon="6.16412">
        <ele>249.19999694824</ele>
        <time>2012-08-21T08:15:41.000Z</time>
      </trkpt>
      <trkpt lat="47.68925" lon="6.16411">
        <ele>249.60000610352</ele>
        <time>2012-08-21T08:15:42.000Z</time>
      </trkpt>
      <trkpt lat="47.68927" lon="6.1641">
        <ele>250</ele>
        <time>2012-08-21T08:15:43.000Z</time>
      </trkpt>
      <trkpt lat="47.68928" lon="6.16409">
        <ele>250.39999389648</ele>
        <time>2012-08-21T08:15:44.000Z</time>
      </trkpt>
      <trkpt lat="47.6894" lon="6.16402">
        <ele>250.39999389648</ele>
        <time>2012-08-21T08:15:50.000Z</time>
      </trkpt>
      <trkpt lat="47.6896" lon="6.16399">
        <ele>250.39999389648</ele>
        <time>2012-08-21T08:15:59.000Z</time>
      </trkpt>
      <trkpt lat="47.68965" lon="6.16399">
        <ele>250.80000305176</ele>
        <time>2012-08-21T08:16:01.000Z</time>
      </trkpt>
      <trkpt lat="47.68967" lon="6.16399">
        <ele>251.19999694824</ele>
        <time>2012-08-21T08:16:02.000Z</time>
      </trkpt>
      <trkpt lat="47.68969" lon="6.16399">
        <ele>251.60000610352</ele>
        <time>2012-08-21T08:16:03.000Z</time>
      </trkpt>
      <trkpt lat="47.68971" lon="6.16398">
        <ele>252</ele>
        <time>2012-08-21T08:16:04.000Z</time>
      </trkpt>
      <trkpt lat="47.68973" lon="6.16399">
        <ele>252.60000610352</ele>
        <time>2012-08-21T08:16:05.000Z</time>
      </trkpt>
      <trkpt lat="47.6898" lon="6.164">
        <ele>252.60000610352</ele>
        <time>2012-08-21T08:16:08.000Z</time>
      </trkpt>
      <trkpt lat="47.69001" lon="6.16401">
        <ele>252.60000610352</ele>
        <time>2012-08-21T08:16:17.000Z</time>
      </trkpt>
      <trkpt lat="47.69022" lon="6.16404">
        <ele>252.60000610352</ele>
        <time>2012-08-21T08:16:25.000Z</time>
      </trkpt>
      <trkpt lat="47.69044" lon="6.16403">
        <ele>252.60000610352</ele>
        <time>2012-08-21T08:16:31.000Z</time>
      </trkpt>
      <trkpt lat="47.69053" lon="6.16402">
        <ele>252.60000610352</ele>
        <time>2012-08-21T08:16:33.000Z</time>
      </trkpt>
      <trkpt lat="47.69071" lon="6.16406">
        <ele>252.60000610352</ele>
        <time>2012-08-21T08:16:36.000Z</time>
      </trkpt>
      <trkpt lat="47.69108" lon="6.16413">
        <ele>252</ele>
        <time>2012-08-21T08:16:41.000Z</time>
      </trkpt>
      <trkpt lat="47.69116" lon="6.16413">
        <ele>251.60000610352</ele>
        <time>2012-08-21T08:16:42.000Z</time>
      </trkpt>
      <trkpt lat="47.69125" lon="6.16414">
        <ele>251.19999694824</ele>
        <time>2012-08-21T08:16:43.000Z</time>
      </trkpt>
      <trkpt lat="47.69133" lon="6.16415">
        <ele>250.80000305176</ele>
        <time>2012-08-21T08:16:44.000Z</time>
      </trkpt>
      <trkpt lat="47.69142" lon="6.16416">
        <ele>250.19999694824</ele>
        <time>2012-08-21T08:16:45.000Z</time>
      </trkpt>
      <trkpt lat="47.69159" lon="6.16418">
        <ele>249.80000305176</ele>
        <time>2012-08-21T08:16:47.000Z</time>
      </trkpt>
      <trkpt lat="47.69167" lon="6.16419">
        <ele>249.39999389648</ele>
        <time>2012-08-21T08:16:48.000Z</time>
      </trkpt>
      <trkpt lat="47.69175" lon="6.16419">
        <ele>249</ele>
        <time>2012-08-21T08:16:49.000Z</time>
      </trkpt>
      <trkpt lat="47.69183" lon="6.16417">
        <ele>248.60000610352</ele>
        <time>2012-08-21T08:16:50.000Z</time>
      </trkpt>
      <trkpt lat="47.6919" lon="6.16415">
        <ele>248.19999694824</ele>
        <time>2012-08-21T08:16:51.000Z</time>
      </trkpt>
      <trkpt lat="47.69211" lon="6.16409">
        <ele>248.19999694824</ele>
        <time>2012-08-21T08:16:54.000Z</time>
      </trkpt>
      <trkpt lat="47.69239" lon="6.16401">
        <ele>248.19999694824</ele>
        <time>2012-08-21T08:16:59.000Z</time>
      </trkpt>
      <trkpt lat="47.69272" lon="6.16385">
        <ele>248.19999694824</ele>
        <time>2012-08-21T08:17:05.000Z</time>
      </trkpt>
      <trkpt lat="47.69302" lon="6.16364">
        <ele>248.19999694824</ele>
        <time>2012-08-21T08:17:11.000Z</time>
      </trkpt>
      <trkpt lat="47.69332" lon="6.16342">
        <ele>248.19999694824</ele>
        <time>2012-08-21T08:17:17.000Z</time>
      </trkpt>
      <trkpt lat="47.69337" lon="6.16338">
        <ele>248.19999694824</ele>
        <time>2012-08-21T08:17:18.000Z</time>
      </trkpt>
      <trkpt lat="47.69357" lon="6.16321">
        <ele>248.19999694824</ele>
        <time>2012-08-21T08:17:23.000Z</time>
      </trkpt>
      <trkpt lat="47.69373" lon="6.16308">
        <ele>248.19999694824</ele>
        <time>2012-08-21T08:17:29.000Z</time>
      </trkpt>
      <trkpt lat="47.69388" lon="6.16299">
        <ele>248.60000610352</ele>
        <time>2012-08-21T08:17:35.000Z</time>
      </trkpt>
      <trkpt lat="47.6939" lon="6.16298">
        <ele>249</ele>
        <time>2012-08-21T08:17:36.000Z</time>
      </trkpt>
      <trkpt lat="47.69393" lon="6.16297">
        <ele>249.39999389648</ele>
        <time>2012-08-21T08:17:37.000Z</time>
      </trkpt>
      <trkpt lat="47.69396" lon="6.16295">
        <ele>249.80000305176</ele>
        <time>2012-08-21T08:17:38.000Z</time>
      </trkpt>
      <trkpt lat="47.69399" lon="6.16295">
        <ele>250.19999694824</ele>
        <time>2012-08-21T08:17:39.000Z</time>
      </trkpt>
      <trkpt lat="47.69404" lon="6.16295">
        <ele>250.19999694824</ele>
        <time>2012-08-21T08:17:41.000Z</time>
      </trkpt>
      <trkpt lat="47.69407" lon="6.16295">
        <ele>250.60000610352</ele>
        <time>2012-08-21T08:17:42.000Z</time>
      </trkpt>
      <trkpt lat="47.69409" lon="6.16295">
        <ele>251</ele>
        <time>2012-08-21T08:17:43.000Z</time>
      </trkpt>
      <trkpt lat="47.69412" lon="6.16295">
        <ele>251.39999389648</ele>
        <time>2012-08-21T08:17:44.000Z</time>
      </trkpt>
      <trkpt lat="47.69414" lon="6.16295">
        <ele>251.80000305176</ele>
        <time>2012-08-21T08:17:45.000Z</time>
      </trkpt>
      <trkpt lat="47.69417" lon="6.16295">
        <ele>252.19999694824</ele>
        <time>2012-08-21T08:17:46.000Z</time>
      </trkpt>
      <trkpt lat="47.69421" lon="6.16298">
        <ele>252.19999694824</ele>
        <time>2012-08-21T08:17:48.000Z</time>
      </trkpt>
      <trkpt lat="47.69425" lon="6.16302">
        <ele>252.19999694824</ele>
        <time>2012-08-21T08:17:50.000Z</time>
      </trkpt>
      <trkpt lat="47.6944" lon="6.16313">
        <ele>252.19999694824</ele>
        <time>2012-08-21T08:17:57.000Z</time>
      </trkpt>
      <trkpt lat="47.69457" lon="6.16314">
        <ele>252.19999694824</ele>
        <time>2012-08-21T08:18:03.000Z</time>
      </trkpt>
      <trkpt lat="47.69477" lon="6.16301">
        <ele>252.19999694824</ele>
        <time>2012-08-21T08:18:10.000Z</time>
      </trkpt>
      <trkpt lat="47.69494" lon="6.16281">
        <ele>252.19999694824</ele>
        <time>2012-08-21T08:18:17.000Z</time>
      </trkpt>
      <trkpt lat="47.69497" lon="6.16279">
        <ele>252.60000610352</ele>
        <time>2012-08-21T08:18:18.000Z</time>
      </trkpt>
      <trkpt lat="47.69499" lon="6.16276">
        <ele>253.60000610352</ele>
        <time>2012-08-21T08:18:19.000Z</time>
      </trkpt>
      <trkpt lat="47.69502" lon="6.16273">
        <ele>254</ele>
        <time>2012-08-21T08:18:20.000Z</time>
      </trkpt>
      <trkpt lat="47.69504" lon="6.1627">
        <ele>254.39999389648</ele>
        <time>2012-08-21T08:18:21.000Z</time>
      </trkpt>
      <trkpt lat="47.69512" lon="6.1626">
        <ele>254.39999389648</ele>
        <time>2012-08-21T08:18:25.000Z</time>
      </trkpt>
      <trkpt lat="47.6953" lon="6.16241">
        <ele>254.39999389648</ele>
        <time>2012-08-21T08:18:33.000Z</time>
      </trkpt>
      <trkpt lat="47.69548" lon="6.16222">
        <ele>254.39999389648</ele>
        <time>2012-08-21T08:18:42.000Z</time>
      </trkpt>
      <trkpt lat="47.69549" lon="6.1622">
        <ele>254.80000305176</ele>
        <time>2012-08-21T08:18:43.000Z</time>
      </trkpt>
      <trkpt lat="47.69551" lon="6.16217">
        <ele>255.19999694824</ele>
        <time>2012-08-21T08:18:44.000Z</time>
      </trkpt>
      <trkpt lat="47.69553" lon="6.16215">
        <ele>255.60000610352</ele>
        <time>2012-08-21T08:18:45.000Z</time>
      </trkpt>
      <trkpt lat="47.69555" lon="6.16213">
        <ele>256</ele>
        <time>2012-08-21T08:18:46.000Z</time>
      </trkpt>
      <trkpt lat="47.69557" lon="6.16211">
        <ele>256.39999389648</ele>
        <time>2012-08-21T08:18:47.000Z</time>
      </trkpt>
      <trkpt lat="47.69562" lon="6.16205">
        <ele>256.39999389648</ele>
        <time>2012-08-21T08:18:50.000Z</time>
      </trkpt>
      <trkpt lat="47.69576" lon="6.16191">
        <ele>256.39999389648</ele>
        <time>2012-08-21T08:18:57.000Z</time>
      </trkpt>
      <trkpt lat="47.69586" lon="6.16182">
        <ele>256.79998779297</ele>
        <time>2012-08-21T08:19:02.000Z</time>
      </trkpt>
      <trkpt lat="47.69588" lon="6.16181">
        <ele>257.20001220703</ele>
        <time>2012-08-21T08:19:03.000Z</time>
      </trkpt>
      <trkpt lat="47.6959" lon="6.16179">
        <ele>257.60000610352</ele>
        <time>2012-08-21T08:19:04.000Z</time>
      </trkpt>
      <trkpt lat="47.69592" lon="6.16177">
        <ele>258</ele>
        <time>2012-08-21T08:19:05.000Z</time>
      </trkpt>
      <trkpt lat="47.69594" lon="6.16175">
        <ele>258.39999389648</ele>
        <time>2012-08-21T08:19:06.000Z</time>
      </trkpt>
      <trkpt lat="47.69608" lon="6.16167">
        <ele>258.39999389648</ele>
        <time>2012-08-21T08:19:13.000Z</time>
      </trkpt>
      <trkpt lat="47.69623" lon="6.16156">
        <ele>258.39999389648</ele>
        <time>2012-08-21T08:19:21.000Z</time>
      </trkpt>
      <trkpt lat="47.69641" lon="6.16143">
        <ele>258.39999389648</ele>
        <time>2012-08-21T08:19:28.000Z</time>
      </trkpt>
      <trkpt lat="47.69661" lon="6.16128">
        <ele>258.39999389648</ele>
        <time>2012-08-21T08:19:34.000Z</time>
      </trkpt>
      <trkpt lat="47.69689" lon="6.16102">
        <ele>258.39999389648</ele>
        <time>2012-08-21T08:19:41.000Z</time>
      </trkpt>
      <trkpt lat="47.69707" lon="6.16083">
        <ele>258.39999389648</ele>
        <time>2012-08-21T08:19:46.000Z</time>
      </trkpt>
      <trkpt lat="47.69716" lon="6.16072">
        <ele>258.39999389648</ele>
        <time>2012-08-21T08:19:49.000Z</time>
      </trkpt>
      <trkpt lat="47.69743" lon="6.16043">
        <ele>258.39999389648</ele>
        <time>2012-08-21T08:19:57.000Z</time>
      </trkpt>
      <trkpt lat="47.6975" lon="6.16038">
        <ele>258.39999389648</ele>
        <time>2012-08-21T08:19:59.000Z</time>
      </trkpt>
      <trkpt lat="47.69763" lon="6.16036">
        <ele>258.39999389648</ele>
        <time>2012-08-21T08:20:02.000Z</time>
      </trkpt>
      <trkpt lat="47.69778" lon="6.16043">
        <ele>258.39999389648</ele>
        <time>2012-08-21T08:20:06.000Z</time>
      </trkpt>
      <trkpt lat="47.69799" lon="6.16061">
        <ele>258.39999389648</ele>
        <time>2012-08-21T08:20:13.000Z</time>
      </trkpt>
      <trkpt lat="47.69815" lon="6.16075">
        <ele>258.39999389648</ele>
        <time>2012-08-21T08:20:19.000Z</time>
      </trkpt>
      <trkpt lat="47.69835" lon="6.16094">
        <ele>258.39999389648</ele>
        <time>2012-08-21T08:20:27.000Z</time>
      </trkpt>
      <trkpt lat="47.69853" lon="6.16115">
        <ele>258.39999389648</ele>
        <time>2012-08-21T08:20:35.000Z</time>
      </trkpt>
      <trkpt lat="47.69855" lon="6.16117">
        <ele>258.79998779297</ele>
        <time>2012-08-21T08:20:36.000Z</time>
      </trkpt>
      <trkpt lat="47.69857" lon="6.1612">
        <ele>259.20001220703</ele>
        <time>2012-08-21T08:20:37.000Z</time>
      </trkpt>
      <trkpt lat="47.69859" lon="6.16123">
        <ele>259.60000610352</ele>
        <time>2012-08-21T08:20:38.000Z</time>
      </trkpt>
      <trkpt lat="47.69861" lon="6.16126">
        <ele>260</ele>
        <time>2012-08-21T08:20:39.000Z</time>
      </trkpt>
      <trkpt lat="47.69862" lon="6.1613">
        <ele>260.39999389648</ele>
        <time>2012-08-21T08:20:40.000Z</time>
      </trkpt>
      <trkpt lat="47.69868" lon="6.16139">
        <ele>260.39999389648</ele>
        <time>2012-08-21T08:20:43.000Z</time>
      </trkpt>
      <trkpt lat="47.69885" lon="6.16167">
        <ele>260.39999389648</ele>
        <time>2012-08-21T08:20:52.000Z</time>
      </trkpt>
      <trkpt lat="47.69896" lon="6.16188">
        <ele>261</ele>
        <time>2012-08-21T08:20:58.000Z</time>
      </trkpt>
      <trkpt lat="47.69898" lon="6.16191">
        <ele>261.39999389648</ele>
        <time>2012-08-21T08:20:59.000Z</time>
      </trkpt>
      <trkpt lat="47.699" lon="6.16195">
        <ele>261.79998779297</ele>
        <time>2012-08-21T08:21:00.000Z</time>
      </trkpt>
      <trkpt lat="47.69902" lon="6.16198">
        <ele>262.20001220703</ele>
        <time>2012-08-21T08:21:01.000Z</time>
      </trkpt>
      <trkpt lat="47.69904" lon="6.16201">
        <ele>262.60000610352</ele>
        <time>2012-08-21T08:21:02.000Z</time>
      </trkpt>
      <trkpt lat="47.69914" lon="6.16222">
        <ele>262.60000610352</ele>
        <time>2012-08-21T08:21:09.000Z</time>
      </trkpt>
      <trkpt lat="47.69923" lon="6.1624">
        <ele>262.60000610352</ele>
        <time>2012-08-21T08:21:15.000Z</time>
      </trkpt>
      <trkpt lat="47.69927" lon="6.1625">
        <ele>262.60000610352</ele>
        <time>2012-08-21T08:21:18.000Z</time>
      </trkpt>
      <trkpt lat="47.69936" lon="6.16276">
        <ele>262.60000610352</ele>
        <time>2012-08-21T08:21:25.000Z</time>
      </trkpt>
      <trkpt lat="47.69948" lon="6.16298">
        <ele>263</ele>
        <time>2012-08-21T08:21:30.000Z</time>
      </trkpt>
      <trkpt lat="47.69951" lon="6.16301">
        <ele>263.39999389648</ele>
        <time>2012-08-21T08:21:31.000Z</time>
      </trkpt>
      <trkpt lat="47.69954" lon="6.16304">
        <ele>263.79998779297</ele>
        <time>2012-08-21T08:21:32.000Z</time>
      </trkpt>
      <trkpt lat="47.69957" lon="6.16306">
        <ele>264.20001220703</ele>
        <time>2012-08-21T08:21:33.000Z</time>
      </trkpt>
      <trkpt lat="47.6996" lon="6.16308">
        <ele>264.60000610352</ele>
        <time>2012-08-21T08:21:34.000Z</time>
      </trkpt>
      <trkpt lat="47.69963" lon="6.16309">
        <ele>264.60000610352</ele>
        <time>2012-08-21T08:21:35.000Z</time>
      </trkpt>
      <trkpt lat="47.69974" lon="6.16309">
        <ele>264.60000610352</ele>
        <time>2012-08-21T08:21:40.000Z</time>
      </trkpt>
      <trkpt lat="47.69976" lon="6.16309">
        <ele>264.60000610352</ele>
        <time>2012-08-21T08:21:41.000Z</time>
      </trkpt>
      <trkpt lat="47.69983" lon="6.16308">
        <ele>264.60000610352</ele>
        <time>2012-08-21T08:21:45.000Z</time>
      </trkpt>
      <trkpt lat="47.69999" lon="6.16305">
        <ele>264.60000610352</ele>
        <time>2012-08-21T08:21:53.000Z</time>
      </trkpt>
      <trkpt lat="47.70017" lon="6.16302">
        <ele>265.39999389648</ele>
        <time>2012-08-21T08:22:01.000Z</time>
      </trkpt>
      <trkpt lat="47.70018" lon="6.16302">
        <ele>265.79998779297</ele>
        <time>2012-08-21T08:22:02.000Z</time>
      </trkpt>
      <trkpt lat="47.7002" lon="6.16302">
        <ele>266.39999389648</ele>
        <time>2012-08-21T08:22:03.000Z</time>
      </trkpt>
      <trkpt lat="47.70022" lon="6.16302">
        <ele>266.79998779297</ele>
        <time>2012-08-21T08:22:04.000Z</time>
      </trkpt>
      <trkpt lat="47.70032" lon="6.163">
        <ele>266.79998779297</ele>
        <time>2012-08-21T08:22:09.000Z</time>
      </trkpt>
      <trkpt lat="47.70054" lon="6.16298">
        <ele>266.79998779297</ele>
        <time>2012-08-21T08:22:18.000Z</time>
      </trkpt>
      <trkpt lat="47.70056" lon="6.16298">
        <ele>267.20001220703</ele>
        <time>2012-08-21T08:22:19.000Z</time>
      </trkpt>
      <trkpt lat="47.70058" lon="6.16298">
        <ele>267.60000610352</ele>
        <time>2012-08-21T08:22:20.000Z</time>
      </trkpt>
      <trkpt lat="47.70061" lon="6.16297">
        <ele>268</ele>
        <time>2012-08-21T08:22:21.000Z</time>
      </trkpt>
      <trkpt lat="47.70064" lon="6.16297">
        <ele>268.39999389648</ele>
        <time>2012-08-21T08:22:22.000Z</time>
      </trkpt>
      <trkpt lat="47.70066" lon="6.16297">
        <ele>268.79998779297</ele>
        <time>2012-08-21T08:22:23.000Z</time>
      </trkpt>
      <trkpt lat="47.70077" lon="6.16296">
        <ele>268.79998779297</ele>
        <time>2012-08-21T08:22:27.000Z</time>
      </trkpt>
      <trkpt lat="47.70095" lon="6.16292">
        <ele>268.79998779297</ele>
        <time>2012-08-21T08:22:35.000Z</time>
      </trkpt>
      <trkpt lat="47.70112" lon="6.16289">
        <ele>268.79998779297</ele>
        <time>2012-08-21T08:22:42.000Z</time>
      </trkpt>
      <trkpt lat="47.70121" lon="6.16288">
        <ele>269.20001220703</ele>
        <time>2012-08-21T08:22:47.000Z</time>
      </trkpt>
      <trkpt lat="47.70123" lon="6.16287">
        <ele>269.60000610352</ele>
        <time>2012-08-21T08:22:48.000Z</time>
      </trkpt>
      <trkpt lat="47.70125" lon="6.16286">
        <ele>270</ele>
        <time>2012-08-21T08:22:49.000Z</time>
      </trkpt>
      <trkpt lat="47.70126" lon="6.16286">
        <ele>270.39999389648</ele>
        <time>2012-08-21T08:22:50.000Z</time>
      </trkpt>
      <trkpt lat="47.70128" lon="6.16285">
        <ele>270.79998779297</ele>
        <time>2012-08-21T08:22:51.000Z</time>
      </trkpt>
      <trkpt lat="47.70136" lon="6.16283">
        <ele>270.79998779297</ele>
        <time>2012-08-21T08:22:56.000Z</time>
      </trkpt>
      <trkpt lat="47.70149" lon="6.1628">
        <ele>270.79998779297</ele>
        <time>2012-08-21T08:23:03.000Z</time>
      </trkpt>
      <trkpt lat="47.7016" lon="6.16279">
        <ele>270.79998779297</ele>
        <time>2012-08-21T08:23:09.000Z</time>
      </trkpt>
      <trkpt lat="47.70177" lon="6.16278">
        <ele>270.79998779297</ele>
        <time>2012-08-21T08:23:17.000Z</time>
      </trkpt>
      <trkpt lat="47.70195" lon="6.16275">
        <ele>271.20001220703</ele>
        <time>2012-08-21T08:23:25.000Z</time>
      </trkpt>
      <trkpt lat="47.70197" lon="6.16274">
        <ele>271.60000610352</ele>
        <time>2012-08-21T08:23:26.000Z</time>
      </trkpt>
      <trkpt lat="47.70199" lon="6.16274">
        <ele>272</ele>
        <time>2012-08-21T08:23:27.000Z</time>
      </trkpt>
      <trkpt lat="47.70202" lon="6.16273">
        <ele>272.39999389648</ele>
        <time>2012-08-21T08:23:28.000Z</time>
      </trkpt>
      <trkpt lat="47.70204" lon="6.16273">
        <ele>272.79998779297</ele>
        <time>2012-08-21T08:23:29.000Z</time>
      </trkpt>
      <trkpt lat="47.70215" lon="6.16271">
        <ele>272.79998779297</ele>
        <time>2012-08-21T08:23:34.000Z</time>
      </trkpt>
      <trkpt lat="47.70228" lon="6.1627">
        <ele>272.79998779297</ele>
        <time>2012-08-21T08:23:40.000Z</time>
      </trkpt>
      <trkpt lat="47.70244" lon="6.16268">
        <ele>272.79998779297</ele>
        <time>2012-08-21T08:23:48.000Z</time>
      </trkpt>
      <trkpt lat="47.70251" lon="6.16266">
        <ele>272.79998779297</ele>
        <time>2012-08-21T08:23:54.000Z</time>
      </trkpt>
      <trkpt lat="47.70257" lon="6.16268">
        <ele>272.79998779297</ele>
        <time>2012-08-21T08:28:20.000Z</time>
      </trkpt>
      <trkpt lat="47.7027" lon="6.16267">
        <ele>272.79998779297</ele>
        <time>2012-08-21T08:28:27.000Z</time>
      </trkpt>
      <trkpt lat="47.70273" lon="6.16267">
        <ele>273.20001220703</ele>
        <time>2012-08-21T08:28:28.000Z</time>
      </trkpt>
      <trkpt lat="47.70275" lon="6.16267">
        <ele>273.60000610352</ele>
        <time>2012-08-21T08:28:29.000Z</time>
      </trkpt>
      <trkpt lat="47.70277" lon="6.16267">
        <ele>274</ele>
        <time>2012-08-21T08:28:30.000Z</time>
      </trkpt>
      <trkpt lat="47.70279" lon="6.16267">
        <ele>274.39999389648</ele>
        <time>2012-08-21T08:28:31.000Z</time>
      </trkpt>
      <trkpt lat="47.70281" lon="6.16267">
        <ele>274.79998779297</ele>
        <time>2012-08-21T08:28:32.000Z</time>
      </trkpt>
      <trkpt lat="47.70285" lon="6.16267">
        <ele>274.79998779297</ele>
        <time>2012-08-21T08:28:34.000Z</time>
      </trkpt>
      <trkpt lat="47.70301" lon="6.16263">
        <ele>274.79998779297</ele>
        <time>2012-08-21T08:28:41.000Z</time>
      </trkpt>
      <trkpt lat="47.70318" lon="6.1626">
        <ele>274.79998779297</ele>
        <time>2012-08-21T08:28:48.000Z</time>
      </trkpt>
      <trkpt lat="47.70334" lon="6.16257">
        <ele>274.79998779297</ele>
        <time>2012-08-21T08:28:54.000Z</time>
      </trkpt>
      <trkpt lat="47.70336" lon="6.16256">
        <ele>275.20001220703</ele>
        <time>2012-08-21T08:28:55.000Z</time>
      </trkpt>
      <trkpt lat="47.70339" lon="6.16256">
        <ele>275.60000610352</ele>
        <time>2012-08-21T08:28:56.000Z</time>
      </trkpt>
      <trkpt lat="47.70341" lon="6.16255">
        <ele>276</ele>
        <time>2012-08-21T08:28:57.000Z</time>
      </trkpt>
      <trkpt lat="47.70344" lon="6.16254">
        <ele>276.39999389648</ele>
        <time>2012-08-21T08:28:58.000Z</time>
      </trkpt>
      <trkpt lat="47.70346" lon="6.16253">
        <ele>276.79998779297</ele>
        <time>2012-08-21T08:28:59.000Z</time>
      </trkpt>
      <trkpt lat="47.70362" lon="6.16251">
        <ele>276.79998779297</ele>
        <time>2012-08-21T08:29:05.000Z</time>
      </trkpt>
      <trkpt lat="47.70376" lon="6.1625">
        <ele>276.79998779297</ele>
        <time>2012-08-21T08:29:10.000Z</time>
      </trkpt>
      <trkpt lat="47.70387" lon="6.16249">
        <ele>276.79998779297</ele>
        <time>2012-08-21T08:29:15.000Z</time>
      </trkpt>
      <trkpt lat="47.70405" lon="6.16248">
        <ele>276.79998779297</ele>
        <time>2012-08-21T08:29:21.000Z</time>
      </trkpt>
      <trkpt lat="47.70429" lon="6.16244">
        <ele>276.79998779297</ele>
        <time>2012-08-21T08:29:28.000Z</time>
      </trkpt>
      <trkpt lat="47.7045" lon="6.1624">
        <ele>276.79998779297</ele>
        <time>2012-08-21T08:29:35.000Z</time>
      </trkpt>
      <trkpt lat="47.70466" lon="6.16239">
        <ele>276.79998779297</ele>
        <time>2012-08-21T08:29:41.000Z</time>
      </trkpt>
      <trkpt lat="47.7047" lon="6.16239">
        <ele>277.20001220703</ele>
        <time>2012-08-21T08:29:43.000Z</time>
      </trkpt>
      <trkpt lat="47.70472" lon="6.16239">
        <ele>277.60000610352</ele>
        <time>2012-08-21T08:29:44.000Z</time>
      </trkpt>
      <trkpt lat="47.70475" lon="6.16239">
        <ele>278</ele>
        <time>2012-08-21T08:29:45.000Z</time>
      </trkpt>
      <trkpt lat="47.70477" lon="6.16238">
        <ele>278.39999389648</ele>
        <time>2012-08-21T08:29:46.000Z</time>
      </trkpt>
      <trkpt lat="47.7048" lon="6.16238">
        <ele>278.79998779297</ele>
        <time>2012-08-21T08:29:47.000Z</time>
      </trkpt>
      <trkpt lat="47.70494" lon="6.16235">
        <ele>278.79998779297</ele>
        <time>2012-08-21T08:29:52.000Z</time>
      </trkpt>
      <trkpt lat="47.70513" lon="6.16232">
        <ele>278.79998779297</ele>
        <time>2012-08-21T08:29:59.000Z</time>
      </trkpt>
      <trkpt lat="47.70533" lon="6.16228">
        <ele>278.79998779297</ele>
        <time>2012-08-21T08:30:07.000Z</time>
      </trkpt>
      <trkpt lat="47.70554" lon="6.16228">
        <ele>278.79998779297</ele>
        <time>2012-08-21T08:30:15.000Z</time>
      </trkpt>
      <trkpt lat="47.70557" lon="6.16227">
        <ele>279.20001220703</ele>
        <time>2012-08-21T08:30:16.000Z</time>
      </trkpt>
      <trkpt lat="47.7056" lon="6.16226">
        <ele>279.60000610352</ele>
        <time>2012-08-21T08:30:17.000Z</time>
      </trkpt>
      <trkpt lat="47.70562" lon="6.16225">
        <ele>280</ele>
        <time>2012-08-21T08:30:18.000Z</time>
      </trkpt>
      <trkpt lat="47.70565" lon="6.16224">
        <ele>280.39999389648</ele>
        <time>2012-08-21T08:30:19.000Z</time>
      </trkpt>
      <trkpt lat="47.70568" lon="6.16224">
        <ele>280.79998779297</ele>
        <time>2012-08-21T08:30:20.000Z</time>
      </trkpt>
      <trkpt lat="47.70573" lon="6.16223">
        <ele>280.79998779297</ele>
        <time>2012-08-21T08:30:22.000Z</time>
      </trkpt>
      <trkpt lat="47.70589" lon="6.16221">
        <ele>280.79998779297</ele>
        <time>2012-08-21T08:30:29.000Z</time>
      </trkpt>
      <trkpt lat="47.70607" lon="6.16219">
        <ele>280.79998779297</ele>
        <time>2012-08-21T08:30:37.000Z</time>
      </trkpt>
      <trkpt lat="47.70614" lon="6.16218">
        <ele>281.79998779297</ele>
        <time>2012-08-21T08:30:40.000Z</time>
      </trkpt>
      <trkpt lat="47.70616" lon="6.16217">
        <ele>282.20001220703</ele>
        <time>2012-08-21T08:30:41.000Z</time>
      </trkpt>
      <trkpt lat="47.70618" lon="6.16218">
        <ele>282.60000610352</ele>
        <time>2012-08-21T08:30:42.000Z</time>
      </trkpt>
      <trkpt lat="47.7062" lon="6.16218">
        <ele>283</ele>
        <time>2012-08-21T08:30:43.000Z</time>
      </trkpt>
      <trkpt lat="47.70621" lon="6.16217">
        <ele>283</ele>
        <time>2012-08-21T08:30:44.000Z</time>
      </trkpt>
      <trkpt lat="47.70628" lon="6.16218">
        <ele>283</ele>
        <time>2012-08-21T08:30:48.000Z</time>
      </trkpt>
      <trkpt lat="47.70631" lon="6.16222">
        <ele>283</ele>
        <time>2012-08-21T08:30:50.000Z</time>
      </trkpt>
      <trkpt lat="47.70632" lon="6.1624">
        <ele>283</ele>
        <time>2012-08-21T08:30:55.000Z</time>
      </trkpt>
      <trkpt lat="47.70632" lon="6.16258">
        <ele>283</ele>
        <time>2012-08-21T08:31:01.000Z</time>
      </trkpt>
      <trkpt lat="47.70632" lon="6.16269">
        <ele>283</ele>
        <time>2012-08-21T08:31:06.000Z</time>
      </trkpt>
      <trkpt lat="47.70636" lon="6.16283">
        <ele>283</ele>
        <time>2012-08-21T08:31:12.000Z</time>
      </trkpt>
      <trkpt lat="47.70637" lon="6.16292">
        <ele>283</ele>
        <time>2012-08-21T08:31:17.000Z</time>
      </trkpt>
      <trkpt lat="47.70636" lon="6.16307">
        <ele>283</ele>
        <time>2012-08-21T08:31:24.000Z</time>
      </trkpt>
      <trkpt lat="47.70637" lon="6.16317">
        <ele>283</ele>
        <time>2012-08-21T08:31:29.000Z</time>
      </trkpt>
      <trkpt lat="47.7064" lon="6.16336">
        <ele>283</ele>
        <time>2012-08-21T08:31:36.000Z</time>
      </trkpt>
      <trkpt lat="47.7064" lon="6.16344">
        <ele>283</ele>
        <time>2012-08-21T08:31:41.000Z</time>
      </trkpt>
      <trkpt lat="47.7064" lon="6.16345">
        <ele>283.39999389648</ele>
        <time>2012-08-21T08:31:42.000Z</time>
      </trkpt>
      <trkpt lat="47.70641" lon="6.16347">
        <ele>283.79998779297</ele>
        <time>2012-08-21T08:31:43.000Z</time>
      </trkpt>
      <trkpt lat="47.70641" lon="6.16349">
        <ele>284.20001220703</ele>
        <time>2012-08-21T08:31:44.000Z</time>
      </trkpt>
      <trkpt lat="47.7064" lon="6.16351">
        <ele>284.60000610352</ele>
        <time>2012-08-21T08:31:45.000Z</time>
      </trkpt>
      <trkpt lat="47.7064" lon="6.16353">
        <ele>285</ele>
        <time>2012-08-21T08:31:46.000Z</time>
      </trkpt>
      <trkpt lat="47.7064" lon="6.16359">
        <ele>285</ele>
        <time>2012-08-21T08:31:49.000Z</time>
      </trkpt>
      <trkpt lat="47.70642" lon="6.16368">
        <ele>285</ele>
        <time>2012-08-21T08:31:54.000Z</time>
      </trkpt>
      <trkpt lat="47.70643" lon="6.16372">
        <ele>285</ele>
        <time>2012-08-21T08:31:56.000Z</time>
      </trkpt>
      <trkpt lat="47.70645" lon="6.16386">
        <ele>285</ele>
        <time>2012-08-21T08:32:03.000Z</time>
      </trkpt>
      <trkpt lat="47.70645" lon="6.16396">
        <ele>285.39999389648</ele>
        <time>2012-08-21T08:32:07.000Z</time>
      </trkpt>
      <trkpt lat="47.70645" lon="6.16399">
        <ele>285.79998779297</ele>
        <time>2012-08-21T08:32:08.000Z</time>
      </trkpt>
      <trkpt lat="47.70645" lon="6.16401">
        <ele>286.39999389648</ele>
        <time>2012-08-21T08:32:09.000Z</time>
      </trkpt>
      <trkpt lat="47.70645" lon="6.16404">
        <ele>286.79998779297</ele>
        <time>2012-08-21T08:32:10.000Z</time>
      </trkpt>
      <trkpt lat="47.70645" lon="6.16407">
        <ele>287.20001220703</ele>
        <time>2012-08-21T08:32:11.000Z</time>
      </trkpt>
      <trkpt lat="47.70645" lon="6.16418">
        <ele>287.20001220703</ele>
        <time>2012-08-21T08:32:15.000Z</time>
      </trkpt>
      <trkpt lat="47.70647" lon="6.16435">
        <ele>287.20001220703</ele>
        <time>2012-08-21T08:32:22.000Z</time>
      </trkpt>
      <trkpt lat="47.70649" lon="6.16456">
        <ele>287.20001220703</ele>
        <time>2012-08-21T08:32:29.000Z</time>
      </trkpt>
      <trkpt lat="47.70652" lon="6.16474">
        <ele>287.20001220703</ele>
        <time>2012-08-21T08:32:36.000Z</time>
      </trkpt>
      <trkpt lat="47.70652" lon="6.16479">
        <ele>287.60000610352</ele>
        <time>2012-08-21T08:32:38.000Z</time>
      </trkpt>
      <trkpt lat="47.70652" lon="6.16481">
        <ele>288</ele>
        <time>2012-08-21T08:32:39.000Z</time>
      </trkpt>
      <trkpt lat="47.70652" lon="6.16483">
        <ele>288.39999389648</ele>
        <time>2012-08-21T08:32:40.000Z</time>
      </trkpt>
      <trkpt lat="47.70653" lon="6.16485">
        <ele>288.79998779297</ele>
        <time>2012-08-21T08:32:41.000Z</time>
      </trkpt>
      <trkpt lat="47.70653" lon="6.16487">
        <ele>289.20001220703</ele>
        <time>2012-08-21T08:32:42.000Z</time>
      </trkpt>
      <trkpt lat="47.70653" lon="6.1649">
        <ele>289.20001220703</ele>
        <time>2012-08-21T08:32:43.000Z</time>
      </trkpt>
      <trkpt lat="47.70655" lon="6.1651">
        <ele>289.20001220703</ele>
        <time>2012-08-21T08:32:51.000Z</time>
      </trkpt>
      <trkpt lat="47.70654" lon="6.16525">
        <ele>289.20001220703</ele>
        <time>2012-08-21T08:32:59.000Z</time>
      </trkpt>
      <trkpt lat="47.70655" lon="6.16545">
        <ele>289.20001220703</ele>
        <time>2012-08-21T08:33:07.000Z</time>
      </trkpt>
      <trkpt lat="47.70657" lon="6.16561">
        <ele>289.20001220703</ele>
        <time>2012-08-21T08:33:13.000Z</time>
      </trkpt>
      <trkpt lat="47.70658" lon="6.16577">
        <ele>289.20001220703</ele>
        <time>2012-08-21T08:33:19.000Z</time>
      </trkpt>
      <trkpt lat="47.70657" lon="6.16594">
        <ele>289.20001220703</ele>
        <time>2012-08-21T08:33:26.000Z</time>
      </trkpt>
      <trkpt lat="47.70658" lon="6.16613">
        <ele>289.20001220703</ele>
        <time>2012-08-21T08:33:33.000Z</time>
      </trkpt>
      <trkpt lat="47.70658" lon="6.16632">
        <ele>289.20001220703</ele>
        <time>2012-08-21T08:33:40.000Z</time>
      </trkpt>
      <trkpt lat="47.70658" lon="6.16635">
        <ele>289.20001220703</ele>
        <time>2012-08-21T08:33:41.000Z</time>
      </trkpt>
      <trkpt lat="47.70658" lon="6.16651">
        <ele>289.20001220703</ele>
        <time>2012-08-21T08:33:47.000Z</time>
      </trkpt>
      <trkpt lat="47.70661" lon="6.16671">
        <ele>289.20001220703</ele>
        <time>2012-08-21T08:33:53.000Z</time>
      </trkpt>
      <trkpt lat="47.70663" lon="6.16688">
        <ele>289.20001220703</ele>
        <time>2012-08-21T08:33:58.000Z</time>
      </trkpt>
      <trkpt lat="47.70665" lon="6.16705">
        <ele>289.20001220703</ele>
        <time>2012-08-21T08:34:03.000Z</time>
      </trkpt>
      <trkpt lat="47.70666" lon="6.16725">
        <ele>288.79998779297</ele>
        <time>2012-08-21T08:34:08.000Z</time>
      </trkpt>
      <trkpt lat="47.70667" lon="6.16728">
        <ele>288.39999389648</ele>
        <time>2012-08-21T08:34:09.000Z</time>
      </trkpt>
      <trkpt lat="47.70667" lon="6.16731">
        <ele>288</ele>
        <time>2012-08-21T08:34:10.000Z</time>
      </trkpt>
      <trkpt lat="47.70667" lon="6.16734">
        <ele>287.60000610352</ele>
        <time>2012-08-21T08:34:11.000Z</time>
      </trkpt>
      <trkpt lat="47.70667" lon="6.16737">
        <ele>287.20001220703</ele>
        <time>2012-08-21T08:34:12.000Z</time>
      </trkpt>
      <trkpt lat="47.70667" lon="6.16739">
        <ele>287.20001220703</ele>
        <time>2012-08-21T08:34:14.000Z</time>
      </trkpt>
      <trkpt lat="47.70682" lon="6.16772">
        <ele>287.20001220703</ele>
        <time>2012-08-21T08:35:03.000Z</time>
      </trkpt>
      <trkpt lat="47.70682" lon="6.16774">
        <ele>287.20001220703</ele>
        <time>2012-08-21T08:35:04.000Z</time>
      </trkpt>
      <trkpt lat="47.70684" lon="6.16792">
        <ele>287.20001220703</ele>
        <time>2012-08-21T08:35:11.000Z</time>
      </trkpt>
      <trkpt lat="47.70684" lon="6.16808">
        <ele>287.20001220703</ele>
        <time>2012-08-21T08:35:18.000Z</time>
      </trkpt>
      <trkpt lat="47.70686" lon="6.16817">
        <ele>287.20001220703</ele>
        <time>2012-08-21T08:35:22.000Z</time>
      </trkpt>
      <trkpt lat="47.70688" lon="6.1682">
        <ele>287.60000610352</ele>
        <time>2012-08-21T08:35:24.000Z</time>
      </trkpt>
      <trkpt lat="47.70688" lon="6.16822">
        <ele>288</ele>
        <time>2012-08-21T08:35:25.000Z</time>
      </trkpt>
      <trkpt lat="47.70688" lon="6.16823">
        <ele>288.39999389648</ele>
        <time>2012-08-21T08:35:26.000Z</time>
      </trkpt>
      <trkpt lat="47.70689" lon="6.16825">
        <ele>288.79998779297</ele>
        <time>2012-08-21T08:35:27.000Z</time>
      </trkpt>
      <trkpt lat="47.70689" lon="6.16827">
        <ele>289.20001220703</ele>
        <time>2012-08-21T08:35:28.000Z</time>
      </trkpt>
      <trkpt lat="47.7069" lon="6.16834">
        <ele>289.20001220703</ele>
        <time>2012-08-21T08:35:31.000Z</time>
      </trkpt>
      <trkpt lat="47.70692" lon="6.16847">
        <ele>289.20001220703</ele>
        <time>2012-08-21T08:35:37.000Z</time>
      </trkpt>
      <trkpt lat="47.70695" lon="6.16861">
        <ele>289.20001220703</ele>
        <time>2012-08-21T08:35:44.000Z</time>
      </trkpt>
      <trkpt lat="47.70698" lon="6.16874">
        <ele>289.20001220703</ele>
        <time>2012-08-21T08:35:50.000Z</time>
      </trkpt>
      <trkpt lat="47.70702" lon="6.1689">
        <ele>289.60000610352</ele>
        <time>2012-08-21T08:35:58.000Z</time>
      </trkpt>
      <trkpt lat="47.70702" lon="6.16892">
        <ele>290</ele>
        <time>2012-08-21T08:35:59.000Z</time>
      </trkpt>
      <trkpt lat="47.70702" lon="6.16894">
        <ele>290.79998779297</ele>
        <time>2012-08-21T08:36:00.000Z</time>
      </trkpt>
      <trkpt lat="47.70702" lon="6.16895">
        <ele>291.20001220703</ele>
        <time>2012-08-21T08:36:01.000Z</time>
      </trkpt>
      <trkpt lat="47.70703" lon="6.16899">
        <ele>291.20001220703</ele>
        <time>2012-08-21T08:36:03.000Z</time>
      </trkpt>
      <trkpt lat="47.70705" lon="6.16909">
        <ele>291.20001220703</ele>
        <time>2012-08-21T08:36:08.000Z</time>
      </trkpt>
      <trkpt lat="47.70709" lon="6.16932">
        <ele>291.20001220703</ele>
        <time>2012-08-21T08:36:15.000Z</time>
      </trkpt>
      <trkpt lat="47.70713" lon="6.16952">
        <ele>291.20001220703</ele>
        <time>2012-08-21T08:36:21.000Z</time>
      </trkpt>
      <trkpt lat="47.70718" lon="6.16975">
        <ele>291.20001220703</ele>
        <time>2012-08-21T08:36:28.000Z</time>
      </trkpt>
      <trkpt lat="47.7072" lon="6.16994">
        <ele>291.20001220703</ele>
        <time>2012-08-21T08:36:34.000Z</time>
      </trkpt>
      <trkpt lat="47.70724" lon="6.17019">
        <ele>291.20001220703</ele>
        <time>2012-08-21T08:36:40.000Z</time>
      </trkpt>
      <trkpt lat="47.70729" lon="6.17053">
        <ele>291.20001220703</ele>
        <time>2012-08-21T08:36:47.000Z</time>
      </trkpt>
      <trkpt lat="47.70736" lon="6.17099">
        <ele>291.20001220703</ele>
        <time>2012-08-21T08:36:56.000Z</time>
      </trkpt>
      <trkpt lat="47.70741" lon="6.17131">
        <ele>291.20001220703</ele>
        <time>2012-08-21T08:37:03.000Z</time>
      </trkpt>
      <trkpt lat="47.70747" lon="6.1717">
        <ele>291.20001220703</ele>
        <time>2012-08-21T08:37:12.000Z</time>
      </trkpt>
      <trkpt lat="47.70752" lon="6.17203">
        <ele>291.20001220703</ele>
        <time>2012-08-21T08:37:20.000Z</time>
      </trkpt>
      <trkpt lat="47.70756" lon="6.17232">
        <ele>291.20001220703</ele>
        <time>2012-08-21T08:37:27.000Z</time>
      </trkpt>
      <trkpt lat="47.7076" lon="6.17261">
        <ele>291.20001220703</ele>
        <time>2012-08-21T08:37:34.000Z</time>
      </trkpt>
      <trkpt lat="47.70764" lon="6.17287">
        <ele>291.20001220703</ele>
        <time>2012-08-21T08:37:39.000Z</time>
      </trkpt>
      <trkpt lat="47.70768" lon="6.17318">
        <ele>291.20001220703</ele>
        <time>2012-08-21T08:37:45.000Z</time>
      </trkpt>
      <trkpt lat="47.70777" lon="6.17367">
        <ele>291.20001220703</ele>
        <time>2012-08-21T08:37:54.000Z</time>
      </trkpt>
      <trkpt lat="47.70783" lon="6.17399">
        <ele>291.20001220703</ele>
        <time>2012-08-21T08:38:00.000Z</time>
      </trkpt>
      <trkpt lat="47.70786" lon="6.17412">
        <ele>291.20001220703</ele>
        <time>2012-08-21T08:38:02.000Z</time>
      </trkpt>
      <trkpt lat="47.70788" lon="6.17425">
        <ele>290.79998779297</ele>
        <time>2012-08-21T08:38:04.000Z</time>
      </trkpt>
      <trkpt lat="47.70789" lon="6.17433">
        <ele>290.39999389648</ele>
        <time>2012-08-21T08:38:05.000Z</time>
      </trkpt>
      <trkpt lat="47.7079" lon="6.17441">
        <ele>289.79998779297</ele>
        <time>2012-08-21T08:38:06.000Z</time>
      </trkpt>
      <trkpt lat="47.70791" lon="6.17448">
        <ele>289.39999389648</ele>
        <time>2012-08-21T08:38:07.000Z</time>
      </trkpt>
      <trkpt lat="47.70791" lon="6.17455">
        <ele>289</ele>
        <time>2012-08-21T08:38:08.000Z</time>
      </trkpt>
      <trkpt lat="47.7079" lon="6.17462">
        <ele>288.60000610352</ele>
        <time>2012-08-21T08:38:09.000Z</time>
      </trkpt>
      <trkpt lat="47.7079" lon="6.1747">
        <ele>288</ele>
        <time>2012-08-21T08:38:10.000Z</time>
      </trkpt>
      <trkpt lat="47.7079" lon="6.17479">
        <ele>287.60000610352</ele>
        <time>2012-08-21T08:38:11.000Z</time>
      </trkpt>
      <trkpt lat="47.70791" lon="6.1749">
        <ele>287</ele>
        <time>2012-08-21T08:38:12.000Z</time>
      </trkpt>
      <trkpt lat="47.70793" lon="6.175">
        <ele>286.39999389648</ele>
        <time>2012-08-21T08:38:13.000Z</time>
      </trkpt>
      <trkpt lat="47.70794" lon="6.17511">
        <ele>285.79998779297</ele>
        <time>2012-08-21T08:38:14.000Z</time>
      </trkpt>
      <trkpt lat="47.70796" lon="6.17521">
        <ele>285.20001220703</ele>
        <time>2012-08-21T08:38:15.000Z</time>
      </trkpt>
      <trkpt lat="47.70797" lon="6.17531">
        <ele>284.79998779297</ele>
        <time>2012-08-21T08:38:16.000Z</time>
      </trkpt>
      <trkpt lat="47.70798" lon="6.1754">
        <ele>284.20001220703</ele>
        <time>2012-08-21T08:38:17.000Z</time>
      </trkpt>
      <trkpt lat="47.70798" lon="6.17563">
        <ele>284.20001220703</ele>
        <time>2012-08-21T08:38:21.000Z</time>
      </trkpt>
      <trkpt lat="47.70797" lon="6.17588">
        <ele>284.20001220703</ele>
        <time>2012-08-21T08:38:28.000Z</time>
      </trkpt>
      <trkpt lat="47.70788" lon="6.17608">
        <ele>284.20001220703</ele>
        <time>2012-08-21T08:38:32.000Z</time>
      </trkpt>
      <trkpt lat="47.70776" lon="6.17633">
        <ele>284.20001220703</ele>
        <time>2012-08-21T08:38:37.000Z</time>
      </trkpt>
      <trkpt lat="47.70771" lon="6.17644">
        <ele>284.20001220703</ele>
        <time>2012-08-21T08:38:39.000Z</time>
      </trkpt>
      <trkpt lat="47.70761" lon="6.17664">
        <ele>284.20001220703</ele>
        <time>2012-08-21T08:38:43.000Z</time>
      </trkpt>
      <trkpt lat="47.70757" lon="6.17668">
        <ele>283.79998779297</ele>
        <time>2012-08-21T08:38:44.000Z</time>
      </trkpt>
      <trkpt lat="47.70752" lon="6.17672">
        <ele>283.20001220703</ele>
        <time>2012-08-21T08:38:45.000Z</time>
      </trkpt>
      <trkpt lat="47.70746" lon="6.17676">
        <ele>282.79998779297</ele>
        <time>2012-08-21T08:38:46.000Z</time>
      </trkpt>
      <trkpt lat="47.7074" lon="6.17679">
        <ele>282.39999389648</ele>
        <time>2012-08-21T08:38:47.000Z</time>
      </trkpt>
      <trkpt lat="47.70732" lon="6.17681">
        <ele>282</ele>
        <time>2012-08-21T08:38:48.000Z</time>
      </trkpt>
      <trkpt lat="47.70725" lon="6.17684">
        <ele>281.60000610352</ele>
        <time>2012-08-21T08:38:49.000Z</time>
      </trkpt>
      <trkpt lat="47.70717" lon="6.17686">
        <ele>281.20001220703</ele>
        <time>2012-08-21T08:38:50.000Z</time>
      </trkpt>
      <trkpt lat="47.7071" lon="6.17688">
        <ele>280.79998779297</ele>
        <time>2012-08-21T08:38:51.000Z</time>
      </trkpt>
      <trkpt lat="47.70702" lon="6.1769">
        <ele>280</ele>
        <time>2012-08-21T08:38:52.000Z</time>
      </trkpt>
      <trkpt lat="47.70695" lon="6.17693">
        <ele>279.60000610352</ele>
        <time>2012-08-21T08:38:53.000Z</time>
      </trkpt>
      <trkpt lat="47.70688" lon="6.17696">
        <ele>279.20001220703</ele>
        <time>2012-08-21T08:38:54.000Z</time>
      </trkpt>
      <trkpt lat="47.70681" lon="6.17699">
        <ele>278.79998779297</ele>
        <time>2012-08-21T08:38:55.000Z</time>
      </trkpt>
      <trkpt lat="47.70676" lon="6.17704">
        <ele>278.39999389648</ele>
        <time>2012-08-21T08:38:56.000Z</time>
      </trkpt>
      <trkpt lat="47.7067" lon="6.1771">
        <ele>278</ele>
        <time>2012-08-21T08:38:57.000Z</time>
      </trkpt>
      <trkpt lat="47.70652" lon="6.17736">
        <ele>278</ele>
        <time>2012-08-21T08:39:01.000Z</time>
      </trkpt>
      <trkpt lat="47.70645" lon="6.17747">
        <ele>278</ele>
        <time>2012-08-21T08:39:03.000Z</time>
      </trkpt>
      <trkpt lat="47.70639" lon="6.17756">
        <ele>278</ele>
        <time>2012-08-21T08:39:05.000Z</time>
      </trkpt>
      <trkpt lat="47.70636" lon="6.1776">
        <ele>278</ele>
        <time>2012-08-21T08:39:06.000Z</time>
      </trkpt>
      <trkpt lat="47.7062" lon="6.17775">
        <ele>278</ele>
        <time>2012-08-21T08:39:11.000Z</time>
      </trkpt>
      <trkpt lat="47.70602" lon="6.17781">
        <ele>278</ele>
        <time>2012-08-21T08:39:17.000Z</time>
      </trkpt>
      <trkpt lat="47.70577" lon="6.17785">
        <ele>278</ele>
        <time>2012-08-21T08:39:24.000Z</time>
      </trkpt>
      <trkpt lat="47.70563" lon="6.17785">
        <ele>278</ele>
        <time>2012-08-21T08:39:27.000Z</time>
      </trkpt>
      <trkpt lat="47.70549" lon="6.17791">
        <ele>278</ele>
        <time>2012-08-21T08:39:30.000Z</time>
      </trkpt>
      <trkpt lat="47.70532" lon="6.17813">
        <ele>277.39999389648</ele>
        <time>2012-08-21T08:39:34.000Z</time>
      </trkpt>
      <trkpt lat="47.70528" lon="6.17819">
        <ele>277</ele>
        <time>2012-08-21T08:39:35.000Z</time>
      </trkpt>
      <trkpt lat="47.70525" lon="6.17825">
        <ele>276.39999389648</ele>
        <time>2012-08-21T08:39:36.000Z</time>
      </trkpt>
      <trkpt lat="47.70521" lon="6.1783">
        <ele>276</ele>
        <time>2012-08-21T08:39:37.000Z</time>
      </trkpt>
      <trkpt lat="47.70517" lon="6.17837">
        <ele>275.60000610352</ele>
        <time>2012-08-21T08:39:38.000Z</time>
      </trkpt>
      <trkpt lat="47.70506" lon="6.17858">
        <ele>274.60000610352</ele>
        <time>2012-08-21T08:39:41.000Z</time>
      </trkpt>
      <trkpt lat="47.70502" lon="6.17866">
        <ele>274.20001220703</ele>
        <time>2012-08-21T08:39:42.000Z</time>
      </trkpt>
      <trkpt lat="47.70497" lon="6.17874">
        <ele>273.79998779297</ele>
        <time>2012-08-21T08:39:43.000Z</time>
      </trkpt>
      <trkpt lat="47.70492" lon="6.17883">
        <ele>273.20001220703</ele>
        <time>2012-08-21T08:39:44.000Z</time>
      </trkpt>
      <trkpt lat="47.7048" lon="6.17905">
        <ele>272.79998779297</ele>
        <time>2012-08-21T08:39:47.000Z</time>
      </trkpt>
      <trkpt lat="47.70476" lon="6.17912">
        <ele>272.39999389648</ele>
        <time>2012-08-21T08:39:48.000Z</time>
      </trkpt>
      <trkpt lat="47.70472" lon="6.1792">
        <ele>272</ele>
        <time>2012-08-21T08:39:49.000Z</time>
      </trkpt>
      <trkpt lat="47.70468" lon="6.17927">
        <ele>271.60000610352</ele>
        <time>2012-08-21T08:39:50.000Z</time>
      </trkpt>
      <trkpt lat="47.70464" lon="6.17934">
        <ele>271.20001220703</ele>
        <time>2012-08-21T08:39:51.000Z</time>
      </trkpt>
      <trkpt lat="47.70456" lon="6.17948">
        <ele>270.79998779297</ele>
        <time>2012-08-21T08:39:53.000Z</time>
      </trkpt>
      <trkpt lat="47.70452" lon="6.17956">
        <ele>270.39999389648</ele>
        <time>2012-08-21T08:39:54.000Z</time>
      </trkpt>
      <trkpt lat="47.70447" lon="6.17964">
        <ele>269.79998779297</ele>
        <time>2012-08-21T08:39:55.000Z</time>
      </trkpt>
      <trkpt lat="47.70443" lon="6.17971">
        <ele>269.39999389648</ele>
        <time>2012-08-21T08:39:56.000Z</time>
      </trkpt>
      <trkpt lat="47.70438" lon="6.1798">
        <ele>269</ele>
        <time>2012-08-21T08:39:57.000Z</time>
      </trkpt>
      <trkpt lat="47.70434" lon="6.17988">
        <ele>268.60000610352</ele>
        <time>2012-08-21T08:39:58.000Z</time>
      </trkpt>
      <trkpt lat="47.70429" lon="6.17996">
        <ele>268.20001220703</ele>
        <time>2012-08-21T08:39:59.000Z</time>
      </trkpt>
      <trkpt lat="47.70424" lon="6.18005">
        <ele>267.79998779297</ele>
        <time>2012-08-21T08:40:00.000Z</time>
      </trkpt>
      <trkpt lat="47.70419" lon="6.18013">
        <ele>267.20001220703</ele>
        <time>2012-08-21T08:40:01.000Z</time>
      </trkpt>
      <trkpt lat="47.70414" lon="6.18021">
        <ele>266.79998779297</ele>
        <time>2012-08-21T08:40:02.000Z</time>
      </trkpt>
      <trkpt lat="47.70405" lon="6.18036">
        <ele>266.39999389648</ele>
        <time>2012-08-21T08:40:04.000Z</time>
      </trkpt>
      <trkpt lat="47.704" lon="6.18044">
        <ele>266</ele>
        <time>2012-08-21T08:40:05.000Z</time>
      </trkpt>
      <trkpt lat="47.70395" lon="6.18051">
        <ele>265.20001220703</ele>
        <time>2012-08-21T08:40:06.000Z</time>
      </trkpt>
      <trkpt lat="47.70391" lon="6.18058">
        <ele>264.60000610352</ele>
        <time>2012-08-21T08:40:07.000Z</time>
      </trkpt>
      <trkpt lat="47.70382" lon="6.18073">
        <ele>264.60000610352</ele>
        <time>2012-08-21T08:40:09.000Z</time>
      </trkpt>
      <trkpt lat="47.70361" lon="6.18107">
        <ele>264.20001220703</ele>
        <time>2012-08-21T08:40:14.000Z</time>
      </trkpt>
      <trkpt lat="47.70358" lon="6.18114">
        <ele>263.79998779297</ele>
        <time>2012-08-21T08:40:15.000Z</time>
      </trkpt>
      <trkpt lat="47.70354" lon="6.1812">
        <ele>263.39999389648</ele>
        <time>2012-08-21T08:40:16.000Z</time>
      </trkpt>
      <trkpt lat="47.7035" lon="6.18126">
        <ele>263</ele>
        <time>2012-08-21T08:40:17.000Z</time>
      </trkpt>
      <trkpt lat="47.70347" lon="6.18133">
        <ele>262.60000610352</ele>
        <time>2012-08-21T08:40:18.000Z</time>
      </trkpt>
      <trkpt lat="47.70335" lon="6.18158">
        <ele>262.60000610352</ele>
        <time>2012-08-21T08:40:22.000Z</time>
      </trkpt>
      <trkpt lat="47.70333" lon="6.18164">
        <ele>262.60000610352</ele>
        <time>2012-08-21T08:40:23.000Z</time>
      </trkpt>
      <trkpt lat="47.70326" lon="6.18192">
        <ele>262.60000610352</ele>
        <time>2012-08-21T08:40:27.000Z</time>
      </trkpt>
      <trkpt lat="47.70317" lon="6.18241">
        <ele>262.60000610352</ele>
        <time>2012-08-21T08:40:34.000Z</time>
      </trkpt>
      <trkpt lat="47.70315" lon="6.18248">
        <ele>262.20001220703</ele>
        <time>2012-08-21T08:40:35.000Z</time>
      </trkpt>
      <trkpt lat="47.70314" lon="6.18257">
        <ele>261.79998779297</ele>
        <time>2012-08-21T08:40:36.000Z</time>
      </trkpt>
      <trkpt lat="47.70313" lon="6.18266">
        <ele>261.39999389648</ele>
        <time>2012-08-21T08:40:37.000Z</time>
      </trkpt>
      <trkpt lat="47.70312" lon="6.18275">
        <ele>260.79998779297</ele>
        <time>2012-08-21T08:40:38.000Z</time>
      </trkpt>
      <trkpt lat="47.7031" lon="6.18284">
        <ele>260.39999389648</ele>
        <time>2012-08-21T08:40:39.000Z</time>
      </trkpt>
      <trkpt lat="47.70309" lon="6.18294">
        <ele>260.39999389648</ele>
        <time>2012-08-21T08:40:40.000Z</time>
      </trkpt>
      <trkpt lat="47.70307" lon="6.18305">
        <ele>260</ele>
        <time>2012-08-21T08:40:41.000Z</time>
      </trkpt>
      <trkpt lat="47.70306" lon="6.18316">
        <ele>259.60000610352</ele>
        <time>2012-08-21T08:40:42.000Z</time>
      </trkpt>
      <trkpt lat="47.70304" lon="6.18327">
        <ele>259.20001220703</ele>
        <time>2012-08-21T08:40:43.000Z</time>
      </trkpt>
      <trkpt lat="47.70303" lon="6.18338">
        <ele>258.79998779297</ele>
        <time>2012-08-21T08:40:44.000Z</time>
      </trkpt>
      <trkpt lat="47.70301" lon="6.18349">
        <ele>258.20001220703</ele>
        <time>2012-08-21T08:40:45.000Z</time>
      </trkpt>
      <trkpt lat="47.70297" lon="6.1837">
        <ele>258.20001220703</ele>
        <time>2012-08-21T08:40:47.000Z</time>
      </trkpt>
      <trkpt lat="47.70291" lon="6.18401">
        <ele>257.79998779297</ele>
        <time>2012-08-21T08:40:50.000Z</time>
      </trkpt>
      <trkpt lat="47.70288" lon="6.18411">
        <ele>257.39999389648</ele>
        <time>2012-08-21T08:40:51.000Z</time>
      </trkpt>
      <trkpt lat="47.70285" lon="6.1842">
        <ele>257</ele>
        <time>2012-08-21T08:40:52.000Z</time>
      </trkpt>
      <trkpt lat="47.70281" lon="6.1843">
        <ele>256.60000610352</ele>
        <time>2012-08-21T08:40:53.000Z</time>
      </trkpt>
      <trkpt lat="47.70277" lon="6.1844">
        <ele>256.20001220703</ele>
        <time>2012-08-21T08:40:54.000Z</time>
      </trkpt>
      <trkpt lat="47.70268" lon="6.18463">
        <ele>255.19999694824</ele>
        <time>2012-08-21T08:40:56.000Z</time>
      </trkpt>
      <trkpt lat="47.70264" lon="6.18476">
        <ele>254.60000610352</ele>
        <time>2012-08-21T08:40:57.000Z</time>
      </trkpt>
      <trkpt lat="47.7026" lon="6.18489">
        <ele>254</ele>
        <time>2012-08-21T08:40:58.000Z</time>
      </trkpt>
      <trkpt lat="47.70256" lon="6.18503">
        <ele>253.19999694824</ele>
        <time>2012-08-21T08:40:59.000Z</time>
      </trkpt>
      <trkpt lat="47.70252" lon="6.18517">
        <ele>252.39999389648</ele>
        <time>2012-08-21T08:41:00.000Z</time>
      </trkpt>
      <trkpt lat="47.70248" lon="6.1853">
        <ele>251.80000305176</ele>
        <time>2012-08-21T08:41:01.000Z</time>
      </trkpt>
      <trkpt lat="47.70244" lon="6.18543">
        <ele>251</ele>
        <time>2012-08-21T08:41:02.000Z</time>
      </trkpt>
      <trkpt lat="47.70239" lon="6.18555">
        <ele>250.19999694824</ele>
        <time>2012-08-21T08:41:03.000Z</time>
      </trkpt>
      <trkpt lat="47.70235" lon="6.18566">
        <ele>249.39999389648</ele>
        <time>2012-08-21T08:41:04.000Z</time>
      </trkpt>
      <trkpt lat="47.7023" lon="6.18577">
        <ele>248.80000305176</ele>
        <time>2012-08-21T08:41:05.000Z</time>
      </trkpt>
      <trkpt lat="47.70225" lon="6.18588">
        <ele>248</ele>
        <time>2012-08-21T08:41:06.000Z</time>
      </trkpt>
      <trkpt lat="47.70221" lon="6.18598">
        <ele>247.19999694824</ele>
        <time>2012-08-21T08:41:07.000Z</time>
      </trkpt>
      <trkpt lat="47.70217" lon="6.18607">
        <ele>246.60000610352</ele>
        <time>2012-08-21T08:41:08.000Z</time>
      </trkpt>
      <trkpt lat="47.70214" lon="6.18614">
        <ele>245.80000305176</ele>
        <time>2012-08-21T08:41:09.000Z</time>
      </trkpt>
      <trkpt lat="47.70211" lon="6.18619">
        <ele>245.19999694824</ele>
        <time>2012-08-21T08:41:10.000Z</time>
      </trkpt>
      <trkpt lat="47.70209" lon="6.18622">
        <ele>244.60000610352</ele>
        <time>2012-08-21T08:41:11.000Z</time>
      </trkpt>
      <trkpt lat="47.70207" lon="6.18624">
        <ele>244</ele>
        <time>2012-08-21T08:41:12.000Z</time>
      </trkpt>
      <trkpt lat="47.70206" lon="6.18625">
        <ele>243.39999389648</ele>
        <time>2012-08-21T08:41:13.000Z</time>
      </trkpt>
      <trkpt lat="47.70206" lon="6.18625">
        <ele>243</ele>
        <time>2012-08-21T08:41:14.000Z</time>
      </trkpt>
      <trkpt lat="47.70205" lon="6.18626">
        <ele>242.39999389648</ele>
        <time>2012-08-21T08:41:15.000Z</time>
      </trkpt>
      <trkpt lat="47.70203" lon="6.18628">
        <ele>241.80000305176</ele>
        <time>2012-08-21T08:41:21.000Z</time>
      </trkpt>
      <trkpt lat="47.70199" lon="6.18629">
        <ele>241.80000305176</ele>
        <time>2012-08-21T08:41:23.000Z</time>
      </trkpt>
      <trkpt lat="47.70183" lon="6.18629">
        <ele>241.80000305176</ele>
        <time>2012-08-21T08:41:28.000Z</time>
      </trkpt>
      <trkpt lat="47.7016" lon="6.18632">
        <ele>241.39999389648</ele>
        <time>2012-08-21T08:41:33.000Z</time>
      </trkpt>
      <trkpt lat="47.70155" lon="6.18633">
        <ele>241</ele>
        <time>2012-08-21T08:41:34.000Z</time>
      </trkpt>
      <trkpt lat="47.7015" lon="6.18635">
        <ele>240.60000610352</ele>
        <time>2012-08-21T08:41:35.000Z</time>
      </trkpt>
      <trkpt lat="47.70145" lon="6.18636">
        <ele>240.19999694824</ele>
        <time>2012-08-21T08:41:36.000Z</time>
      </trkpt>
      <trkpt lat="47.70139" lon="6.18637">
        <ele>239.80000305176</ele>
        <time>2012-08-21T08:41:37.000Z</time>
      </trkpt>
      <trkpt lat="47.70134" lon="6.18639">
        <ele>239.80000305176</ele>
        <time>2012-08-21T08:41:38.000Z</time>
      </trkpt>
      <trkpt lat="47.70118" lon="6.18646">
        <ele>239.80000305176</ele>
        <time>2012-08-21T08:41:41.000Z</time>
      </trkpt>
      <trkpt lat="47.70101" lon="6.18654">
        <ele>239.39999389648</ele>
        <time>2012-08-21T08:41:44.000Z</time>
      </trkpt>
      <trkpt lat="47.70095" lon="6.18657">
        <ele>238.60000610352</ele>
        <time>2012-08-21T08:41:45.000Z</time>
      </trkpt>
      <trkpt lat="47.70089" lon="6.1866">
        <ele>238.19999694824</ele>
        <time>2012-08-21T08:41:46.000Z</time>
      </trkpt>
      <trkpt lat="47.70084" lon="6.18664">
        <ele>237.80000305176</ele>
        <time>2012-08-21T08:41:47.000Z</time>
      </trkpt>
      <trkpt lat="47.70078" lon="6.18668">
        <ele>237.80000305176</ele>
        <time>2012-08-21T08:41:48.000Z</time>
      </trkpt>
      <trkpt lat="47.70047" lon="6.18694">
        <ele>237.80000305176</ele>
        <time>2012-08-21T08:41:54.000Z</time>
      </trkpt>
      <trkpt lat="47.7001" lon="6.18725">
        <ele>237.80000305176</ele>
        <time>2012-08-21T08:42:02.000Z</time>
      </trkpt>
      <trkpt lat="47.69976" lon="6.18746">
        <ele>237.80000305176</ele>
        <time>2012-08-21T08:42:10.000Z</time>
      </trkpt>
      <trkpt lat="47.69968" lon="6.18748">
        <ele>237.80000305176</ele>
        <time>2012-08-21T08:42:12.000Z</time>
      </trkpt>
      <trkpt lat="47.69954" lon="6.18754">
        <ele>237.80000305176</ele>
        <time>2012-08-21T08:42:16.000Z</time>
      </trkpt>
      <trkpt lat="47.69949" lon="6.18771">
        <ele>237.80000305176</ele>
        <time>2012-08-21T08:42:20.000Z</time>
      </trkpt>
      <trkpt lat="47.69948" lon="6.18802">
        <ele>237.80000305176</ele>
        <time>2012-08-21T08:42:26.000Z</time>
      </trkpt>
      <trkpt lat="47.69951" lon="6.1884">
        <ele>237.80000305176</ele>
        <time>2012-08-21T08:42:34.000Z</time>
      </trkpt>
      <trkpt lat="47.69951" lon="6.18871">
        <ele>237.80000305176</ele>
        <time>2012-08-21T08:42:39.000Z</time>
      </trkpt>
      <trkpt lat="47.69952" lon="6.18908">
        <ele>237.80000305176</ele>
        <time>2012-08-21T08:42:45.000Z</time>
      </trkpt>
      <trkpt lat="47.69952" lon="6.18939">
        <ele>237.80000305176</ele>
        <time>2012-08-21T08:42:51.000Z</time>
      </trkpt>
      <trkpt lat="47.69948" lon="6.18956">
        <ele>237.80000305176</ele>
        <time>2012-08-21T08:42:56.000Z</time>
      </trkpt>
      <trkpt lat="47.69947" lon="6.18958">
        <ele>237.80000305176</ele>
        <time>2012-08-21T08:42:57.000Z</time>
      </trkpt>
      <trkpt lat="47.6994" lon="6.18968">
        <ele>237.80000305176</ele>
        <time>2012-08-21T08:43:02.000Z</time>
      </trkpt>
      <trkpt lat="47.69938" lon="6.18968">
        <ele>237.80000305176</ele>
        <time>2012-08-21T08:43:03.000Z</time>
      </trkpt>
      <trkpt lat="47.69927" lon="6.18967">
        <ele>237.80000305176</ele>
        <time>2012-08-21T08:43:08.000Z</time>
      </trkpt>
      <trkpt lat="47.69929" lon="6.18975">
        <ele>237.80000305176</ele>
        <time>2012-08-21T08:43:11.000Z</time>
      </trkpt>
      <trkpt lat="47.69935" lon="6.18976">
        <ele>237.80000305176</ele>
        <time>2012-08-21T08:43:14.000Z</time>
      </trkpt>
      <trkpt lat="47.69939" lon="6.18977">
        <ele>237.80000305176</ele>
        <time>2012-08-21T08:43:16.000Z</time>
      </trkpt>
      <trkpt lat="47.69942" lon="6.18978">
        <ele>237.80000305176</ele>
        <time>2012-08-21T08:43:19.000Z</time>
      </trkpt>
      <trkpt lat="47.6994" lon="6.1897">
        <ele>237.80000305176</ele>
        <time>2012-08-21T08:43:28.000Z</time>
      </trkpt>
      <trkpt lat="47.69933" lon="6.18965">
        <ele>237.80000305176</ele>
        <time>2012-08-21T08:43:32.000Z</time>
      </trkpt>
      <trkpt lat="47.69929" lon="6.18961">
        <ele>237.80000305176</ele>
        <time>2012-08-21T08:43:35.000Z</time>
      </trkpt>
      <trkpt lat="47.69926" lon="6.18961">
        <ele>237.80000305176</ele>
        <time>2012-08-21T08:43:38.000Z</time>
      </trkpt>
      <trkpt lat="47.69925" lon="6.18962">
        <ele>237.80000305176</ele>
        <time>2012-08-21T08:43:48.000Z</time>
      </trkpt>
      <trkpt lat="47.69915" lon="6.18964">
        <ele>237.80000305176</ele>
        <time>2012-08-21T08:43:52.000Z</time>
      </trkpt>
      <trkpt lat="47.69895" lon="6.18959">
        <ele>237.80000305176</ele>
        <time>2012-08-21T08:43:57.000Z</time>
      </trkpt>
      <trkpt lat="47.69891" lon="6.18956">
        <ele>237.80000305176</ele>
        <time>2012-08-21T08:43:58.000Z</time>
      </trkpt>
      <trkpt lat="47.69882" lon="6.18951">
        <ele>237.80000305176</ele>
        <time>2012-08-21T08:44:00.000Z</time>
      </trkpt>
      <trkpt lat="47.69869" lon="6.18938">
        <ele>237.80000305176</ele>
        <time>2012-08-21T08:44:03.000Z</time>
      </trkpt>
      <trkpt lat="47.69862" lon="6.1893">
        <ele>237.39999389648</ele>
        <time>2012-08-21T08:44:05.000Z</time>
      </trkpt>
      <trkpt lat="47.69859" lon="6.18925">
        <ele>237</ele>
        <time>2012-08-21T08:44:06.000Z</time>
      </trkpt>
      <trkpt lat="47.69856" lon="6.18922">
        <ele>236.60000610352</ele>
        <time>2012-08-21T08:44:07.000Z</time>
      </trkpt>
      <trkpt lat="47.69852" lon="6.18918">
        <ele>236.19999694824</ele>
        <time>2012-08-21T08:44:08.000Z</time>
      </trkpt>
      <trkpt lat="47.6985" lon="6.18913">
        <ele>235.80000305176</ele>
        <time>2012-08-21T08:44:09.000Z</time>
      </trkpt>
      <trkpt lat="47.69833" lon="6.18893">
        <ele>235.80000305176</ele>
        <time>2012-08-21T08:44:14.000Z</time>
      </trkpt>
      <trkpt lat="47.69829" lon="6.18892">
        <ele>235.80000305176</ele>
        <time>2012-08-21T08:44:15.000Z</time>
      </trkpt>
      <trkpt lat="47.69821" lon="6.1889">
        <ele>235.80000305176</ele>
        <time>2012-08-21T08:44:17.000Z</time>
      </trkpt>
      <trkpt lat="47.69817" lon="6.18891">
        <ele>235.80000305176</ele>
        <time>2012-08-21T08:44:18.000Z</time>
      </trkpt>
      <trkpt lat="47.69809" lon="6.18895">
        <ele>235.80000305176</ele>
        <time>2012-08-21T08:44:20.000Z</time>
      </trkpt>
      <trkpt lat="47.69801" lon="6.18912">
        <ele>235.80000305176</ele>
        <time>2012-08-21T08:44:23.000Z</time>
      </trkpt>
      <trkpt lat="47.698" lon="6.18932">
        <ele>235.80000305176</ele>
        <time>2012-08-21T08:44:26.000Z</time>
      </trkpt>
      <trkpt lat="47.69801" lon="6.18938">
        <ele>235.80000305176</ele>
        <time>2012-08-21T08:44:27.000Z</time>
      </trkpt>
      <trkpt lat="47.69801" lon="6.18944">
        <ele>235.80000305176</ele>
        <time>2012-08-21T08:44:28.000Z</time>
      </trkpt>
      <trkpt lat="47.69805" lon="6.18978">
        <ele>235.80000305176</ele>
        <time>2012-08-21T08:44:34.000Z</time>
      </trkpt>
      <trkpt lat="47.6981" lon="6.19021">
        <ele>235.80000305176</ele>
        <time>2012-08-21T08:44:42.000Z</time>
      </trkpt>
      <trkpt lat="47.69815" lon="6.19069">
        <ele>235.80000305176</ele>
        <time>2012-08-21T08:44:51.000Z</time>
      </trkpt>
      <trkpt lat="47.69818" lon="6.19104">
        <ele>235.80000305176</ele>
        <time>2012-08-21T08:44:58.000Z</time>
      </trkpt>
      <trkpt lat="47.69811" lon="6.19119">
        <ele>235.80000305176</ele>
        <time>2012-08-21T08:45:02.000Z</time>
      </trkpt>
      <trkpt lat="47.69792" lon="6.19134">
        <ele>235.80000305176</ele>
        <time>2012-08-21T08:45:09.000Z</time>
      </trkpt>
      <trkpt lat="47.69768" lon="6.1915">
        <ele>235.80000305176</ele>
        <time>2012-08-21T08:45:16.000Z</time>
      </trkpt>
      <trkpt lat="47.69742" lon="6.19169">
        <ele>235.80000305176</ele>
        <time>2012-08-21T08:45:24.000Z</time>
      </trkpt>
      <trkpt lat="47.69721" lon="6.19184">
        <ele>235.80000305176</ele>
        <time>2012-08-21T08:45:31.000Z</time>
      </trkpt>
      <trkpt lat="47.69703" lon="6.19201">
        <ele>235.80000305176</ele>
        <time>2012-08-21T08:45:38.000Z</time>
      </trkpt>
      <trkpt lat="47.69688" lon="6.19214">
        <ele>235.80000305176</ele>
        <time>2012-08-21T08:45:45.000Z</time>
      </trkpt>
      <trkpt lat="47.6967" lon="6.19229">
        <ele>235.80000305176</ele>
        <time>2012-08-21T08:45:54.000Z</time>
      </trkpt>
      <trkpt lat="47.69649" lon="6.19244">
        <ele>235.80000305176</ele>
        <time>2012-08-21T08:46:03.000Z</time>
      </trkpt>
      <trkpt lat="47.69626" lon="6.19258">
        <ele>235.80000305176</ele>
        <time>2012-08-21T08:46:11.000Z</time>
      </trkpt>
      <trkpt lat="47.69602" lon="6.19268">
        <ele>235.80000305176</ele>
        <time>2012-08-21T08:46:17.000Z</time>
      </trkpt>
      <trkpt lat="47.69571" lon="6.19277">
        <ele>235.80000305176</ele>
        <time>2012-08-21T08:46:24.000Z</time>
      </trkpt>
      <trkpt lat="47.69544" lon="6.19274">
        <ele>235.80000305176</ele>
        <time>2012-08-21T08:46:31.000Z</time>
      </trkpt>
      <trkpt lat="47.69528" lon="6.1925">
        <ele>235.80000305176</ele>
        <time>2012-08-21T08:46:37.000Z</time>
      </trkpt>
      <trkpt lat="47.69508" lon="6.19216">
        <ele>235.80000305176</ele>
        <time>2012-08-21T08:46:45.000Z</time>
      </trkpt>
      <trkpt lat="47.69486" lon="6.19189">
        <ele>235.80000305176</ele>
        <time>2012-08-21T08:46:53.000Z</time>
      </trkpt>
      <trkpt lat="47.69462" lon="6.19173">
        <ele>235.80000305176</ele>
        <time>2012-08-21T08:47:01.000Z</time>
      </trkpt>
      <trkpt lat="47.69433" lon="6.19152">
        <ele>235.80000305176</ele>
        <time>2012-08-21T08:47:11.000Z</time>
      </trkpt>
      <trkpt lat="47.6941" lon="6.19137">
        <ele>235.80000305176</ele>
        <time>2012-08-21T08:47:17.000Z</time>
      </trkpt>
      <trkpt lat="47.69376" lon="6.19113">
        <ele>235.80000305176</ele>
        <time>2012-08-21T08:47:24.000Z</time>
      </trkpt>
      <trkpt lat="47.6934" lon="6.19083">
        <ele>235.80000305176</ele>
        <time>2012-08-21T08:47:30.000Z</time>
      </trkpt>
      <trkpt lat="47.69328" lon="6.19073">
        <ele>235.39999389648</ele>
        <time>2012-08-21T08:47:32.000Z</time>
      </trkpt>
      <trkpt lat="47.69322" lon="6.19068">
        <ele>235</ele>
        <time>2012-08-21T08:47:33.000Z</time>
      </trkpt>
      <trkpt lat="47.69317" lon="6.19063">
        <ele>234.60000610352</ele>
        <time>2012-08-21T08:47:34.000Z</time>
      </trkpt>
      <trkpt lat="47.69311" lon="6.19058">
        <ele>234.19999694824</ele>
        <time>2012-08-21T08:47:35.000Z</time>
      </trkpt>
      <trkpt lat="47.69306" lon="6.19054">
        <ele>233.80000305176</ele>
        <time>2012-08-21T08:47:36.000Z</time>
      </trkpt>
      <trkpt lat="47.69296" lon="6.19046">
        <ele>233.80000305176</ele>
        <time>2012-08-21T08:47:38.000Z</time>
      </trkpt>
      <trkpt lat="47.69273" lon="6.1903">
        <ele>233.80000305176</ele>
        <time>2012-08-21T08:47:43.000Z</time>
      </trkpt>
      <trkpt lat="47.69268" lon="6.19029">
        <ele>233.80000305176</ele>
        <time>2012-08-21T08:47:44.000Z</time>
      </trkpt>
      <trkpt lat="47.69254" lon="6.19028">
        <ele>233.80000305176</ele>
        <time>2012-08-21T08:47:47.000Z</time>
      </trkpt>
      <trkpt lat="47.6924" lon="6.19029">
        <ele>233.80000305176</ele>
        <time>2012-08-21T08:47:50.000Z</time>
      </trkpt>
      <trkpt lat="47.69222" lon="6.19027">
        <ele>233.80000305176</ele>
        <time>2012-08-21T08:47:54.000Z</time>
      </trkpt>
      <trkpt lat="47.6921" lon="6.19027">
        <ele>233.80000305176</ele>
        <time>2012-08-21T08:47:57.000Z</time>
      </trkpt>
      <trkpt lat="47.69198" lon="6.19026">
        <ele>234.19999694824</ele>
        <time>2012-08-21T08:48:01.000Z</time>
      </trkpt>
      <trkpt lat="47.69195" lon="6.19025">
        <ele>234.60000610352</ele>
        <time>2012-08-21T08:48:02.000Z</time>
      </trkpt>
      <trkpt lat="47.69191" lon="6.19024">
        <ele>235</ele>
        <time>2012-08-21T08:48:03.000Z</time>
      </trkpt>
      <trkpt lat="47.69189" lon="6.19023">
        <ele>235.39999389648</ele>
        <time>2012-08-21T08:48:04.000Z</time>
      </trkpt>
      <trkpt lat="47.69186" lon="6.19022">
        <ele>235.80000305176</ele>
        <time>2012-08-21T08:48:05.000Z</time>
      </trkpt>
      <trkpt lat="47.69166" lon="6.19015">
        <ele>235.80000305176</ele>
        <time>2012-08-21T08:48:12.000Z</time>
      </trkpt>
      <trkpt lat="47.69148" lon="6.19009">
        <ele>236.19999694824</ele>
        <time>2012-08-21T08:48:19.000Z</time>
      </trkpt>
      <trkpt lat="47.69146" lon="6.19008">
        <ele>236.60000610352</ele>
        <time>2012-08-21T08:48:20.000Z</time>
      </trkpt>
      <trkpt lat="47.69143" lon="6.19007">
        <ele>237.39999389648</ele>
        <time>2012-08-21T08:48:21.000Z</time>
      </trkpt>
      <trkpt lat="47.69141" lon="6.19006">
        <ele>237.80000305176</ele>
        <time>2012-08-21T08:48:22.000Z</time>
      </trkpt>
      <trkpt lat="47.69126" lon="6.19001">
        <ele>237.80000305176</ele>
        <time>2012-08-21T08:48:28.000Z</time>
      </trkpt>
      <trkpt lat="47.69104" lon="6.18994">
        <ele>237.80000305176</ele>
        <time>2012-08-21T08:48:37.000Z</time>
      </trkpt>
      <trkpt lat="47.6909" lon="6.18988">
        <ele>237.80000305176</ele>
        <time>2012-08-21T08:48:43.000Z</time>
      </trkpt>
      <trkpt lat="47.69081" lon="6.18986">
        <ele>238.19999694824</ele>
        <time>2012-08-21T08:48:47.000Z</time>
      </trkpt>
      <trkpt lat="47.69079" lon="6.18985">
        <ele>238.80000305176</ele>
        <time>2012-08-21T08:48:48.000Z</time>
      </trkpt>
      <trkpt lat="47.69076" lon="6.18984">
        <ele>239.19999694824</ele>
        <time>2012-08-21T08:48:49.000Z</time>
      </trkpt>
      <trkpt lat="47.69074" lon="6.18983">
        <ele>239.60000610352</ele>
        <time>2012-08-21T08:48:50.000Z</time>
      </trkpt>
      <trkpt lat="47.69072" lon="6.18983">
        <ele>240</ele>
        <time>2012-08-21T08:48:51.000Z</time>
      </trkpt>
      <trkpt lat="47.69059" lon="6.18983">
        <ele>240</ele>
        <time>2012-08-21T08:48:58.000Z</time>
      </trkpt>
      <trkpt lat="47.6905" lon="6.18983">
        <ele>240.39999389648</ele>
        <time>2012-08-21T08:49:02.000Z</time>
      </trkpt>
      <trkpt lat="47.69048" lon="6.18983">
        <ele>241</ele>
        <time>2012-08-21T08:49:03.000Z</time>
      </trkpt>
      <trkpt lat="47.69046" lon="6.18983">
        <ele>241.39999389648</ele>
        <time>2012-08-21T08:49:04.000Z</time>
      </trkpt>
      <trkpt lat="47.69045" lon="6.18984">
        <ele>241.80000305176</ele>
        <time>2012-08-21T08:49:05.000Z</time>
      </trkpt>
      <trkpt lat="47.69043" lon="6.18984">
        <ele>242.19999694824</ele>
        <time>2012-08-21T08:49:06.000Z</time>
      </trkpt>
      <trkpt lat="47.69036" lon="6.18983">
        <ele>242.19999694824</ele>
        <time>2012-08-21T08:49:10.000Z</time>
      </trkpt>
      <trkpt lat="47.69028" lon="6.18983">
        <ele>242.60000610352</ele>
        <time>2012-08-21T08:49:14.000Z</time>
      </trkpt>
      <trkpt lat="47.69026" lon="6.18983">
        <ele>243</ele>
        <time>2012-08-21T08:49:15.000Z</time>
      </trkpt>
      <trkpt lat="47.69024" lon="6.18983">
        <ele>243.60000610352</ele>
        <time>2012-08-21T08:49:16.000Z</time>
      </trkpt>
      <trkpt lat="47.69022" lon="6.18983">
        <ele>244</ele>
        <time>2012-08-21T08:49:17.000Z</time>
      </trkpt>
      <trkpt lat="47.6902" lon="6.18982">
        <ele>244.39999389648</ele>
        <time>2012-08-21T08:49:18.000Z</time>
      </trkpt>
      <trkpt lat="47.69009" lon="6.18979">
        <ele>244.39999389648</ele>
        <time>2012-08-21T08:49:23.000Z</time>
      </trkpt>
      <trkpt lat="47.68986" lon="6.18979">
        <ele>244.39999389648</ele>
        <time>2012-08-21T08:49:30.000Z</time>
      </trkpt>
      <trkpt lat="47.68967" lon="6.18979">
        <ele>244.39999389648</ele>
        <time>2012-08-21T08:49:36.000Z</time>
      </trkpt>
      <trkpt lat="47.6895" lon="6.18978">
        <ele>244.39999389648</ele>
        <time>2012-08-21T08:49:42.000Z</time>
      </trkpt>
      <trkpt lat="47.68931" lon="6.18978">
        <ele>244.39999389648</ele>
        <time>2012-08-21T08:49:49.000Z</time>
      </trkpt>
      <trkpt lat="47.68909" lon="6.18976">
        <ele>244.39999389648</ele>
        <time>2012-08-21T08:49:57.000Z</time>
      </trkpt>
      <trkpt lat="47.68905" lon="6.18975">
        <ele>244.80000305176</ele>
        <time>2012-08-21T08:49:59.000Z</time>
      </trkpt>
      <trkpt lat="47.68903" lon="6.18975">
        <ele>245.60000610352</ele>
        <time>2012-08-21T08:50:00.000Z</time>
      </trkpt>
      <trkpt lat="47.689" lon="6.18975">
        <ele>246</ele>
        <time>2012-08-21T08:50:01.000Z</time>
      </trkpt>
      <trkpt lat="47.68898" lon="6.18975">
        <ele>246.39999389648</ele>
        <time>2012-08-21T08:50:02.000Z</time>
      </trkpt>
      <trkpt lat="47.68893" lon="6.18975">
        <ele>246.39999389648</ele>
        <time>2012-08-21T08:50:04.000Z</time>
      </trkpt>
      <trkpt lat="47.68875" lon="6.18974">
        <ele>246.39999389648</ele>
        <time>2012-08-21T08:50:11.000Z</time>
      </trkpt>
      <trkpt lat="47.68862" lon="6.18971">
        <ele>246.39999389648</ele>
        <time>2012-08-21T08:50:17.000Z</time>
      </trkpt>
      <trkpt lat="47.68854" lon="6.18971">
        <ele>246.80000305176</ele>
        <time>2012-08-21T08:50:20.000Z</time>
      </trkpt>
      <trkpt lat="47.68851" lon="6.18971">
        <ele>247.19999694824</ele>
        <time>2012-08-21T08:50:21.000Z</time>
      </trkpt>
      <trkpt lat="47.68849" lon="6.18971">
        <ele>247.60000610352</ele>
        <time>2012-08-21T08:50:22.000Z</time>
      </trkpt>
      <trkpt lat="47.68846" lon="6.18971">
        <ele>248</ele>
        <time>2012-08-21T08:50:23.000Z</time>
      </trkpt>
      <trkpt lat="47.68843" lon="6.18971">
        <ele>248.39999389648</ele>
        <time>2012-08-21T08:50:24.000Z</time>
      </trkpt>
      <trkpt lat="47.68826" lon="6.18964">
        <ele>248.39999389648</ele>
        <time>2012-08-21T08:50:29.000Z</time>
      </trkpt>
      <trkpt lat="47.68803" lon="6.18953">
        <ele>248.39999389648</ele>
        <time>2012-08-21T08:50:35.000Z</time>
      </trkpt>
      <trkpt lat="47.68794" lon="6.18949">
        <ele>248.39999389648</ele>
        <time>2012-08-21T08:50:37.000Z</time>
      </trkpt>
      <trkpt lat="47.6877" lon="6.18937">
        <ele>248.39999389648</ele>
        <time>2012-08-21T08:50:42.000Z</time>
      </trkpt>
      <trkpt lat="47.68759" lon="6.18932">
        <ele>248</ele>
        <time>2012-08-21T08:50:44.000Z</time>
      </trkpt>
      <trkpt lat="47.68754" lon="6.1893">
        <ele>247.60000610352</ele>
        <time>2012-08-21T08:50:45.000Z</time>
      </trkpt>
      <trkpt lat="47.68749" lon="6.18927">
        <ele>247.19999694824</ele>
        <time>2012-08-21T08:50:46.000Z</time>
      </trkpt>
      <trkpt lat="47.68743" lon="6.18925">
        <ele>246.60000610352</ele>
        <time>2012-08-21T08:50:47.000Z</time>
      </trkpt>
      <trkpt lat="47.68738" lon="6.18923">
        <ele>246.19999694824</ele>
        <time>2012-08-21T08:50:48.000Z</time>
      </trkpt>
      <trkpt lat="47.68728" lon="6.18918">
        <ele>246.19999694824</ele>
        <time>2012-08-21T08:50:50.000Z</time>
      </trkpt>
      <trkpt lat="47.68718" lon="6.18913">
        <ele>246.19999694824</ele>
        <time>2012-08-21T08:50:52.000Z</time>
      </trkpt>
      <trkpt lat="47.68703" lon="6.18907">
        <ele>246.19999694824</ele>
        <time>2012-08-21T08:50:55.000Z</time>
      </trkpt>
      <trkpt lat="47.68675" lon="6.18895">
        <ele>246.19999694824</ele>
        <time>2012-08-21T08:51:02.000Z</time>
      </trkpt>
      <trkpt lat="47.68653" lon="6.18886">
        <ele>246.19999694824</ele>
        <time>2012-08-21T08:51:09.000Z</time>
      </trkpt>
      <trkpt lat="47.68638" lon="6.18884">
        <ele>246.60000610352</ele>
        <time>2012-08-21T08:51:15.000Z</time>
      </trkpt>
      <trkpt lat="47.68635" lon="6.18884">
        <ele>247</ele>
        <time>2012-08-21T08:51:16.000Z</time>
      </trkpt>
      <trkpt lat="47.68632" lon="6.18883">
        <ele>247.39999389648</ele>
        <time>2012-08-21T08:51:17.000Z</time>
      </trkpt>
      <trkpt lat="47.6863" lon="6.18882">
        <ele>248</ele>
        <time>2012-08-21T08:51:18.000Z</time>
      </trkpt>
      <trkpt lat="47.68628" lon="6.18881">
        <ele>248.39999389648</ele>
        <time>2012-08-21T08:51:19.000Z</time>
      </trkpt>
      <trkpt lat="47.68619" lon="6.1888">
        <ele>248.39999389648</ele>
        <time>2012-08-21T08:51:23.000Z</time>
      </trkpt>
      <trkpt lat="47.68615" lon="6.18879">
        <ele>248.80000305176</ele>
        <time>2012-08-21T08:51:25.000Z</time>
      </trkpt>
      <trkpt lat="47.68613" lon="6.18879">
        <ele>249.19999694824</ele>
        <time>2012-08-21T08:51:26.000Z</time>
      </trkpt>
      <trkpt lat="47.68611" lon="6.18879">
        <ele>249.60000610352</ele>
        <time>2012-08-21T08:51:27.000Z</time>
      </trkpt>
      <trkpt lat="47.68609" lon="6.18878">
        <ele>250</ele>
        <time>2012-08-21T08:51:28.000Z</time>
      </trkpt>
      <trkpt lat="47.68607" lon="6.18878">
        <ele>250.60000610352</ele>
        <time>2012-08-21T08:51:29.000Z</time>
      </trkpt>
      <trkpt lat="47.68593" lon="6.18875">
        <ele>250.60000610352</ele>
        <time>2012-08-21T08:51:36.000Z</time>
      </trkpt>
      <trkpt lat="47.68577" lon="6.18872">
        <ele>250.60000610352</ele>
        <time>2012-08-21T08:51:43.000Z</time>
      </trkpt>
      <trkpt lat="47.68564" lon="6.18867">
        <ele>250.60000610352</ele>
        <time>2012-08-21T08:51:49.000Z</time>
      </trkpt>
      <trkpt lat="47.68548" lon="6.18866">
        <ele>250.60000610352</ele>
        <time>2012-08-21T08:51:56.000Z</time>
      </trkpt>
      <trkpt lat="47.68531" lon="6.18862">
        <ele>250.60000610352</ele>
        <time>2012-08-21T08:52:03.000Z</time>
      </trkpt>
      <trkpt lat="47.68514" lon="6.18855">
        <ele>250.60000610352</ele>
        <time>2012-08-21T08:52:11.000Z</time>
      </trkpt>
      <trkpt lat="47.685" lon="6.18851">
        <ele>250.60000610352</ele>
        <time>2012-08-21T08:52:19.000Z</time>
      </trkpt>
      <trkpt lat="47.68488" lon="6.18849">
        <ele>250.60000610352</ele>
        <time>2012-08-21T08:52:26.000Z</time>
      </trkpt>
      <trkpt lat="47.68478" lon="6.18851">
        <ele>250.60000610352</ele>
        <time>2012-08-21T08:52:33.000Z</time>
      </trkpt>
      <trkpt lat="47.68476" lon="6.18853">
        <ele>250.60000610352</ele>
        <time>2012-08-21T08:52:37.000Z</time>
      </trkpt>
      <trkpt lat="47.68302" lon="6.18792">
        <ele>278</ele>
        <time>2012-08-21T08:58:21.000Z</time>
      </trkpt>
      <trkpt lat="47.68302" lon="6.1879">
        <ele>278</ele>
        <time>2012-08-21T08:58:22.000Z</time>
      </trkpt>
      <trkpt lat="47.68297" lon="6.18776">
        <ele>278</ele>
        <time>2012-08-21T08:58:28.000Z</time>
      </trkpt>
      <trkpt lat="47.68294" lon="6.18755">
        <ele>278</ele>
        <time>2012-08-21T08:58:36.000Z</time>
      </trkpt>
      <trkpt lat="47.68291" lon="6.18743">
        <ele>278</ele>
        <time>2012-08-21T08:58:40.000Z</time>
      </trkpt>
      <trkpt lat="47.68286" lon="6.18732">
        <ele>278</ele>
        <time>2012-08-21T08:58:44.000Z</time>
      </trkpt>
      <trkpt lat="47.68278" lon="6.18714">
        <ele>278</ele>
        <time>2012-08-21T08:58:50.000Z</time>
      </trkpt>
      <trkpt lat="47.6827" lon="6.18696">
        <ele>278</ele>
        <time>2012-08-21T08:58:58.000Z</time>
      </trkpt>
      <trkpt lat="47.68264" lon="6.18679">
        <ele>278</ele>
        <time>2012-08-21T08:59:05.000Z</time>
      </trkpt>
      <trkpt lat="47.6826" lon="6.18669">
        <ele>277.60000610352</ele>
        <time>2012-08-21T08:59:09.000Z</time>
      </trkpt>
      <trkpt lat="47.68259" lon="6.18668">
        <ele>277.20001220703</ele>
        <time>2012-08-21T08:59:10.000Z</time>
      </trkpt>
      <trkpt lat="47.68257" lon="6.18666">
        <ele>276.79998779297</ele>
        <time>2012-08-21T08:59:11.000Z</time>
      </trkpt>
      <trkpt lat="47.68256" lon="6.18665">
        <ele>276.39999389648</ele>
        <time>2012-08-21T08:59:12.000Z</time>
      </trkpt>
      <trkpt lat="47.68255" lon="6.18664">
        <ele>276</ele>
        <time>2012-08-21T08:59:13.000Z</time>
      </trkpt>
      <trkpt lat="47.68248" lon="6.18663">
        <ele>276</ele>
        <time>2012-08-21T08:59:18.000Z</time>
      </trkpt>
      <trkpt lat="47.68202" lon="6.18682">
        <ele>276</ele>
        <time>2012-08-21T08:59:59.000Z</time>
      </trkpt>
      <trkpt lat="47.68199" lon="6.18683">
        <ele>276</ele>
        <time>2012-08-21T09:00:00.000Z</time>
      </trkpt>
      <trkpt lat="47.68184" lon="6.18691">
        <ele>275.60000610352</ele>
        <time>2012-08-21T09:00:07.000Z</time>
      </trkpt>
      <trkpt lat="47.68182" lon="6.18692">
        <ele>275</ele>
        <time>2012-08-21T09:00:08.000Z</time>
      </trkpt>
      <trkpt lat="47.6818" lon="6.18693">
        <ele>274.60000610352</ele>
        <time>2012-08-21T09:00:09.000Z</time>
      </trkpt>
      <trkpt lat="47.68178" lon="6.18693">
        <ele>274.20001220703</ele>
        <time>2012-08-21T09:00:10.000Z</time>
      </trkpt>
      <trkpt lat="47.68177" lon="6.18694">
        <ele>273.79998779297</ele>
        <time>2012-08-21T09:00:11.000Z</time>
      </trkpt>
      <trkpt lat="47.68171" lon="6.18698">
        <ele>273.79998779297</ele>
        <time>2012-08-21T09:00:14.000Z</time>
      </trkpt>
      <trkpt lat="47.68158" lon="6.18703">
        <ele>273.79998779297</ele>
        <time>2012-08-21T09:00:21.000Z</time>
      </trkpt>
      <trkpt lat="47.68145" lon="6.18707">
        <ele>273.79998779297</ele>
        <time>2012-08-21T09:00:27.000Z</time>
      </trkpt>
      <trkpt lat="47.68132" lon="6.18716">
        <ele>273.79998779297</ele>
        <time>2012-08-21T09:00:35.000Z</time>
      </trkpt>
      <trkpt lat="47.68116" lon="6.18723">
        <ele>273.79998779297</ele>
        <time>2012-08-21T09:00:42.000Z</time>
      </trkpt>
      <trkpt lat="47.68112" lon="6.18726">
        <ele>273.20001220703</ele>
        <time>2012-08-21T09:00:45.000Z</time>
      </trkpt>
      <trkpt lat="47.6811" lon="6.18727">
        <ele>272.79998779297</ele>
        <time>2012-08-21T09:00:46.000Z</time>
      </trkpt>
      <trkpt lat="47.68106" lon="6.18729">
        <ele>272.39999389648</ele>
        <time>2012-08-21T09:00:47.000Z</time>
      </trkpt>
      <trkpt lat="47.68102" lon="6.18731">
        <ele>272</ele>
        <time>2012-08-21T09:00:48.000Z</time>
      </trkpt>
      <trkpt lat="47.68097" lon="6.18733">
        <ele>271.60000610352</ele>
        <time>2012-08-21T09:00:49.000Z</time>
      </trkpt>
      <trkpt lat="47.68093" lon="6.18734">
        <ele>271.60000610352</ele>
        <time>2012-08-21T09:00:50.000Z</time>
      </trkpt>
      <trkpt lat="47.68073" lon="6.18745">
        <ele>271.60000610352</ele>
        <time>2012-08-21T09:00:59.000Z</time>
      </trkpt>
      <trkpt lat="47.68066" lon="6.18748">
        <ele>271.20001220703</ele>
        <time>2012-08-21T09:01:01.000Z</time>
      </trkpt>
      <trkpt lat="47.68064" lon="6.18749">
        <ele>270.79998779297</ele>
        <time>2012-08-21T09:01:02.000Z</time>
      </trkpt>
      <trkpt lat="47.68062" lon="6.1875">
        <ele>270.39999389648</ele>
        <time>2012-08-21T09:01:03.000Z</time>
      </trkpt>
      <trkpt lat="47.68059" lon="6.18751">
        <ele>270</ele>
        <time>2012-08-21T09:01:04.000Z</time>
      </trkpt>
      <trkpt lat="47.68057" lon="6.18753">
        <ele>269.39999389648</ele>
        <time>2012-08-21T09:01:05.000Z</time>
      </trkpt>
      <trkpt lat="47.68046" lon="6.18763">
        <ele>269.39999389648</ele>
        <time>2012-08-21T09:01:10.000Z</time>
      </trkpt>
      <trkpt lat="47.68039" lon="6.18767">
        <ele>269</ele>
        <time>2012-08-21T09:01:13.000Z</time>
      </trkpt>
      <trkpt lat="47.68037" lon="6.18768">
        <ele>268.60000610352</ele>
        <time>2012-08-21T09:01:14.000Z</time>
      </trkpt>
      <trkpt lat="47.68035" lon="6.18769">
        <ele>268.20001220703</ele>
        <time>2012-08-21T09:01:15.000Z</time>
      </trkpt>
      <trkpt lat="47.68033" lon="6.1877">
        <ele>267.79998779297</ele>
        <time>2012-08-21T09:01:16.000Z</time>
      </trkpt>
      <trkpt lat="47.68031" lon="6.18772">
        <ele>267.39999389648</ele>
        <time>2012-08-21T09:01:17.000Z</time>
      </trkpt>
      <trkpt lat="47.68027" lon="6.18775">
        <ele>267</ele>
        <time>2012-08-21T09:01:19.000Z</time>
      </trkpt>
      <trkpt lat="47.68024" lon="6.18775">
        <ele>266.39999389648</ele>
        <time>2012-08-21T09:01:20.000Z</time>
      </trkpt>
      <trkpt lat="47.68021" lon="6.18776">
        <ele>266</ele>
        <time>2012-08-21T09:01:21.000Z</time>
      </trkpt>
      <trkpt lat="47.68017" lon="6.18775">
        <ele>265.60000610352</ele>
        <time>2012-08-21T09:01:22.000Z</time>
      </trkpt>
      <trkpt lat="47.68016" lon="6.18776">
        <ele>265.20001220703</ele>
        <time>2012-08-21T09:01:23.000Z</time>
      </trkpt>
      <trkpt lat="47.68012" lon="6.18776">
        <ele>265.20001220703</ele>
        <time>2012-08-21T09:01:24.000Z</time>
      </trkpt>
      <trkpt lat="47.67991" lon="6.18784">
        <ele>265.20001220703</ele>
        <time>2012-08-21T09:01:31.000Z</time>
      </trkpt>
      <trkpt lat="47.67973" lon="6.1879">
        <ele>265.20001220703</ele>
        <time>2012-08-21T09:01:37.000Z</time>
      </trkpt>
      <trkpt lat="47.67957" lon="6.18797">
        <ele>265.20001220703</ele>
        <time>2012-08-21T09:01:44.000Z</time>
      </trkpt>
      <trkpt lat="47.67944" lon="6.18802">
        <ele>265.20001220703</ele>
        <time>2012-08-21T09:01:50.000Z</time>
      </trkpt>
      <trkpt lat="47.67928" lon="6.18813">
        <ele>264.60000610352</ele>
        <time>2012-08-21T09:01:57.000Z</time>
      </trkpt>
      <trkpt lat="47.67925" lon="6.18814">
        <ele>264.20001220703</ele>
        <time>2012-08-21T09:01:58.000Z</time>
      </trkpt>
      <trkpt lat="47.67922" lon="6.18817">
        <ele>263.79998779297</ele>
        <time>2012-08-21T09:01:59.000Z</time>
      </trkpt>
      <trkpt lat="47.67919" lon="6.18819">
        <ele>263.39999389648</ele>
        <time>2012-08-21T09:02:00.000Z</time>
      </trkpt>
      <trkpt lat="47.67916" lon="6.18821">
        <ele>263</ele>
        <time>2012-08-21T09:02:01.000Z</time>
      </trkpt>
      <trkpt lat="47.67911" lon="6.18824">
        <ele>262.60000610352</ele>
        <time>2012-08-21T09:02:03.000Z</time>
      </trkpt>
      <trkpt lat="47.67908" lon="6.18825">
        <ele>262.20001220703</ele>
        <time>2012-08-21T09:02:04.000Z</time>
      </trkpt>
      <trkpt lat="47.67906" lon="6.18827">
        <ele>261.60000610352</ele>
        <time>2012-08-21T09:02:05.000Z</time>
      </trkpt>
      <trkpt lat="47.67904" lon="6.18828">
        <ele>261.20001220703</ele>
        <time>2012-08-21T09:02:06.000Z</time>
      </trkpt>
      <trkpt lat="47.67902" lon="6.1883">
        <ele>260.79998779297</ele>
        <time>2012-08-21T09:02:07.000Z</time>
      </trkpt>
      <trkpt lat="47.67899" lon="6.18831">
        <ele>260.79998779297</ele>
        <time>2012-08-21T09:02:09.000Z</time>
      </trkpt>
      <trkpt lat="47.67892" lon="6.18826">
        <ele>260.79998779297</ele>
        <time>2012-08-21T09:02:13.000Z</time>
      </trkpt>
      <trkpt lat="47.67892" lon="6.18823">
        <ele>260.39999389648</ele>
        <time>2012-08-21T09:02:14.000Z</time>
      </trkpt>
      <trkpt lat="47.67891" lon="6.1882">
        <ele>260</ele>
        <time>2012-08-21T09:02:15.000Z</time>
      </trkpt>
      <trkpt lat="47.6789" lon="6.18817">
        <ele>259.60000610352</ele>
        <time>2012-08-21T09:02:16.000Z</time>
      </trkpt>
      <trkpt lat="47.67889" lon="6.18814">
        <ele>259.20001220703</ele>
        <time>2012-08-21T09:02:17.000Z</time>
      </trkpt>
      <trkpt lat="47.67887" lon="6.18812">
        <ele>258.79998779297</ele>
        <time>2012-08-21T09:02:18.000Z</time>
      </trkpt>
      <trkpt lat="47.67884" lon="6.18806">
        <ele>258.79998779297</ele>
        <time>2012-08-21T09:02:20.000Z</time>
      </trkpt>
      <trkpt lat="47.67883" lon="6.18803">
        <ele>258.79998779297</ele>
        <time>2012-08-21T09:02:21.000Z</time>
      </trkpt>
      <trkpt lat="47.67879" lon="6.18793">
        <ele>258.39999389648</ele>
        <time>2012-08-21T09:02:26.000Z</time>
      </trkpt>
      <trkpt lat="47.67878" lon="6.1879">
        <ele>258</ele>
        <time>2012-08-21T09:02:27.000Z</time>
      </trkpt>
      <trkpt lat="47.67877" lon="6.18787">
        <ele>257.60000610352</ele>
        <time>2012-08-21T09:02:28.000Z</time>
      </trkpt>
      <trkpt lat="47.67876" lon="6.18784">
        <ele>257</ele>
        <time>2012-08-21T09:02:29.000Z</time>
      </trkpt>
      <trkpt lat="47.67875" lon="6.1878">
        <ele>256.60000610352</ele>
        <time>2012-08-21T09:02:30.000Z</time>
      </trkpt>
      <trkpt lat="47.67872" lon="6.18762">
        <ele>256.20001220703</ele>
        <time>2012-08-21T09:02:34.000Z</time>
      </trkpt>
      <trkpt lat="47.67871" lon="6.18757">
        <ele>255.80000305176</ele>
        <time>2012-08-21T09:02:35.000Z</time>
      </trkpt>
      <trkpt lat="47.6787" lon="6.18753">
        <ele>255.39999389648</ele>
        <time>2012-08-21T09:02:36.000Z</time>
      </trkpt>
      <trkpt lat="47.67868" lon="6.18749">
        <ele>255</ele>
        <time>2012-08-21T09:02:37.000Z</time>
      </trkpt>
      <trkpt lat="47.67867" lon="6.18745">
        <ele>254.60000610352</ele>
        <time>2012-08-21T09:02:38.000Z</time>
      </trkpt>
      <trkpt lat="47.67866" lon="6.18742">
        <ele>254.60000610352</ele>
        <time>2012-08-21T09:02:39.000Z</time>
      </trkpt>
      <trkpt lat="47.67865" lon="6.1874">
        <ele>254.60000610352</ele>
        <time>2012-08-21T09:02:40.000Z</time>
      </trkpt>
      <trkpt lat="47.67863" lon="6.18739">
        <ele>254.60000610352</ele>
        <time>2012-08-21T09:02:41.000Z</time>
      </trkpt>
      <trkpt lat="47.67857" lon="6.18739">
        <ele>254.60000610352</ele>
        <time>2012-08-21T09:02:44.000Z</time>
      </trkpt>
      <trkpt lat="47.67852" lon="6.1874">
        <ele>254.60000610352</ele>
        <time>2012-08-21T09:02:46.000Z</time>
      </trkpt>
      <trkpt lat="47.6785" lon="6.1874">
        <ele>254.19999694824</ele>
        <time>2012-08-21T09:02:47.000Z</time>
      </trkpt>
      <trkpt lat="47.67848" lon="6.1874">
        <ele>253.60000610352</ele>
        <time>2012-08-21T09:02:48.000Z</time>
      </trkpt>
      <trkpt lat="47.67845" lon="6.18741">
        <ele>253.19999694824</ele>
        <time>2012-08-21T09:02:49.000Z</time>
      </trkpt>
      <trkpt lat="47.67843" lon="6.18741">
        <ele>252.80000305176</ele>
        <time>2012-08-21T09:02:50.000Z</time>
      </trkpt>
      <trkpt lat="47.6784" lon="6.18742">
        <ele>252.39999389648</ele>
        <time>2012-08-21T09:02:51.000Z</time>
      </trkpt>
      <trkpt lat="47.6782" lon="6.18756">
        <ele>252.39999389648</ele>
        <time>2012-08-21T09:02:59.000Z</time>
      </trkpt>
      <trkpt lat="47.67812" lon="6.1877">
        <ele>252.39999389648</ele>
        <time>2012-08-21T09:03:06.000Z</time>
      </trkpt>
      <trkpt lat="47.67803" lon="6.18781">
        <ele>252.39999389648</ele>
        <time>2012-08-21T09:03:12.000Z</time>
      </trkpt>
      <trkpt lat="47.67791" lon="6.18793">
        <ele>252.39999389648</ele>
        <time>2012-08-21T09:03:19.000Z</time>
      </trkpt>
      <trkpt lat="47.67786" lon="6.18798">
        <ele>252</ele>
        <time>2012-08-21T09:03:22.000Z</time>
      </trkpt>
      <trkpt lat="47.67782" lon="6.188">
        <ele>251.60000610352</ele>
        <time>2012-08-21T09:03:23.000Z</time>
      </trkpt>
      <trkpt lat="47.67778" lon="6.18802">
        <ele>251.19999694824</ele>
        <time>2012-08-21T09:03:24.000Z</time>
      </trkpt>
      <trkpt lat="47.67772" lon="6.18803">
        <ele>250.80000305176</ele>
        <time>2012-08-21T09:03:25.000Z</time>
      </trkpt>
      <trkpt lat="47.67767" lon="6.18806">
        <ele>250.19999694824</ele>
        <time>2012-08-21T09:03:26.000Z</time>
      </trkpt>
      <trkpt lat="47.67758" lon="6.18812">
        <ele>250.19999694824</ele>
        <time>2012-08-21T09:03:29.000Z</time>
      </trkpt>
      <trkpt lat="47.67751" lon="6.18816">
        <ele>250.19999694824</ele>
        <time>2012-08-21T09:03:32.000Z</time>
      </trkpt>
      <trkpt lat="47.67739" lon="6.18826">
        <ele>250.19999694824</ele>
        <time>2012-08-21T09:03:38.000Z</time>
      </trkpt>
      <trkpt lat="47.67729" lon="6.18823">
        <ele>250.19999694824</ele>
        <time>2012-08-21T09:03:42.000Z</time>
      </trkpt>
      <trkpt lat="47.67727" lon="6.18821">
        <ele>250.19999694824</ele>
        <time>2012-08-21T09:03:43.000Z</time>
      </trkpt>
      <trkpt lat="47.67717" lon="6.1881">
        <ele>250.19999694824</ele>
        <time>2012-08-21T09:03:50.000Z</time>
      </trkpt>
      <trkpt lat="47.6771" lon="6.18806">
        <ele>250.19999694824</ele>
        <time>2012-08-21T09:03:56.000Z</time>
      </trkpt>
      <trkpt lat="47.67705" lon="6.188">
        <ele>249.80000305176</ele>
        <time>2012-08-21T09:04:01.000Z</time>
      </trkpt>
      <trkpt lat="47.67704" lon="6.18799">
        <ele>249.39999389648</ele>
        <time>2012-08-21T09:04:02.000Z</time>
      </trkpt>
      <trkpt lat="47.67703" lon="6.18798">
        <ele>249</ele>
        <time>2012-08-21T09:04:03.000Z</time>
      </trkpt>
      <trkpt lat="47.67684" lon="6.18797">
        <ele>248.19999694824</ele>
        <time>2012-08-21T09:04:20.000Z</time>
      </trkpt>
      <trkpt lat="47.6768" lon="6.1879">
        <ele>248.19999694824</ele>
        <time>2012-08-21T09:04:24.000Z</time>
      </trkpt>
      <trkpt lat="47.67678" lon="6.18789">
        <ele>248.19999694824</ele>
        <time>2012-08-21T09:04:25.000Z</time>
      </trkpt>
      <trkpt lat="47.67665" lon="6.18786">
        <ele>248.19999694824</ele>
        <time>2012-08-21T09:04:35.000Z</time>
      </trkpt>
      <trkpt lat="47.67661" lon="6.18786">
        <ele>248.19999694824</ele>
        <time>2012-08-21T09:04:38.000Z</time>
      </trkpt>
      <trkpt lat="47.67659" lon="6.18786">
        <ele>248.19999694824</ele>
        <time>2012-08-21T09:04:41.000Z</time>
      </trkpt>
      <trkpt lat="47.67649" lon="6.18777">
        <ele>248.19999694824</ele>
        <time>2012-08-21T09:04:55.000Z</time>
      </trkpt>
      <trkpt lat="47.67643" lon="6.18771">
        <ele>248.19999694824</ele>
        <time>2012-08-21T09:04:57.000Z</time>
      </trkpt>
      <trkpt lat="47.67638" lon="6.18757">
        <ele>248.19999694824</ele>
        <time>2012-08-21T09:05:02.000Z</time>
      </trkpt>
      <trkpt lat="47.67639" lon="6.18744">
        <ele>248.19999694824</ele>
        <time>2012-08-21T09:05:08.000Z</time>
      </trkpt>
      <trkpt lat="47.67639" lon="6.1873">
        <ele>248.19999694824</ele>
        <time>2012-08-21T09:05:15.000Z</time>
      </trkpt>
      <trkpt lat="47.6764" lon="6.1872">
        <ele>248.60000610352</ele>
        <time>2012-08-21T09:05:20.000Z</time>
      </trkpt>
      <trkpt lat="47.6764" lon="6.18718">
        <ele>249</ele>
        <time>2012-08-21T09:05:21.000Z</time>
      </trkpt>
      <trkpt lat="47.6764" lon="6.18716">
        <ele>249.39999389648</ele>
        <time>2012-08-21T09:05:22.000Z</time>
      </trkpt>
      <trkpt lat="47.6764" lon="6.18715">
        <ele>249.80000305176</ele>
        <time>2012-08-21T09:05:23.000Z</time>
      </trkpt>
      <trkpt lat="47.6764" lon="6.18713">
        <ele>250.19999694824</ele>
        <time>2012-08-21T09:05:24.000Z</time>
      </trkpt>
      <trkpt lat="47.6764" lon="6.18712">
        <ele>250.19999694824</ele>
        <time>2012-08-21T09:05:25.000Z</time>
      </trkpt>
      <trkpt lat="47.67641" lon="6.18699">
        <ele>250.19999694824</ele>
        <time>2012-08-21T09:05:54.000Z</time>
      </trkpt>
      <trkpt lat="47.6764" lon="6.18697">
        <ele>250.19999694824</ele>
        <time>2012-08-21T09:05:55.000Z</time>
      </trkpt>
      <trkpt lat="47.67638" lon="6.18691">
        <ele>250.19999694824</ele>
        <time>2012-08-21T09:05:58.000Z</time>
      </trkpt>
      <trkpt lat="47.67636" lon="6.18691">
        <ele>250.80000305176</ele>
        <time>2012-08-21T09:06:00.000Z</time>
      </trkpt>
      <trkpt lat="47.67635" lon="6.18691">
        <ele>251.19999694824</ele>
        <time>2012-08-21T09:06:01.000Z</time>
      </trkpt>
      <trkpt lat="47.67634" lon="6.18691">
        <ele>251.60000610352</ele>
        <time>2012-08-21T09:06:02.000Z</time>
      </trkpt>
      <trkpt lat="47.67633" lon="6.1869">
        <ele>252.39999389648</ele>
        <time>2012-08-21T09:06:03.000Z</time>
      </trkpt>
      <trkpt lat="47.6763" lon="6.1869">
        <ele>252.39999389648</ele>
        <time>2012-08-21T09:06:05.000Z</time>
      </trkpt>
      <trkpt lat="47.67627" lon="6.1869">
        <ele>252.39999389648</ele>
        <time>2012-08-21T09:06:06.000Z</time>
      </trkpt>
      <trkpt lat="47.67617" lon="6.18692">
        <ele>252.39999389648</ele>
        <time>2012-08-21T09:06:12.000Z</time>
      </trkpt>
      <trkpt lat="47.67615" lon="6.18691">
        <ele>252.39999389648</ele>
        <time>2012-08-21T09:06:13.000Z</time>
      </trkpt>
      <trkpt lat="47.67603" lon="6.1869">
        <ele>252.39999389648</ele>
        <time>2012-08-21T09:06:20.000Z</time>
      </trkpt>
      <trkpt lat="47.67589" lon="6.1869">
        <ele>252.39999389648</ele>
        <time>2012-08-21T09:06:27.000Z</time>
      </trkpt>
      <trkpt lat="47.67576" lon="6.18691">
        <ele>252.39999389648</ele>
        <time>2012-08-21T09:06:33.000Z</time>
      </trkpt>
      <trkpt lat="47.67557" lon="6.18685">
        <ele>252.39999389648</ele>
        <time>2012-08-21T09:06:39.000Z</time>
      </trkpt>
      <trkpt lat="47.67547" lon="6.18668">
        <ele>252</ele>
        <time>2012-08-21T09:06:44.000Z</time>
      </trkpt>
      <trkpt lat="47.67545" lon="6.18665">
        <ele>251.60000610352</ele>
        <time>2012-08-21T09:06:45.000Z</time>
      </trkpt>
      <trkpt lat="47.67544" lon="6.18662">
        <ele>251.19999694824</ele>
        <time>2012-08-21T09:06:46.000Z</time>
      </trkpt>
      <trkpt lat="47.67544" lon="6.1866">
        <ele>250.80000305176</ele>
        <time>2012-08-21T09:06:47.000Z</time>
      </trkpt>
      <trkpt lat="47.67543" lon="6.18658">
        <ele>250.39999389648</ele>
        <time>2012-08-21T09:06:48.000Z</time>
      </trkpt>
      <trkpt lat="47.67542" lon="6.18656">
        <ele>250.39999389648</ele>
        <time>2012-08-21T09:06:49.000Z</time>
      </trkpt>
      <trkpt lat="47.67539" lon="6.1864">
        <ele>250.39999389648</ele>
        <time>2012-08-21T09:06:55.000Z</time>
      </trkpt>
      <trkpt lat="47.67536" lon="6.18626">
        <ele>250.39999389648</ele>
        <time>2012-08-21T09:07:02.000Z</time>
      </trkpt>
      <trkpt lat="47.67533" lon="6.18626">
        <ele>250.39999389648</ele>
        <time>2012-08-21T09:07:04.000Z</time>
      </trkpt>
      <trkpt lat="47.67525" lon="6.18624">
        <ele>250.39999389648</ele>
        <time>2012-08-21T09:07:09.000Z</time>
      </trkpt>
      <trkpt lat="47.67522" lon="6.18624">
        <ele>250.39999389648</ele>
        <time>2012-08-21T09:07:11.000Z</time>
      </trkpt>
      <trkpt lat="47.67516" lon="6.18623">
        <ele>250.39999389648</ele>
        <time>2012-08-21T09:08:06.000Z</time>
      </trkpt>
      <trkpt lat="47.67509" lon="6.1862">
        <ele>250.39999389648</ele>
        <time>2012-08-21T09:08:08.000Z</time>
      </trkpt>
      <trkpt lat="47.67484" lon="6.18616">
        <ele>250.39999389648</ele>
        <time>2012-08-21T09:08:14.000Z</time>
      </trkpt>
      <trkpt lat="47.67457" lon="6.18612">
        <ele>250.39999389648</ele>
        <time>2012-08-21T09:08:20.000Z</time>
      </trkpt>
      <trkpt lat="47.67445" lon="6.18612">
        <ele>250</ele>
        <time>2012-08-21T09:08:23.000Z</time>
      </trkpt>
      <trkpt lat="47.6744" lon="6.18612">
        <ele>249.60000610352</ele>
        <time>2012-08-21T09:08:24.000Z</time>
      </trkpt>
      <trkpt lat="47.67436" lon="6.18612">
        <ele>249.19999694824</ele>
        <time>2012-08-21T09:08:25.000Z</time>
      </trkpt>
      <trkpt lat="47.67431" lon="6.18611">
        <ele>248.80000305176</ele>
        <time>2012-08-21T09:08:26.000Z</time>
      </trkpt>
      <trkpt lat="47.67427" lon="6.18611">
        <ele>248.39999389648</ele>
        <time>2012-08-21T09:08:27.000Z</time>
      </trkpt>
      <trkpt lat="47.67423" lon="6.18611">
        <ele>248.39999389648</ele>
        <time>2012-08-21T09:08:28.000Z</time>
      </trkpt>
      <trkpt lat="47.67405" lon="6.18613">
        <ele>248.39999389648</ele>
        <time>2012-08-21T09:08:32.000Z</time>
      </trkpt>
      <trkpt lat="47.67401" lon="6.18614">
        <ele>247.80000305176</ele>
        <time>2012-08-21T09:08:33.000Z</time>
      </trkpt>
      <trkpt lat="47.67397" lon="6.18614">
        <ele>247.19999694824</ele>
        <time>2012-08-21T09:08:34.000Z</time>
      </trkpt>
      <trkpt lat="47.67394" lon="6.18614">
        <ele>246.80000305176</ele>
        <time>2012-08-21T09:08:35.000Z</time>
      </trkpt>
      <trkpt lat="47.6739" lon="6.18614">
        <ele>247</ele>
        <time>2012-08-21T09:08:36.000Z</time>
      </trkpt>
      <trkpt lat="47.67386" lon="6.18614">
        <ele>247.39999389648</ele>
        <time>2012-08-21T09:08:37.000Z</time>
      </trkpt>
      <trkpt lat="47.67382" lon="6.18615">
        <ele>247.80000305176</ele>
        <time>2012-08-21T09:08:38.000Z</time>
      </trkpt>
      <trkpt lat="47.67378" lon="6.18615">
        <ele>248</ele>
        <time>2012-08-21T09:08:39.000Z</time>
      </trkpt>
      <trkpt lat="47.67374" lon="6.18615">
        <ele>248.39999389648</ele>
        <time>2012-08-21T09:08:40.000Z</time>
      </trkpt>
      <trkpt lat="47.67357" lon="6.18617">
        <ele>248</ele>
        <time>2012-08-21T09:08:44.000Z</time>
      </trkpt>
      <trkpt lat="47.67353" lon="6.18617">
        <ele>247.19999694824</ele>
        <time>2012-08-21T09:08:45.000Z</time>
      </trkpt>
      <trkpt lat="47.67349" lon="6.18617">
        <ele>246.80000305176</ele>
        <time>2012-08-21T09:08:46.000Z</time>
      </trkpt>
      <trkpt lat="47.67344" lon="6.18618">
        <ele>246.39999389648</ele>
        <time>2012-08-21T09:08:47.000Z</time>
      </trkpt>
      <trkpt lat="47.6734" lon="6.18619">
        <ele>246.39999389648</ele>
        <time>2012-08-21T09:08:48.000Z</time>
      </trkpt>
      <trkpt lat="47.67332" lon="6.18619">
        <ele>246.39999389648</ele>
        <time>2012-08-21T09:08:50.000Z</time>
      </trkpt>
      <trkpt lat="47.6732" lon="6.18621">
        <ele>246.39999389648</ele>
        <time>2012-08-21T09:08:53.000Z</time>
      </trkpt>
      <trkpt lat="47.67311" lon="6.18623">
        <ele>246.39999389648</ele>
        <time>2012-08-21T09:08:55.000Z</time>
      </trkpt>
      <trkpt lat="47.67281" lon="6.18625">
        <ele>246.39999389648</ele>
        <time>2012-08-21T09:09:02.000Z</time>
      </trkpt>
      <trkpt lat="47.67274" lon="6.18625">
        <ele>246</ele>
        <time>2012-08-21T09:09:04.000Z</time>
      </trkpt>
      <trkpt lat="47.6727" lon="6.18625">
        <ele>245.60000610352</ele>
        <time>2012-08-21T09:09:05.000Z</time>
      </trkpt>
      <trkpt lat="47.67266" lon="6.18626">
        <ele>245.19999694824</ele>
        <time>2012-08-21T09:09:06.000Z</time>
      </trkpt>
      <trkpt lat="47.67262" lon="6.18626">
        <ele>244.80000305176</ele>
        <time>2012-08-21T09:09:07.000Z</time>
      </trkpt>
      <trkpt lat="47.67257" lon="6.18625">
        <ele>244.39999389648</ele>
        <time>2012-08-21T09:09:08.000Z</time>
      </trkpt>
      <trkpt lat="47.67252" lon="6.18624">
        <ele>244.39999389648</ele>
        <time>2012-08-21T09:09:09.000Z</time>
      </trkpt>
      <trkpt lat="47.67227" lon="6.18623">
        <ele>244.39999389648</ele>
        <time>2012-08-21T09:09:15.000Z</time>
      </trkpt>
      <trkpt lat="47.67222" lon="6.18624">
        <ele>244.39999389648</ele>
        <time>2012-08-21T09:09:16.000Z</time>
      </trkpt>
      <trkpt lat="47.672" lon="6.18622">
        <ele>244.39999389648</ele>
        <time>2012-08-21T09:09:21.000Z</time>
      </trkpt>
      <trkpt lat="47.67176" lon="6.18618">
        <ele>244.39999389648</ele>
        <time>2012-08-21T09:09:27.000Z</time>
      </trkpt>
      <trkpt lat="47.67146" lon="6.18616">
        <ele>244.39999389648</ele>
        <time>2012-08-21T09:09:33.000Z</time>
      </trkpt>
      <trkpt lat="47.67126" lon="6.18615">
        <ele>244.39999389648</ele>
        <time>2012-08-21T09:09:37.000Z</time>
      </trkpt>
      <trkpt lat="47.6711" lon="6.18614">
        <ele>244</ele>
        <time>2012-08-21T09:09:40.000Z</time>
      </trkpt>
      <trkpt lat="47.67106" lon="6.18613">
        <ele>243.39999389648</ele>
        <time>2012-08-21T09:09:41.000Z</time>
      </trkpt>
      <trkpt lat="47.67101" lon="6.18614">
        <ele>243</ele>
        <time>2012-08-21T09:09:42.000Z</time>
      </trkpt>
      <trkpt lat="47.67097" lon="6.18614">
        <ele>242.60000610352</ele>
        <time>2012-08-21T09:09:43.000Z</time>
      </trkpt>
      <trkpt lat="47.67093" lon="6.18614">
        <ele>242.19999694824</ele>
        <time>2012-08-21T09:09:44.000Z</time>
      </trkpt>
      <trkpt lat="47.67084" lon="6.18613">
        <ele>242.19999694824</ele>
        <time>2012-08-21T09:09:46.000Z</time>
      </trkpt>
      <trkpt lat="47.67054" lon="6.18611">
        <ele>242.19999694824</ele>
        <time>2012-08-21T09:09:53.000Z</time>
      </trkpt>
      <trkpt lat="47.67049" lon="6.1861">
        <ele>242.19999694824</ele>
        <time>2012-08-21T09:09:54.000Z</time>
      </trkpt>
      <trkpt lat="47.67021" lon="6.18604">
        <ele>242.19999694824</ele>
        <time>2012-08-21T09:10:00.000Z</time>
      </trkpt>
      <trkpt lat="47.66986" lon="6.18597">
        <ele>242.19999694824</ele>
        <time>2012-08-21T09:10:07.000Z</time>
      </trkpt>
      <trkpt lat="47.66964" lon="6.18592">
        <ele>242.19999694824</ele>
        <time>2012-08-21T09:10:12.000Z</time>
      </trkpt>
      <trkpt lat="47.66937" lon="6.18585">
        <ele>242.19999694824</ele>
        <time>2012-08-21T09:10:18.000Z</time>
      </trkpt>
      <trkpt lat="47.66919" lon="6.18583">
        <ele>241.80000305176</ele>
        <time>2012-08-21T09:10:21.000Z</time>
      </trkpt>
      <trkpt lat="47.66913" lon="6.18582">
        <ele>241.39999389648</ele>
        <time>2012-08-21T09:10:22.000Z</time>
      </trkpt>
      <trkpt lat="47.66906" lon="6.1858">
        <ele>240.60000610352</ele>
        <time>2012-08-21T09:10:23.000Z</time>
      </trkpt>
      <trkpt lat="47.66901" lon="6.18578">
        <ele>240</ele>
        <time>2012-08-21T09:10:24.000Z</time>
      </trkpt>
      <trkpt lat="47.66879" lon="6.18564">
        <ele>240</ele>
        <time>2012-08-21T09:10:28.000Z</time>
      </trkpt>
      <trkpt lat="47.66839" lon="6.18531">
        <ele>240</ele>
        <time>2012-08-21T09:10:36.000Z</time>
      </trkpt>
      <trkpt lat="47.66816" lon="6.18515">
        <ele>240</ele>
        <time>2012-08-21T09:10:41.000Z</time>
      </trkpt>
      <trkpt lat="47.66812" lon="6.18513">
        <ele>240</ele>
        <time>2012-08-21T09:10:42.000Z</time>
      </trkpt>
      <trkpt lat="47.66779" lon="6.18504">
        <ele>240</ele>
        <time>2012-08-21T09:10:49.000Z</time>
      </trkpt>
      <trkpt lat="47.6675" lon="6.18495">
        <ele>239.60000610352</ele>
        <time>2012-08-21T09:10:55.000Z</time>
      </trkpt>
      <trkpt lat="47.66745" lon="6.18493">
        <ele>239.19999694824</ele>
        <time>2012-08-21T09:10:56.000Z</time>
      </trkpt>
      <trkpt lat="47.6674" lon="6.18491">
        <ele>238.80000305176</ele>
        <time>2012-08-21T09:10:57.000Z</time>
      </trkpt>
      <trkpt lat="47.66736" lon="6.18489">
        <ele>238.39999389648</ele>
        <time>2012-08-21T09:10:58.000Z</time>
      </trkpt>
      <trkpt lat="47.66731" lon="6.18487">
        <ele>238</ele>
        <time>2012-08-21T09:10:59.000Z</time>
      </trkpt>
      <trkpt lat="47.66709" lon="6.18475">
        <ele>238</ele>
        <time>2012-08-21T09:11:04.000Z</time>
      </trkpt>
      <trkpt lat="47.6668" lon="6.18451">
        <ele>238</ele>
        <time>2012-08-21T09:11:10.000Z</time>
      </trkpt>
      <trkpt lat="47.66668" lon="6.18438">
        <ele>238</ele>
        <time>2012-08-21T09:11:13.000Z</time>
      </trkpt>
      <trkpt lat="47.66656" lon="6.18427">
        <ele>238</ele>
        <time>2012-08-21T09:11:16.000Z</time>
      </trkpt>
      <trkpt lat="47.66617" lon="6.18395">
        <ele>238</ele>
        <time>2012-08-21T09:11:25.000Z</time>
      </trkpt>
      <trkpt lat="47.666" lon="6.1838">
        <ele>237.60000610352</ele>
        <time>2012-08-21T09:11:29.000Z</time>
      </trkpt>
      <trkpt lat="47.66597" lon="6.18376">
        <ele>237.19999694824</ele>
        <time>2012-08-21T09:11:30.000Z</time>
      </trkpt>
      <trkpt lat="47.66593" lon="6.18373">
        <ele>236.80000305176</ele>
        <time>2012-08-21T09:11:31.000Z</time>
      </trkpt>
      <trkpt lat="47.66588" lon="6.18369">
        <ele>236.39999389648</ele>
        <time>2012-08-21T09:11:32.000Z</time>
      </trkpt>
      <trkpt lat="47.66584" lon="6.18365">
        <ele>236</ele>
        <time>2012-08-21T09:11:33.000Z</time>
      </trkpt>
      <trkpt lat="47.6658" lon="6.18362">
        <ele>236</ele>
        <time>2012-08-21T09:11:34.000Z</time>
      </trkpt>
      <trkpt lat="47.66563" lon="6.18348">
        <ele>236</ele>
        <time>2012-08-21T09:11:38.000Z</time>
      </trkpt>
      <trkpt lat="47.66537" lon="6.18322">
        <ele>236</ele>
        <time>2012-08-21T09:11:44.000Z</time>
      </trkpt>
      <trkpt lat="47.66533" lon="6.18317">
        <ele>236</ele>
        <time>2012-08-21T09:11:45.000Z</time>
      </trkpt>
      <trkpt lat="47.66516" lon="6.18295">
        <ele>236</ele>
        <time>2012-08-21T09:11:50.000Z</time>
      </trkpt>
      <trkpt lat="47.66512" lon="6.18291">
        <ele>236</ele>
        <time>2012-08-21T09:11:51.000Z</time>
      </trkpt>
      <trkpt lat="47.66491" lon="6.18261">
        <ele>235.60000610352</ele>
        <time>2012-08-21T09:11:57.000Z</time>
      </trkpt>
      <trkpt lat="47.66488" lon="6.18255">
        <ele>235.19999694824</ele>
        <time>2012-08-21T09:11:58.000Z</time>
      </trkpt>
      <trkpt lat="47.66485" lon="6.18249">
        <ele>234.80000305176</ele>
        <time>2012-08-21T09:11:59.000Z</time>
      </trkpt>
      <trkpt lat="47.66481" lon="6.18242">
        <ele>234.39999389648</ele>
        <time>2012-08-21T09:12:00.000Z</time>
      </trkpt>
      <trkpt lat="47.66478" lon="6.18236">
        <ele>234</ele>
        <time>2012-08-21T09:12:01.000Z</time>
      </trkpt>
      <trkpt lat="47.66466" lon="6.18212">
        <ele>234</ele>
        <time>2012-08-21T09:12:05.000Z</time>
      </trkpt>
      <trkpt lat="47.6644" lon="6.18157">
        <ele>234</ele>
        <time>2012-08-21T09:12:13.000Z</time>
      </trkpt>
      <trkpt lat="47.66423" lon="6.18137">
        <ele>233.60000610352</ele>
        <time>2012-08-21T09:12:17.000Z</time>
      </trkpt>
      <trkpt lat="47.66419" lon="6.18131">
        <ele>233</ele>
        <time>2012-08-21T09:12:18.000Z</time>
      </trkpt>
      <trkpt lat="47.66414" lon="6.18126">
        <ele>232.60000610352</ele>
        <time>2012-08-21T09:12:19.000Z</time>
      </trkpt>
      <trkpt lat="47.66409" lon="6.18121">
        <ele>232.19999694824</ele>
        <time>2012-08-21T09:12:20.000Z</time>
      </trkpt>
      <trkpt lat="47.66405" lon="6.18116">
        <ele>231.80000305176</ele>
        <time>2012-08-21T09:12:21.000Z</time>
      </trkpt>
      <trkpt lat="47.66389" lon="6.18095">
        <ele>231.80000305176</ele>
        <time>2012-08-21T09:12:25.000Z</time>
      </trkpt>
      <trkpt lat="47.66357" lon="6.18048">
        <ele>231.80000305176</ele>
        <time>2012-08-21T09:12:33.000Z</time>
      </trkpt>
      <trkpt lat="47.66338" lon="6.18003">
        <ele>231.80000305176</ele>
        <time>2012-08-21T09:12:40.000Z</time>
      </trkpt>
      <trkpt lat="47.66328" lon="6.17971">
        <ele>231.80000305176</ele>
        <time>2012-08-21T09:12:46.000Z</time>
      </trkpt>
      <trkpt lat="47.66326" lon="6.17969">
        <ele>231.80000305176</ele>
        <time>2012-08-21T09:12:47.000Z</time>
      </trkpt>
      <trkpt lat="47.66319" lon="6.17969">
        <ele>231.80000305176</ele>
        <time>2012-08-21T09:12:49.000Z</time>
      </trkpt>
      <trkpt lat="47.66311" lon="6.17972">
        <ele>231.80000305176</ele>
        <time>2012-08-21T09:12:51.000Z</time>
      </trkpt>
      <trkpt lat="47.66295" lon="6.17971">
        <ele>231.80000305176</ele>
        <time>2012-08-21T09:12:55.000Z</time>
      </trkpt>
      <trkpt lat="47.66265" lon="6.17968">
        <ele>231.80000305176</ele>
        <time>2012-08-21T09:13:03.000Z</time>
      </trkpt>
      <trkpt lat="47.6623" lon="6.17964">
        <ele>231.80000305176</ele>
        <time>2012-08-21T09:13:13.000Z</time>
      </trkpt>
      <trkpt lat="47.66208" lon="6.17957">
        <ele>231.80000305176</ele>
        <time>2012-08-21T09:13:19.000Z</time>
      </trkpt>
      <trkpt lat="47.66176" lon="6.1795">
        <ele>231.80000305176</ele>
        <time>2012-08-21T09:13:27.000Z</time>
      </trkpt>
      <trkpt lat="47.66139" lon="6.17948">
        <ele>231.80000305176</ele>
        <time>2012-08-21T09:13:35.000Z</time>
      </trkpt>
      <trkpt lat="47.661" lon="6.1795">
        <ele>231.80000305176</ele>
        <time>2012-08-21T09:13:42.000Z</time>
      </trkpt>
      <trkpt lat="47.66059" lon="6.1795">
        <ele>231.80000305176</ele>
        <time>2012-08-21T09:13:49.000Z</time>
      </trkpt>
      <trkpt lat="47.66023" lon="6.1795">
        <ele>231.80000305176</ele>
        <time>2012-08-21T09:13:55.000Z</time>
      </trkpt>
      <trkpt lat="47.65992" lon="6.17947">
        <ele>231.80000305176</ele>
        <time>2012-08-21T09:14:01.000Z</time>
      </trkpt>
      <trkpt lat="47.65958" lon="6.17946">
        <ele>231.80000305176</ele>
        <time>2012-08-21T09:14:09.000Z</time>
      </trkpt>
      <trkpt lat="47.65933" lon="6.17947">
        <ele>231.80000305176</ele>
        <time>2012-08-21T09:14:16.000Z</time>
      </trkpt>
      <trkpt lat="47.6591" lon="6.17948">
        <ele>232.19999694824</ele>
        <time>2012-08-21T09:14:23.000Z</time>
      </trkpt>
      <trkpt lat="47.65907" lon="6.17948">
        <ele>232.60000610352</ele>
        <time>2012-08-21T09:14:24.000Z</time>
      </trkpt>
      <trkpt lat="47.65904" lon="6.17948">
        <ele>233</ele>
        <time>2012-08-21T09:14:25.000Z</time>
      </trkpt>
      <trkpt lat="47.65902" lon="6.17949">
        <ele>233.39999389648</ele>
        <time>2012-08-21T09:14:26.000Z</time>
      </trkpt>
      <trkpt lat="47.65899" lon="6.17949">
        <ele>234</ele>
        <time>2012-08-21T09:14:27.000Z</time>
      </trkpt>
      <trkpt lat="47.65887" lon="6.17951">
        <ele>234</ele>
        <time>2012-08-21T09:14:31.000Z</time>
      </trkpt>
      <trkpt lat="47.65863" lon="6.17957">
        <ele>234</ele>
        <time>2012-08-21T09:14:39.000Z</time>
      </trkpt>
      <trkpt lat="47.65852" lon="6.17964">
        <ele>234.39999389648</ele>
        <time>2012-08-21T09:14:43.000Z</time>
      </trkpt>
      <trkpt lat="47.65849" lon="6.17967">
        <ele>234.80000305176</ele>
        <time>2012-08-21T09:14:44.000Z</time>
      </trkpt>
      <trkpt lat="47.65846" lon="6.17969">
        <ele>235.19999694824</ele>
        <time>2012-08-21T09:14:45.000Z</time>
      </trkpt>
      <trkpt lat="47.65843" lon="6.17972">
        <ele>235.60000610352</ele>
        <time>2012-08-21T09:14:46.000Z</time>
      </trkpt>
      <trkpt lat="47.6584" lon="6.17975">
        <ele>236</ele>
        <time>2012-08-21T09:14:47.000Z</time>
      </trkpt>
      <trkpt lat="47.65825" lon="6.17989">
        <ele>236</ele>
        <time>2012-08-21T09:14:52.000Z</time>
      </trkpt>
      <trkpt lat="47.65817" lon="6.17997">
        <ele>236.39999389648</ele>
        <time>2012-08-21T09:14:55.000Z</time>
      </trkpt>
      <trkpt lat="47.65814" lon="6.17998">
        <ele>236.80000305176</ele>
        <time>2012-08-21T09:14:56.000Z</time>
      </trkpt>
      <trkpt lat="47.65811" lon="6.18">
        <ele>237.19999694824</ele>
        <time>2012-08-21T09:14:57.000Z</time>
      </trkpt>
      <trkpt lat="47.65809" lon="6.18002">
        <ele>237.60000610352</ele>
        <time>2012-08-21T09:14:58.000Z</time>
      </trkpt>
      <trkpt lat="47.65806" lon="6.18005">
        <ele>238</ele>
        <time>2012-08-21T09:14:59.000Z</time>
      </trkpt>
      <trkpt lat="47.65787" lon="6.18019">
        <ele>238</ele>
        <time>2012-08-21T09:15:06.000Z</time>
      </trkpt>
      <trkpt lat="47.65764" lon="6.18034">
        <ele>238</ele>
        <time>2012-08-21T09:15:13.000Z</time>
      </trkpt>
      <trkpt lat="47.65759" lon="6.18035">
        <ele>238</ele>
        <time>2012-08-21T09:15:14.000Z</time>
      </trkpt>
      <trkpt lat="47.65728" lon="6.18053">
        <ele>238</ele>
        <time>2012-08-21T09:15:20.000Z</time>
      </trkpt>
      <trkpt lat="47.65722" lon="6.18057">
        <ele>237.60000610352</ele>
        <time>2012-08-21T09:15:21.000Z</time>
      </trkpt>
      <trkpt lat="47.65716" lon="6.18062">
        <ele>237.19999694824</ele>
        <time>2012-08-21T09:15:22.000Z</time>
      </trkpt>
      <trkpt lat="47.65711" lon="6.18067">
        <ele>236.60000610352</ele>
        <time>2012-08-21T09:15:23.000Z</time>
      </trkpt>
      <trkpt lat="47.65706" lon="6.18073">
        <ele>236.19999694824</ele>
        <time>2012-08-21T09:15:24.000Z</time>
      </trkpt>
      <trkpt lat="47.657" lon="6.18079">
        <ele>235.80000305176</ele>
        <time>2012-08-21T09:15:25.000Z</time>
      </trkpt>
      <trkpt lat="47.65681" lon="6.18109">
        <ele>235.39999389648</ele>
        <time>2012-08-21T09:15:29.000Z</time>
      </trkpt>
      <trkpt lat="47.65677" lon="6.18118">
        <ele>234.80000305176</ele>
        <time>2012-08-21T09:15:30.000Z</time>
      </trkpt>
      <trkpt lat="47.65674" lon="6.18126">
        <ele>234.39999389648</ele>
        <time>2012-08-21T09:15:31.000Z</time>
      </trkpt>
      <trkpt lat="47.65671" lon="6.18133">
        <ele>234</ele>
        <time>2012-08-21T09:15:32.000Z</time>
      </trkpt>
      <trkpt lat="47.65667" lon="6.18139">
        <ele>233.60000610352</ele>
        <time>2012-08-21T09:15:33.000Z</time>
      </trkpt>
      <trkpt lat="47.65663" lon="6.18144">
        <ele>233.60000610352</ele>
        <time>2012-08-21T09:15:34.000Z</time>
      </trkpt>
      <trkpt lat="47.65642" lon="6.18164">
        <ele>233.60000610352</ele>
        <time>2012-08-21T09:15:39.000Z</time>
      </trkpt>
      <trkpt lat="47.65631" lon="6.18169">
        <ele>233.60000610352</ele>
        <time>2012-08-21T09:15:41.000Z</time>
      </trkpt>
      <trkpt lat="47.65616" lon="6.18169">
        <ele>233.60000610352</ele>
        <time>2012-08-21T09:15:43.000Z</time>
      </trkpt>
      <trkpt lat="47.65609" lon="6.1817">
        <ele>233.19999694824</ele>
        <time>2012-08-21T09:15:44.000Z</time>
      </trkpt>
      <trkpt lat="47.65602" lon="6.18173">
        <ele>232.80000305176</ele>
        <time>2012-08-21T09:15:45.000Z</time>
      </trkpt>
      <trkpt lat="47.65596" lon="6.18176">
        <ele>232.39999389648</ele>
        <time>2012-08-21T09:15:46.000Z</time>
      </trkpt>
      <trkpt lat="47.6559" lon="6.18181">
        <ele>232</ele>
        <time>2012-08-21T09:15:47.000Z</time>
      </trkpt>
      <trkpt lat="47.65585" lon="6.18185">
        <ele>231.39999389648</ele>
        <time>2012-08-21T09:15:48.000Z</time>
      </trkpt>
      <trkpt lat="47.65567" lon="6.18197">
        <ele>231.39999389648</ele>
        <time>2012-08-21T09:15:52.000Z</time>
      </trkpt>
      <trkpt lat="47.65563" lon="6.18213">
        <ele>231.39999389648</ele>
        <time>2012-08-21T09:15:56.000Z</time>
      </trkpt>
      <trkpt lat="47.65557" lon="6.18225">
        <ele>231.80000305176</ele>
        <time>2012-08-21T09:16:00.000Z</time>
      </trkpt>
      <trkpt lat="47.65555" lon="6.18228">
        <ele>232.39999389648</ele>
        <time>2012-08-21T09:16:01.000Z</time>
      </trkpt>
      <trkpt lat="47.65552" lon="6.18231">
        <ele>232.80000305176</ele>
        <time>2012-08-21T09:16:02.000Z</time>
      </trkpt>
      <trkpt lat="47.6555" lon="6.18232">
        <ele>233.19999694824</ele>
        <time>2012-08-21T09:16:03.000Z</time>
      </trkpt>
      <trkpt lat="47.65547" lon="6.18234">
        <ele>233.60000610352</ele>
        <time>2012-08-21T09:16:04.000Z</time>
      </trkpt>
      <trkpt lat="47.65531" lon="6.18242">
        <ele>233.60000610352</ele>
        <time>2012-08-21T09:16:08.000Z</time>
      </trkpt>
      <trkpt lat="47.65502" lon="6.18254">
        <ele>233.60000610352</ele>
        <time>2012-08-21T09:16:14.000Z</time>
      </trkpt>
      <trkpt lat="47.65476" lon="6.18262">
        <ele>233</ele>
        <time>2012-08-21T09:16:19.000Z</time>
      </trkpt>
      <trkpt lat="47.6547" lon="6.18262">
        <ele>232.60000610352</ele>
        <time>2012-08-21T09:16:20.000Z</time>
      </trkpt>
      <trkpt lat="47.65463" lon="6.18262">
        <ele>232.19999694824</ele>
        <time>2012-08-21T09:16:21.000Z</time>
      </trkpt>
      <trkpt lat="47.65456" lon="6.18262">
        <ele>231.80000305176</ele>
        <time>2012-08-21T09:16:22.000Z</time>
      </trkpt>
      <trkpt lat="47.65449" lon="6.18261">
        <ele>231.39999389648</ele>
        <time>2012-08-21T09:16:23.000Z</time>
      </trkpt>
      <trkpt lat="47.65441" lon="6.18259">
        <ele>231.39999389648</ele>
        <time>2012-08-21T09:16:24.000Z</time>
      </trkpt>
      <trkpt lat="47.65434" lon="6.18256">
        <ele>231</ele>
        <time>2012-08-21T09:16:25.000Z</time>
      </trkpt>
      <trkpt lat="47.65427" lon="6.18252">
        <ele>230.60000610352</ele>
        <time>2012-08-21T09:16:26.000Z</time>
      </trkpt>
      <trkpt lat="47.6542" lon="6.18248">
        <ele>230</ele>
        <time>2012-08-21T09:16:27.000Z</time>
      </trkpt>
      <trkpt lat="47.65412" lon="6.18244">
        <ele>229.60000610352</ele>
        <time>2012-08-21T09:16:28.000Z</time>
      </trkpt>
      <trkpt lat="47.65405" lon="6.18239">
        <ele>229.19999694824</ele>
        <time>2012-08-21T09:16:29.000Z</time>
      </trkpt>
      <trkpt lat="47.65391" lon="6.18229">
        <ele>228.80000305176</ele>
        <time>2012-08-21T09:16:31.000Z</time>
      </trkpt>
      <trkpt lat="47.65384" lon="6.18224">
        <ele>228.39999389648</ele>
        <time>2012-08-21T09:16:32.000Z</time>
      </trkpt>
      <trkpt lat="47.65378" lon="6.18218">
        <ele>227.80000305176</ele>
        <time>2012-08-21T09:16:33.000Z</time>
      </trkpt>
      <trkpt lat="47.65372" lon="6.18212">
        <ele>227</ele>
        <time>2012-08-21T09:16:34.000Z</time>
      </trkpt>
      <trkpt lat="47.65348" lon="6.18187">
        <ele>227</ele>
        <time>2012-08-21T09:16:38.000Z</time>
      </trkpt>
      <trkpt lat="47.65321" lon="6.18148">
        <ele>227</ele>
        <time>2012-08-21T09:16:44.000Z</time>
      </trkpt>
      <trkpt lat="47.65308" lon="6.18112">
        <ele>227</ele>
        <time>2012-08-21T09:16:49.000Z</time>
      </trkpt>
      <trkpt lat="47.653" lon="6.18065">
        <ele>227</ele>
        <time>2012-08-21T09:16:55.000Z</time>
      </trkpt>
      <trkpt lat="47.65288" lon="6.18008">
        <ele>227</ele>
        <time>2012-08-21T09:17:03.000Z</time>
      </trkpt>
      <trkpt lat="47.65285" lon="6.18003">
        <ele>227</ele>
        <time>2012-08-21T09:17:04.000Z</time>
      </trkpt>
      <trkpt lat="47.65274" lon="6.17984">
        <ele>227</ele>
        <time>2012-08-21T09:17:08.000Z</time>
      </trkpt>
      <trkpt lat="47.65256" lon="6.17973">
        <ele>227</ele>
        <time>2012-08-21T09:17:13.000Z</time>
      </trkpt>
      <trkpt lat="47.65241" lon="6.17971">
        <ele>227</ele>
        <time>2012-08-21T09:17:17.000Z</time>
      </trkpt>
      <trkpt lat="47.65237" lon="6.17972">
        <ele>227</ele>
        <time>2012-08-21T09:17:18.000Z</time>
      </trkpt>
      <trkpt lat="47.65215" lon="6.17985">
        <ele>227</ele>
        <time>2012-08-21T09:17:23.000Z</time>
      </trkpt>
      <trkpt lat="47.65189" lon="6.18012">
        <ele>227</ele>
        <time>2012-08-21T09:17:30.000Z</time>
      </trkpt>
      <trkpt lat="47.65179" lon="6.18027">
        <ele>227</ele>
        <time>2012-08-21T09:17:33.000Z</time>
      </trkpt>
      <trkpt lat="47.65168" lon="6.18045">
        <ele>227</ele>
        <time>2012-08-21T09:17:36.000Z</time>
      </trkpt>
      <trkpt lat="47.65156" lon="6.18063">
        <ele>226.60000610352</ele>
        <time>2012-08-21T09:17:39.000Z</time>
      </trkpt>
      <trkpt lat="47.65152" lon="6.18069">
        <ele>226.19999694824</ele>
        <time>2012-08-21T09:17:40.000Z</time>
      </trkpt>
      <trkpt lat="47.65148" lon="6.18074">
        <ele>225.80000305176</ele>
        <time>2012-08-21T09:17:41.000Z</time>
      </trkpt>
      <trkpt lat="47.65144" lon="6.1808">
        <ele>225.19999694824</ele>
        <time>2012-08-21T09:17:42.000Z</time>
      </trkpt>
      <trkpt lat="47.65139" lon="6.18085">
        <ele>224.80000305176</ele>
        <time>2012-08-21T09:17:43.000Z</time>
      </trkpt>
      <trkpt lat="47.6513" lon="6.18095">
        <ele>224.80000305176</ele>
        <time>2012-08-21T09:17:45.000Z</time>
      </trkpt>
      <trkpt lat="47.65114" lon="6.18102">
        <ele>224.80000305176</ele>
        <time>2012-08-21T09:17:48.000Z</time>
      </trkpt>
      <trkpt lat="47.6511" lon="6.18103">
        <ele>224.80000305176</ele>
        <time>2012-08-21T09:17:49.000Z</time>
      </trkpt>
      <trkpt lat="47.65085" lon="6.18104">
        <ele>224.80000305176</ele>
        <time>2012-08-21T09:17:54.000Z</time>
      </trkpt>
      <trkpt lat="47.65054" lon="6.18095">
        <ele>224.80000305176</ele>
        <time>2012-08-21T09:18:00.000Z</time>
      </trkpt>
      <trkpt lat="47.65018" lon="6.18093">
        <ele>224.80000305176</ele>
        <time>2012-08-21T09:18:07.000Z</time>
      </trkpt>
      <trkpt lat="47.64978" lon="6.18094">
        <ele>224.80000305176</ele>
        <time>2012-08-21T09:18:15.000Z</time>
      </trkpt>
      <trkpt lat="47.64954" lon="6.18097">
        <ele>224.80000305176</ele>
        <time>2012-08-21T09:18:20.000Z</time>
      </trkpt>
      <trkpt lat="47.64949" lon="6.18096">
        <ele>224.80000305176</ele>
        <time>2012-08-21T09:18:21.000Z</time>
      </trkpt>
      <trkpt lat="47.64909" lon="6.18088">
        <ele>224.80000305176</ele>
        <time>2012-08-21T09:18:29.000Z</time>
      </trkpt>
      <trkpt lat="47.64872" lon="6.18079">
        <ele>224.80000305176</ele>
        <time>2012-08-21T09:18:37.000Z</time>
      </trkpt>
      <trkpt lat="47.64868" lon="6.18078">
        <ele>224.80000305176</ele>
        <time>2012-08-21T09:18:38.000Z</time>
      </trkpt>
      <trkpt lat="47.64849" lon="6.18071">
        <ele>224.80000305176</ele>
        <time>2012-08-21T09:18:43.000Z</time>
      </trkpt>
      <trkpt lat="47.64823" lon="6.18065">
        <ele>224.80000305176</ele>
        <time>2012-08-21T09:18:50.000Z</time>
      </trkpt>
      <trkpt lat="47.64814" lon="6.18064">
        <ele>224.80000305176</ele>
        <time>2012-08-21T09:18:52.000Z</time>
      </trkpt>
      <trkpt lat="47.648" lon="6.1806">
        <ele>224.80000305176</ele>
        <time>2012-08-21T09:18:55.000Z</time>
      </trkpt>
      <trkpt lat="47.64777" lon="6.18047">
        <ele>224.80000305176</ele>
        <time>2012-08-21T09:19:00.000Z</time>
      </trkpt>
      <trkpt lat="47.64773" lon="6.18043">
        <ele>224.80000305176</ele>
        <time>2012-08-21T09:19:01.000Z</time>
      </trkpt>
      <trkpt lat="47.64762" lon="6.18031">
        <ele>224.80000305176</ele>
        <time>2012-08-21T09:19:04.000Z</time>
      </trkpt>
      <trkpt lat="47.64753" lon="6.18018">
        <ele>224.80000305176</ele>
        <time>2012-08-21T09:19:07.000Z</time>
      </trkpt>
      <trkpt lat="47.64729" lon="6.1798">
        <ele>224.80000305176</ele>
        <time>2012-08-21T09:19:15.000Z</time>
      </trkpt>
      <trkpt lat="47.64706" lon="6.17944">
        <ele>224.80000305176</ele>
        <time>2012-08-21T09:19:23.000Z</time>
      </trkpt>
      <trkpt lat="47.64678" lon="6.17911">
        <ele>224.80000305176</ele>
        <time>2012-08-21T09:19:31.000Z</time>
      </trkpt>
      <trkpt lat="47.64644" lon="6.17891">
        <ele>224.80000305176</ele>
        <time>2012-08-21T09:19:39.000Z</time>
      </trkpt>
      <trkpt lat="47.64622" lon="6.17884">
        <ele>224.80000305176</ele>
        <time>2012-08-21T09:19:44.000Z</time>
      </trkpt>
      <trkpt lat="47.64617" lon="6.17884">
        <ele>224.80000305176</ele>
        <time>2012-08-21T09:19:45.000Z</time>
      </trkpt>
      <trkpt lat="47.64602" lon="6.17888">
        <ele>224.80000305176</ele>
        <time>2012-08-21T09:19:48.000Z</time>
      </trkpt>
      <trkpt lat="47.64594" lon="6.17894">
        <ele>224.80000305176</ele>
        <time>2012-08-21T09:19:50.000Z</time>
      </trkpt>
      <trkpt lat="47.64568" lon="6.17923">
        <ele>224.80000305176</ele>
        <time>2012-08-21T09:19:58.000Z</time>
      </trkpt>
      <trkpt lat="47.64558" lon="6.17941">
        <ele>224.80000305176</ele>
        <time>2012-08-21T09:20:03.000Z</time>
      </trkpt>
      <trkpt lat="47.64549" lon="6.17971">
        <ele>224.80000305176</ele>
        <time>2012-08-21T09:20:10.000Z</time>
      </trkpt>
      <trkpt lat="47.64548" lon="6.17979">
        <ele>224.80000305176</ele>
        <time>2012-08-21T09:20:12.000Z</time>
      </trkpt>
      <trkpt lat="47.64543" lon="6.17995">
        <ele>224.80000305176</ele>
        <time>2012-08-21T09:20:17.000Z</time>
      </trkpt>
      <trkpt lat="47.64542" lon="6.17998">
        <ele>225.19999694824</ele>
        <time>2012-08-21T09:20:18.000Z</time>
      </trkpt>
      <trkpt lat="47.64541" lon="6.18001">
        <ele>225.60000610352</ele>
        <time>2012-08-21T09:20:19.000Z</time>
      </trkpt>
      <trkpt lat="47.6454" lon="6.18004">
        <ele>226</ele>
        <time>2012-08-21T09:20:20.000Z</time>
      </trkpt>
      <trkpt lat="47.64538" lon="6.18008">
        <ele>226.39999389648</ele>
        <time>2012-08-21T09:20:21.000Z</time>
      </trkpt>
      <trkpt lat="47.64537" lon="6.18012">
        <ele>226.80000305176</ele>
        <time>2012-08-21T09:20:22.000Z</time>
      </trkpt>
      <trkpt lat="47.64533" lon="6.18021">
        <ele>226.80000305176</ele>
        <time>2012-08-21T09:20:24.000Z</time>
      </trkpt>
      <trkpt lat="47.64527" lon="6.18038">
        <ele>226.80000305176</ele>
        <time>2012-08-21T09:20:28.000Z</time>
      </trkpt>
      <trkpt lat="47.64518" lon="6.18044">
        <ele>226.39999389648</ele>
        <time>2012-08-21T09:20:30.000Z</time>
      </trkpt>
      <trkpt lat="47.64513" lon="6.18047">
        <ele>226</ele>
        <time>2012-08-21T09:20:31.000Z</time>
      </trkpt>
      <trkpt lat="47.64509" lon="6.18052">
        <ele>225.60000610352</ele>
        <time>2012-08-21T09:20:32.000Z</time>
      </trkpt>
      <trkpt lat="47.64505" lon="6.18057">
        <ele>225.19999694824</ele>
        <time>2012-08-21T09:20:33.000Z</time>
      </trkpt>
      <trkpt lat="47.64502" lon="6.18062">
        <ele>224.80000305176</ele>
        <time>2012-08-21T09:20:34.000Z</time>
      </trkpt>
      <trkpt lat="47.64497" lon="6.18072">
        <ele>224.80000305176</ele>
        <time>2012-08-21T09:20:36.000Z</time>
      </trkpt>
      <trkpt lat="47.6449" lon="6.18091">
        <ele>224.80000305176</ele>
        <time>2012-08-21T09:20:39.000Z</time>
      </trkpt>
      <trkpt lat="47.64487" lon="6.18113">
        <ele>224.80000305176</ele>
        <time>2012-08-21T09:20:42.000Z</time>
      </trkpt>
      <trkpt lat="47.64486" lon="6.1812">
        <ele>224.80000305176</ele>
        <time>2012-08-21T09:20:43.000Z</time>
      </trkpt>
      <trkpt lat="47.64485" lon="6.18128">
        <ele>224.39999389648</ele>
        <time>2012-08-21T09:20:44.000Z</time>
      </trkpt>
      <trkpt lat="47.64485" lon="6.18135">
        <ele>224</ele>
        <time>2012-08-21T09:20:45.000Z</time>
      </trkpt>
      <trkpt lat="47.64486" lon="6.18141">
        <ele>223.60000610352</ele>
        <time>2012-08-21T09:20:46.000Z</time>
      </trkpt>
      <trkpt lat="47.64486" lon="6.18148">
        <ele>223.19999694824</ele>
        <time>2012-08-21T09:20:47.000Z</time>
      </trkpt>
      <trkpt lat="47.64488" lon="6.18154">
        <ele>222.80000305176</ele>
        <time>2012-08-21T09:20:48.000Z</time>
      </trkpt>
      <trkpt lat="47.64489" lon="6.1816">
        <ele>222.80000305176</ele>
        <time>2012-08-21T09:20:49.000Z</time>
      </trkpt>
      <trkpt lat="47.64493" lon="6.18177">
        <ele>222.80000305176</ele>
        <time>2012-08-21T09:20:52.000Z</time>
      </trkpt>
      <trkpt lat="47.64491" lon="6.18201">
        <ele>222.80000305176</ele>
        <time>2012-08-21T09:20:57.000Z</time>
      </trkpt>
      <trkpt lat="47.64484" lon="6.18231">
        <ele>222.80000305176</ele>
        <time>2012-08-21T09:21:04.000Z</time>
      </trkpt>
      <trkpt lat="47.64472" lon="6.18257">
        <ele>222.80000305176</ele>
        <time>2012-08-21T09:21:10.000Z</time>
      </trkpt>
      <trkpt lat="47.64468" lon="6.18263">
        <ele>222.80000305176</ele>
        <time>2012-08-21T09:21:12.000Z</time>
      </trkpt>
      <trkpt lat="47.64464" lon="6.18267">
        <ele>222.80000305176</ele>
        <time>2012-08-21T09:21:14.000Z</time>
      </trkpt>
      <trkpt lat="47.64451" lon="6.18284">
        <ele>222.80000305176</ele>
        <time>2012-08-21T09:21:21.000Z</time>
      </trkpt>
      <trkpt lat="47.64442" lon="6.18296">
        <ele>222.80000305176</ele>
        <time>2012-08-21T09:21:27.000Z</time>
      </trkpt>
      <trkpt lat="47.64439" lon="6.18301">
        <ele>222.80000305176</ele>
        <time>2012-08-21T09:21:30.000Z</time>
      </trkpt>
      <trkpt lat="47.64439" lon="6.18302">
        <ele>222.80000305176</ele>
        <time>2012-08-21T09:21:32.000Z</time>
      </trkpt>
      <trkpt lat="47.64439" lon="6.18306">
        <ele>222.80000305176</ele>
        <time>2012-08-21T09:22:24.000Z</time>
      </trkpt>
      <trkpt lat="47.64438" lon="6.18312">
        <ele>222.80000305176</ele>
        <time>2012-08-21T09:22:27.000Z</time>
      </trkpt>
      <trkpt lat="47.64439" lon="6.18323">
        <ele>222.80000305176</ele>
        <time>2012-08-21T09:22:32.000Z</time>
      </trkpt>
      <trkpt lat="47.64438" lon="6.18328">
        <ele>222.80000305176</ele>
        <time>2012-08-21T09:22:35.000Z</time>
      </trkpt>
      <trkpt lat="47.64431" lon="6.18326">
        <ele>257.39999389648</ele>
        <time>2012-08-21T16:24:53.000Z</time>
      </trkpt>
      <trkpt lat="47.64433" lon="6.18326">
        <ele>257.39999389648</ele>
        <time>2012-08-21T16:24:54.000Z</time>
      </trkpt>
      <trkpt lat="47.64477" lon="6.1833">
        <ele>257.39999389648</ele>
        <time>2012-08-21T16:25:19.000Z</time>
      </trkpt>
      <trkpt lat="47.64471" lon="6.18337">
        <ele>257.39999389648</ele>
        <time>2012-08-21T16:25:27.000Z</time>
      </trkpt>
      <trkpt lat="47.64471" lon="6.18337">
        <ele>257.39999389648</ele>
        <time>2012-08-21T16:25:28.000Z</time>
      </trkpt>
    </trkseg>
  </trk>
</gpx>